GFSWCAN_sfc_rhum_069.txt.gz
RH
78 80 83 86 87 86 86 85 86 84 85 83 89 88 89 86 80 83 72 71 88 100 62 47 45 57 45 50 89 78 86 97 99 98 79 61 64 51 43 43 56 54 61 64 56 60 62 36 33 48 53 43 44 42
83 84 83 84 86 86 85 86 87 86 87 85 85 88 92 87 85 81 80 76 76 91 92 62 43 38 49 59 80 85 78 93 79 72 69 63 61 66 41 51 41 55 39 49 41 46 43 42 53 48 49 50 50 50
84 86 89 90 89 89 88 88 89 87 87 88 90 89 87 86 90 84 91 92 95 98 97 76 63 51 44 46 51 87 57 52 58 60 94 73 73 46 63 50 43 35 38 45 48 42 49 49 46 48 46 51 47 46
90 90 90 92 91 91 92 90 91 90 91 89 90 93 88 84 92 85 98 95 96 98 99 65 40 49 47 48 52 58 71 62 69 74 77 76 70 39 61 67 43 45 36 32 33 41 43 45 51 55 51 50 50 48
89 92 92 92 91 91 91 91 92 90 91 92 91 93 85 83 89 92 96 95 89 63 77 56 46 47 42 52 59 69 86 74 93 94 83 74 54 55 41 48 45 28 45 44 61 59 57 54 55 56 55 57 55 54
92 92 91 92 92 91 91 91 89 89 91 89 91 91 87 84 92 97 100 96 88 85 89 98 49 55 55 50 54 68 86 86 93 97 83 64 48 60 70 59 54 49 50 52 59 53 56 59 60 56 61 59 58 57
91 93 91 92 94 93 93 92 91 87 85 88 90 88 84 88 94 96 89 82 87 90 95 84 75 60 48 50 62 74 82 94 95 97 84 62 58 58 65 66 83 53 48 52 52 55 68 65 77 62 64 60 59 56
91 91 94 95 94 94 91 93 92 88 83 88 90 87 88 86 86 96 83 87 80 95 94 98 86 85 57 77 87 85 97 96 97 97 81 67 56 68 93 79 63 57 53 56 54 51 68 67 63 64 61 60 68 74
91 94 94 95 96 95 92 89 90 87 84 87 91 89 94 95 97 96 90 88 90 90 98 98 98 100 83 83 92 94 91 100 93 96 94 74 76 96 93 78 76 69 69 65 53 50 56 65 65 63 62 64 66 67
94 92 93 93 92 91 92 90 87 88 89 92 92 98 100 96 88 86 94 99 98 94 80 87 81 99 75 81 97 98 95 89 97 98 90 100 92 74 58 58 62 63 62 59 68 71 68 70 71 67 69 66 65 67
91 93 94 92 94 93 93 93 93 91 83 94 99 100 97 83 89 96 100 100 98 100 77 80 80 96 84 82 99 85 94 83 77 90 91 91 89 76 58 55 55 59 57 56 58 64 67 69 72 73 74 76 74 74
89 91 92 93 92 91 90 89 88 91 90 82 95 93 91 95 98 97 99 93 73 75 83 91 92 76 94 83 90 89 91 93 95 79 96 93 79 59 58 60 61 62 61 64 63 68 69 70 73 72 75 79 84 86
83 83 85 85 85 84 88 82 80 80 65 66 78 86 88 84 100 96 89 85 88 94 97 99 99 95 91 87 98 97 100 98 78 99 90 83 71 66 70 67 67 65 65 66 70 71 71 76 78 81 86 91 91 92
76 78 78 76 71 70 72 68 66 52 46 61 80 91 94 94 85 88 96 98 96 98 100 95 94 91 97 99 100 100 97 95 97 92 89 86 83 82 80 78 71 85 85 84 85 84 86 86 90 90 91 92 92 92
74 74 69 67 66 65 63 61 58 45 51 71 65 90 86 88 86 94 97 97 93 98 100 95 92 80 97 99 89 89 96 88 84 90 88 84 82 81 82 84 84 84 85 84 83 86 87 87 87 90 91 92 91 91
80 69 59 70 64 59 58 54 53 50 54 68 79 85 89 96 96 95 98 98 96 99 97 86 99 97 94 88 86 84 78 85 89 87 87 82 87 88 88 87 85 84 84 86 87 86 87 88 89 91 90 91 92 91
82 64 65 62 60 57 60 48 50 57 67 75 89 89 91 89 95 96 96 94 94 98 99 79 94 95 66 82 85 79 90 90 90 90 85 88 87 88 87 86 86 86 87 88 87 87 88 88 88 86 87 90 78 76
63 70 63 60 58 53 46 45 53 58 83 84 84 92 87 90 94 94 94 79 76 71 68 87 60 84 85 81 85 89 90 92 89 88 87 87 87 87 84 84 84 83 84 86 84 85 85 85 77 71 70 64 59 58
68 57 80 72 56 48 52 53 48 73 86 87 88 83 86 92 87 87 83 68 56 53 61 65 80 82 86 84 89 91 91 88 88 84 82 84 82 83 83 82 82 84 85 84 79 68 64 65 57 51 50 48 54 56
79 79 76 70 63 49 55 59 46 60 75 79 76 79 75 83 85 88 81 65 55 59 74 78 85 90 87 89 83 82 80 75 73 77 80 77 74 77 83 78 73 76 67 66 60 55 52 53 53 56 58 58 64 68
65 60 64 48 46 49 54 55 58 57 61 72 69 67 77 73 81 83 77 55 70 75 80 83 88 91 84 78 70 69 79 73 77 77 74 76 71 64 64 64 62 58 57 60 62 63 62 61 54 56 72 77 75 73
50 64 53 48 52 51 58 51 57 55 64 68 64 59 77 86 84 79 56 71 77 86 81 80 78 74 74 79 74 69 72 70 72 71 73 71 70 66 63 62 57 68 65 68 63 72 68 56 62 63 72 76 62 69
63 57 58 57 84 77 82 73 76 63 80 74 63 67 75 78 66 48 74 68 83 79 72 66 69 65 72 72 68 62 56 55 58 60 63 58 57 67 60 59 62 70 67 58 52 60 70 74 69 74 71 70 73 75
60 83 97 92 77 92 78 75 53 59 63 66 66 75 75 73 56 66 77 71 81 71 69 75 64 67 64 63 60 58 55 52 58 67 58 53 56 56 53 55 58 59 57 50 57 66 66 76 82 67 73 73 74 73
66 88 89 88 76 80 79 80 74 68 78 72 76 76 80 66 76 74 76 80 80 83 79 69 64 66 78 73 65 63 57 49 54 59 64 54 60 55 54 51 56 55 58 73 74 74 76 75 74 73 69 72 70 67
85 88 82 82 81 74 69 81 80 78 76 79 80 69 77 77 76 82 72 84 82 86 90 86 78 68 58 53 59 58 56 50 48 62 55 51 54 68 69 66 64 72 63 73 75 73 70 71 72 67 71 65 82 77
84 87 73 58 65 66 79 76 67 75 78 80 76 75 74 79 83 79 79 76 79 84 70 67 63 61 62 62 60 58 57 59 62 57 55 52 54 57 68 74 63 70 65 68 72 73 73 71 71 71 72 72 71 73
75 74 82 84 78 70 81 78 79 81 79 64 62 79 77 75 82 85 80 83 78 71 71 68 62 60 63 63 66 68 70 71 74 66 64 64 63 69 70 74 73 78 75 77 76 75 75 76 76 74 73 75 75 73
80 74 66 84 76 78 82 81 80 74 66 71 78 76 80 73 81 84 82 75 74 75 82 82 83 80 79 75 74 72 71 74 65 60 49 71 75 83 71 73 73 74 74 75 77 73 70 75 75 77 74 77 76 77
82 72 75 78 81 85 88 84 87 82 66 71 68 71 76 84 90 81 80 77 78 84 83 82 82 80 81 78 82 80 82 82 82 80 79 78 81 80 78 77 77 77 77 75 74 66 69 74 71 77 80 76 76 76
67 75 75 74 83 87 89 85 82 82 84 85 78 82 84 87 86 82 81 82 83 84 83 84 83 80 79 78 76 77 83 86 83 82 76 78 78 79 80 79 79 78 77 76 76 76 77 78 75 74 73 73 71 75
78 74 78 81 87 82 88 83 83 86 83 84 87 82 83 80 84 84 85 84 83 83 90 78 81 87 84 83 82 86 79 81 80 79 69 76 78 77 77 76 79 78 78 78 77 77 76 76 78 75 75 72 70 71
78 76 76 80 86 84 84 79 70 80 77 79 84 83 86 81 84 87 82 86 91 87 84 87 86 84 80 76 77 80 71 81 83 86 86 89 91 88 83 78 78 78 77 79 78 77 75 74 75 72 72 72 72 72

GFSWCAN_sfc_rhum_072.txt.gz
RH
73 79 81 81 82 84 86 86 85 86 85 86 84 87 86 83 81 79 67 67 88 98 62 49 47 65 69 63 84 80 94 82 94 92 74 67 70 60 55 46 54 61 72 78 66 69 69 45 49 61 68 64 47 48
80 82 82 82 83 87 86 87 86 86 86 84 85 85 90 88 82 82 70 58 74 90 61 57 53 48 50 53 95 95 93 94 69 78 69 92 78 83 59 62 40 60 49 61 48 54 57 53 57 52 54 55 54 53
82 82 85 89 90 90 91 90 90 89 87 87 86 87 86 90 89 87 80 70 83 92 85 66 59 44 38 43 51 98 72 62 86 80 90 88 86 65 71 61 63 54 49 68 56 64 61 54 50 49 50 53 49 49
83 87 89 90 90 90 90 92 91 90 90 90 87 87 88 88 91 90 95 86 80 92 87 60 35 48 38 42 45 68 70 65 70 81 92 96 87 62 82 60 63 51 48 42 78 83 84 60 56 53 53 52 52 50
88 90 92 92 91 90 90 90 92 93 91 91 89 88 91 88 88 93 96 87 72 68 80 66 46 36 38 42 48 56 63 68 92 93 88 84 80 75 64 62 90 58 68 73 97 65 81 70 59 54 57 59 56 57
89 92 92 92 92 92 91 91 90 91 92 92 91 90 92 92 88 98 100 96 79 64 88 99 82 46 44 43 51 57 67 90 96 97 86 74 55 82 89 86 90 52 54 58 64 54 65 62 60 59 62 60 56 58
93 93 93 92 93 94 93 92 91 91 90 91 90 92 93 86 96 97 91 85 83 88 99 95 77 57 49 55 68 73 71 93 95 96 96 80 71 64 86 99 92 69 52 53 50 56 67 68 70 62 60 59 62 60
94 94 94 93 95 95 95 94 92 89 89 90 91 91 88 87 87 93 83 83 81 97 96 99 78 84 54 78 88 87 97 97 92 95 81 77 68 75 97 82 67 60 55 57 53 54 62 60 56 57 56 56 66 73
96 95 94 96 95 96 94 93 92 88 86 92 91 89 93 96 98 94 88 85 89 95 97 100 94 99 69 74 93 89 96 100 96 99 90 78 95 94 93 78 74 67 66 62 54 58 56 63 61 59 59 61 66 70
94 94 96 95 94 94 94 92 87 86 93 92 90 98 100 97 94 90 98 100 99 97 85 100 93 100 78 84 96 99 94 94 100 91 78 93 94 67 56 58 61 62 59 58 67 72 68 69 80 71 73 69 69 74
93 93 94 94 93 92 93 87 90 92 84 94 99 100 98 82 90 97 100 100 99 100 72 85 95 94 88 93 98 81 99 89 86 88 92 92 88 77 59 57 58 61 58 59 63 72 74 76 80 79 78 77 79 80
92 92 91 92 94 94 92 91 84 90 91 93 95 93 96 98 95 98 96 100 87 73 86 90 85 82 96 97 96 92 92 96 99 86 89 92 87 64 62 64 63 67 68 72 72 76 75 76 74 76 76 79 84 88
88 89 90 91 89 90 94 89 87 88 77 68 77 96 90 94 100 99 85 81 96 96 99 99 97 90 90 84 98 92 99 97 81 96 90 92 77 64 71 69 71 70 71 72 77 75 73 79 83 83 90 94 91 93
80 77 82 86 74 77 86 87 87 78 72 74 82 90 95 88 88 92 96 96 98 99 100 96 98 94 99 94 100 86 95 89 93 93 92 90 86 83 79 76 73 86 86 86 89 89 92 93 94 93 94 92 90 93
74 70 71 67 67 70 68 66 62 48 53 69 66 86 84 88 88 94 98 95 96 100 100 94 93 81 91 96 89 87 88 83 86 91 92 90 88 87 88 85 86 89 92 91 89 92 93 93 92 93 94 92 91 92
73 69 64 68 63 60 62 58 50 47 55 68 79 87 93 92 95 95 98 96 96 100 100 83 94 91 90 87 86 91 92 90 94 93 90 83 88 89 88 88 89 89 88 90 91 89 88 92 90 90 89 90 91 90
83 63 67 65 62 61 63 57 62 60 66 73 88 90 91 89 95 94 97 97 100 100 100 91 86 94 74 84 83 83 92 92 93 94 87 86 86 88 88 88 89 88 89 88 88 86 87 87 90 84 86 88 78 77
67 59 66 70 64 55 51 57 60 60 79 88 88 95 92 96 96 96 97 90 94 74 71 81 65 88 92 88 89 92 92 92 87 87 87 87 88 89 87 87 88 86 86 85 83 84 85 86 76 70 70 64 61 59
66 58 68 67 61 49 55 54 49 73 87 89 85 86 91 94 92 91 87 72 60 58 63 65 77 85 89 89 92 91 90 87 91 91 89 90 88 88 88 86 86 87 87 84 73 65 62 62 58 53 51 50 58 63
82 82 79 78 67 52 58 60 49 64 85 81 78 81 78 86 87 91 83 63 55 59 73 79 87 94 90 90 86 88 85 79 79 84 86 83 82 83 90 81 75 74 67 65 60 62 53 54 54 59 65 68 77 79
56 56 63 58 48 49 55 58 62 61 68 80 78 72 85 77 84 82 75 55 70 76 82 88 91 91 83 80 76 83 90 88 92 77 79 86 76 68 67 67 63 60 62 64 65 64 67 63 57 60 79 83 83 79
46 61 50 48 55 54 61 53 60 59 69 69 68 65 81 89 84 78 58 73 83 91 83 80 79 76 77 78 71 66 69 67 72 71 74 74 75 72 71 65 61 70 67 70 67 77 73 65 78 67 78 78 74 82
64 56 57 58 77 73 81 68 75 70 82 74 66 70 79 78 67 51 77 72 87 80 70 69 70 68 73 69 66 60 55 56 61 63 65 61 60 68 62 61 63 71 68 59 54 63 80 81 69 78 72 76 75 82
63 84 97 88 73 86 78 73 56 61 66 66 65 78 77 74 56 67 80 78 83 70 69 74 67 70 68 64 61 58 56 55 61 66 58 54 58 56 54 56 59 61 59 52 60 70 69 80 81 81 75 76 76 79
68 87 88 87 77 75 76 76 71 68 76 69 72 76 79 70 74 74 79 85 88 85 78 73 83 78 80 77 66 62 62 50 57 62 62 54 59 55 56 51 58 55 59 77 84 74 79 77 75 75 73 75 79 77
85 85 81 77 77 70 67 80 77 74 73 78 76 69 74 73 75 84 77 85 88 85 86 86 80 70 61 55 60 60 56 49 51 65 56 52 56 70 70 67 68 85 68 76 80 79 73 71 72 70 77 73 86 81
82 84 69 57 64 65 78 75 66 73 76 79 77 78 73 77 82 82 90 78 83 89 76 75 69 64 66 64 60 59 58 61 65 58 55 54 58 62 74 86 86 82 67 70 74 77 79 77 77 75 77 76 77 82
73 74 84 81 78 70 79 76 76 78 76 60 62 78 77 75 85 86 83 81 80 74 74 72 64 64 66 66 68 70 72 74 75 69 67 67 65 70 74 78 74 77 77 78 76 78 77 78 78 79 80 81 84 80
78 71 68 86 74 76 80 80 79 72 68 71 76 77 78 76 82 87 80 77 75 79 83 82 82 80 77 72 75 75 76 77 72 70 64 74 88 87 73 74 75 75 76 78 82 82 70 78 80 80 79 81 82 82
79 68 74 76 81 84 90 87 85 79 68 74 73 78 84 91 89 79 80 84 85 90 86 84 87 82 83 81 83 83 83 82 84 84 84 88 89 80 77 79 79 79 78 78 78 73 78 79 78 80 88 88 82 82
65 71 73 73 83 86 86 86 90 87 83 86 81 84 83 87 85 83 84 82 82 85 85 85 83 79 78 78 81 80 93 87 84 83 77 78 77 83 84 79 80 80 79 78 78 79 79 80 80 80 78 79 80 80
74 73 76 81 88 88 93 86 84 87 87 85 89 86 86 83 85 86 85 93 90 88 88 82 85 88 83 82 85 85 83 81 80 79 74 80 82 78 76 74 77 78 79 80 80 79 79 78 80 80 81 78 79 81
80 78 77 79 84 78 82 80 70 84 77 80 85 85 89 85 88 89 80 84 94 87 89 87 86 83 80 80 79 81 78 85 88 91 91 94 92 91 89 82 81 80 78 80 79 78 78 76 79 79 80 82 81 81

GFSWCAN_sfc_rhum_075.txt.gz
RH
65 70 74 77 80 82 81 80 82 84 86 86 87 85 85 84 81 84 88 89 92 99 80 68 63 74 76 83 99 98 95 93 90 96 95 83 92 74 80 94 67 70 93 94 88 89 84 66 77 95 90 82 65 66
70 76 80 82 83 83 82 86 86 87 85 86 87 86 85 86 86 82 92 76 87 95 87 71 67 65 69 69 89 99 98 98 89 86 91 97 98 94 76 97 73 81 70 81 70 76 73 70 83 63 58 63 63 64
76 82 82 82 83 84 88 89 90 91 90 91 88 86 84 87 86 86 82 86 92 96 84 79 75 52 46 51 79 98 95 90 92 91 94 96 100 94 96 89 93 72 49 72 69 76 70 65 59 58 58 59 57 57
80 81 82 84 87 89 91 92 91 91 92 91 90 88 86 87 87 86 95 87 85 94 98 76 51 65 54 51 61 79 81 90 92 93 99 100 100 89 99 94 99 98 73 89 99 99 88 81 62 62 61 59 59 59
82 83 84 88 90 91 91 92 92 91 91 91 90 89 88 87 88 92 96 85 72 75 98 96 83 64 54 59 61 64 81 87 96 96 99 98 91 94 97 94 99 96 96 100 99 97 96 93 69 63 66 65 63 64
84 86 89 89 92 92 92 92 91 91 90 93 90 90 88 88 91 99 100 96 82 76 95 96 86 82 68 61 66 74 79 95 95 98 97 94 81 91 100 99 98 90 61 64 95 71 72 69 65 61 69 67 65 67
86 89 91 92 92 92 91 91 93 92 91 92 93 91 89 94 97 97 95 92 84 93 100 99 95 76 64 66 80 83 84 96 94 98 98 94 91 93 99 98 97 92 71 57 62 64 75 71 73 61 64 66 68 68
91 92 93 94 94 93 94 92 93 92 92 93 91 91 91 92 89 97 96 87 79 97 99 99 94 99 75 93 97 91 97 96 98 98 96 95 91 98 97 89 81 74 61 62 62 61 62 59 61 66 64 67 76 81
94 94 95 94 95 95 95 94 95 92 89 89 93 94 94 96 99 97 88 80 92 96 98 98 92 98 87 93 98 98 97 99 98 99 99 96 98 97 97 90 81 72 70 68 60 64 66 77 71 70 72 74 82 87
94 94 93 96 95 97 96 96 93 89 94 88 89 98 100 99 91 90 97 100 100 99 98 98 97 99 93 98 100 99 100 99 99 96 95 95 98 80 70 72 71 70 70 77 78 81 75 86 83 82 88 85 82 84
91 93 96 93 94 95 95 91 93 90 83 97 100 100 97 84 95 99 99 99 100 99 95 96 98 100 96 99 99 97 99 99 99 98 97 96 95 93 74 70 75 76 72 76 76 86 88 88 85 86 88 86 85 84
89 95 96 94 93 94 93 90 85 92 97 94 96 94 97 98 99 98 99 99 93 94 98 98 99 95 100 97 99 98 99 100 99 99 99 97 96 86 79 82 85 84 80 82 79 86 85 81 84 86 84 85 92 92
92 90 94 94 91 89 89 91 90 86 81 84 89 98 98 99 95 94 98 97 99 100 100 100 100 99 99 96 100 99 94 99 98 97 99 98 90 88 90 80 83 80 80 82 83 82 85 90 89 90 95 96 94 95
89 85 91 90 93 90 88 90 80 75 83 90 91 96 96 91 93 98 99 99 100 100 100 98 100 97 99 95 100 89 99 98 99 98 97 98 99 97 93 86 86 97 94 95 96 95 96 95 97 96 96 96 94 96
84 73 73 80 83 77 76 70 65 69 78 86 84 96 96 95 97 98 99 98 96 100 100 98 96 95 94 90 86 89 89 98 98 100 98 98 97 96 96 96 96 97 97 97 97 97 97 96 96 97 97 96 94 95
74 71 72 80 74 70 73 71 70 68 76 82 92 96 98 97 98 98 97 98 99 100 100 97 86 88 90 94 92 99 97 99 99 99 98 97 98 98 97 96 97 97 96 97 97 96 96 96 97 98 96 95 96 94
81 73 69 71 69 68 70 72 74 71 84 85 98 97 98 97 99 99 99 99 100 100 100 96 88 95 91 94 96 98 99 98 97 98 97 95 97 99 97 97 97 96 96 96 97 96 96 96 95 96 97 97 92 90
73 75 71 81 75 69 68 73 79 76 93 97 97 99 98 98 99 99 99 97 99 96 93 93 88 91 99 97 99 98 98 97 96 96 97 96 96 97 95 97 96 96 97 96 95 96 96 95 91 94 87 84 80 78
66 74 80 78 72 68 72 75 69 90 98 97 98 98 98 99 98 97 96 94 90 82 89 88 90 98 99 98 96 97 97 95 96 97 96 96 96 96 97 96 95 96 95 95 88 89 83 78 78 81 82 83 93 94
70 73 79 77 71 71 71 82 73 83 95 97 97 96 98 99 99 94 85 73 67 80 90 95 98 98 98 98 95 95 94 90 90 95 98 98 97 96 96 94 96 93 92 85 82 82 82 81 85 86 91 91 95 97
66 76 75 73 67 72 79 84 80 83 90 94 97 94 98 92 95 94 91 78 88 97 97 98 97 97 96 96 94 94 95 91 94 95 95 98 96 94 94 92 89 90 93 96 95 95 92 96 96 95 98 99 99 98
70 70 76 68 78 75 80 77 82 80 89 91 95 90 96 98 97 94 86 91 98 98 98 96 95 90 86 88 88 83 84 78 83 88 92 91 97 96 92 96 92 96 94 96 96 98 97 97 96 96 97 98 96 94
74 74 87 82 84 86 93 87 94 91 94 90 90 89 95 95 90 76 94 91 98 96 87 83 82 78 83 83 82 76 69 71 82 87 90 92 95 95 92 92 92 95 94 94 94 96 94 97 95 96 96 95 98 95
75 93 89 92 86 98 91 88 80 83 89 88 86 94 92 93 83 90 96 98 98 93 86 86 83 85 86 79 83 83 83 82 90 92 93 86 87 91 89 91 91 94 94 93 95 96 97 95 90 98 96 96 98 98
79 87 92 93 89 88 90 89 86 86 91 86 88 94 93 94 93 94 95 98 95 96 97 92 87 91 93 96 95 93 81 79 84 84 89 91 93 90 89 86 89 92 93 95 98 98 95 94 96 94 90 98 91 95
95 92 91 92 92 87 88 92 90 90 92 92 91 90 94 94 92 99 96 96 96 98 97 97 93 92 86 79 89 91 89 80 72 86 83 78 88 98 98 98 98 99 96 98 98 98 98 97 94 88 91 93 89 92
95 94 88 80 89 90 94 92 88 92 91 94 96 96 91 95 100 99 96 94 94 98 96 97 85 84 85 84 82 85 88 84 84 79 86 83 87 91 96 99 100 99 97 96 98 99 100 100 100 99 98 98 98 98
89 88 98 95 91 85 92 93 93 95 93 89 90 96 97 96 99 98 98 95 91 86 86 85 82 82 87 89 93 94 96 95 91 90 91 94 96 97 96 96 96 95 96 94 95 98 98 99 100 100 100 100 100 100
94 90 85 91 88 91 96 97 98 95 93 96 95 98 98 98 97 95 94 90 87 88 92 94 97 95 93 94 93 94 96 98 90 84 91 99 100 98 96 97 98 97 98 100 100 98 93 94 96 96 96 98 99 100
92 90 89 90 94 97 98 96 98 96 94 96 94 90 92 95 96 95 94 92 92 95 96 96 96 96 98 97 100 99 98 99 100 100 99 100 99 99 100 99 100 100 99 98 99 97 96 95 99 96 99 100 100 98
89 91 88 91 97 96 94 91 88 84 83 87 86 87 97 97 97 95 95 96 95 96 94 97 97 98 97 98 99 99 100 100 98 97 98 100 99 100 99 99 98 98 100 98 99 100 96 97 99 100 98 96 95 98
92 90 93 96 98 96 97 95 96 93 94 94 98 96 98 96 99 98 98 97 98 98 97 94 97 100 100 100 99 96 96 99 100 100 100 100 100 100 100 99 99 99 96 96 99 100 98 98 99 99 100 99 96 96
87 86 87 93 97 96 96 94 94 97 97 98 98 98 98 97 100 99 98 96 96 94 96 96 97 97 96 96 96 97 98 100 100 100 100 100 100 100 100 100 99 98 99 100 99 100 99 99 100 98 97 98 98 99

GFSWCAN_sfc_rhum_078.txt.gz
RH
66 67 68 72 75 74 74 76 78 79 80 82 83 85 84 83 80 90 79 94 92 96 88 72 72 84 84 87 97 91 93 95 91 97 95 88 96 80 83 79 84 79 90 90 94 93 84 69 77 96 96 91 86 82
69 67 73 78 79 82 80 81 82 82 84 85 87 87 85 85 83 82 87 88 94 94 88 82 72 68 68 70 89 99 99 99 99 91 94 93 98 98 87 95 88 98 73 88 73 79 84 82 92 86 80 83 74 75
68 70 77 79 83 82 82 83 86 90 90 89 90 87 84 86 84 85 81 95 97 97 87 82 78 63 61 62 80 95 97 93 97 94 99 99 99 98 99 99 99 95 83 80 74 98 91 81 68 71 71 68 64 63
71 77 80 82 82 83 84 88 90 92 92 92 92 91 89 86 85 85 93 86 91 95 99 82 57 71 57 56 64 78 74 92 94 96 99 100 99 96 100 97 98 100 98 97 100 99 96 95 92 70 66 65 66 64
78 82 82 83 84 85 89 90 91 92 89 91 89 90 88 85 85 91 94 82 76 77 95 95 84 70 59 66 69 79 85 90 97 96 92 98 96 96 99 95 97 99 99 100 100 100 99 100 81 66 71 69 66 67
79 81 82 84 87 88 89 91 93 93 89 88 88 88 89 86 87 98 100 95 81 89 96 99 82 86 76 74 72 80 83 92 96 88 95 95 84 95 100 96 97 100 100 96 99 96 91 73 68 66 72 72 71 72
81 83 85 88 89 90 92 92 91 92 92 92 90 90 90 89 96 98 96 91 81 95 100 98 96 84 83 73 81 90 93 97 94 94 95 97 92 93 98 97 97 97 97 92 79 92 81 72 78 70 70 70 72 73
85 88 89 91 92 92 93 93 93 91 93 92 90 91 92 91 91 97 97 87 78 98 99 98 94 98 87 94 95 95 96 96 97 94 97 99 98 89 95 96 94 90 80 74 74 69 67 67 70 75 69 71 81 86
90 94 94 94 94 94 93 92 93 92 92 92 89 91 96 96 99 97 90 82 94 94 96 94 98 98 95 97 98 98 98 100 98 99 99 92 96 98 97 90 90 83 86 87 76 77 76 78 78 77 77 76 81 84
93 94 94 93 95 95 95 95 95 94 92 90 90 98 100 99 92 90 98 100 99 97 96 98 90 99 96 96 100 100 99 99 97 94 96 91 98 94 78 84 84 82 86 80 78 83 91 84 80 81 84 82 81 84
92 93 95 94 94 96 97 95 94 91 85 97 99 100 98 86 96 99 99 99 99 97 95 98 93 100 98 100 98 98 99 99 98 98 97 96 94 92 84 84 79 82 80 80 82 85 84 80 81 79 83 82 82 85
90 95 94 96 96 96 95 92 87 93 96 94 95 95 98 98 100 99 98 96 91 90 98 99 98 98 99 98 99 98 97 99 98 100 95 99 95 86 83 87 87 84 80 83 80 77 79 80 80 78 79 84 90 92
95 95 95 93 91 91 90 90 87 84 76 85 92 99 98 99 98 97 92 95 94 99 100 100 99 99 100 99 99 99 97 98 97 96 99 99 92 85 84 82 84 81 79 78 83 81 82 88 89 91 96 98 96 97
92 93 92 93 90 91 93 90 90 80 81 87 88 95 93 93 97 99 99 98 99 100 100 99 100 99 99 95 99 97 98 98 98 98 98 99 97 98 95 86 85 98 96 96 98 97 98 97 97 97 98 98 97 99
90 90 86 83 83 85 75 71 68 74 82 88 85 99 98 97 99 99 99 98 99 100 100 96 96 95 98 94 94 92 98 98 97 96 99 98 98 96 98 98 98 98 99 99 98 98 99 99 98 99 99 98 96 96
77 79 91 81 83 77 70 70 73 74 82 85 91 94 98 96 98 98 98 99 99 99 100 96 92 89 94 92 92 97 96 97 97 99 99 97 99 99 98 98 98 98 98 99 98 98 98 97 98 100 97 97 98 93
71 80 77 77 79 75 72 78 77 81 89 90 98 98 99 100 100 100 99 98 100 100 98 90 84 86 89 95 98 98 98 98 97 98 99 98 98 99 99 98 98 97 98 97 98 97 98 98 97 96 94 96 95 91
80 88 82 72 73 69 75 75 79 82 96 98 97 99 100 100 99 99 98 96 96 97 94 92 86 93 100 98 100 98 98 99 98 98 100 100 99 98 96 98 98 96 98 98 97 98 96 97 96 98 96 91 89 88
84 92 80 81 88 74 76 80 77 97 100 99 99 100 100 99 97 95 96 89 93 89 88 92 95 100 99 99 97 100 100 95 96 97 98 97 96 97 98 97 97 97 97 98 93 90 86 84 87 88 93 86 96 95
89 89 85 77 83 75 75 87 80 88 98 99 98 99 99 99 99 97 89 81 77 86 93 96 99 99 99 100 99 96 96 92 92 96 99 99 99 96 97 96 96 94 92 82 87 88 85 91 93 96 98 96 97 98
74 86 84 88 74 77 82 87 88 94 96 93 95 97 99 96 97 96 93 78 90 98 98 98 98 97 97 97 96 91 93 86 96 97 95 98 98 92 94 96 96 94 96 94 95 98 97 99 99 96 99 100 100 98
74 78 82 74 81 80 84 86 85 86 93 94 97 93 97 98 98 96 90 93 98 98 98 97 96 93 93 96 95 95 93 87 92 96 96 95 96 95 96 98 89 96 97 99 97 98 98 97 98 98 100 100 99 98
76 80 90 82 85 87 97 93 95 91 94 95 95 94 96 96 92 83 98 98 98 98 97 93 90 81 88 87 83 81 76 80 88 88 91 91 92 97 94 95 96 94 95 98 97 94 95 99 97 98 100 99 100 98
76 94 92 90 91 98 93 89 86 90 95 92 92 97 96 94 87 93 98 98 99 97 93 90 84 84 81 82 92 90 86 82 91 97 95 84 91 97 92 93 95 98 97 97 98 100 99 96 99 100 100 100 100 100
73 83 90 95 93 89 92 93 93 87 94 93 94 97 94 95 97 98 99 99 99 100 98 97 96 85 93 98 96 96 93 74 81 88 95 93 96 93 94 92 97 98 97 96 100 100 99 100 100 96 97 100 95 96
93 91 90 98 96 87 91 95 94 96 95 95 92 96 97 94 97 99 98 99 99 100 98 95 94 98 94 87 91 92 95 87 76 93 94 91 97 96 97 99 100 100 99 100 100 100 100 99 100 98 100 100 100 99
98 98 94 84 92 92 95 93 90 92 96 97 98 98 93 100 100 98 99 99 99 99 97 91 87 90 92 93 89 94 95 91 89 88 94 92 93 97 97 97 100 98 99 99 100 100 100 100 100 100 100 100 100 100
95 94 95 95 92 92 96 97 99 100 100 93 88 99 99 96 98 98 98 97 95 92 92 91 86 87 90 93 96 93 95 94 93 92 93 96 98 99 97 100 100 100 100 99 99 100 100 100 100 100 100 100 100 100
96 95 86 94 92 96 99 100 100 99 95 98 98 100 100 98 98 96 96 95 91 86 91 96 100 95 96 96 97 98 99 99 99 100 100 100 100 99 100 100 100 100 100 100 100 100 99 98 100 100 100 100 99 100
94 93 91 98 97 100 99 99 100 98 98 99 97 90 92 96 96 95 93 92 92 95 99 93 99 94 99 98 100 99 100 100 100 96 100 100 100 99 100 100 100 100 100 100 100 100 100 100 99 98 97 98 100 99
93 93 94 97 99 99 94 90 87 87 95 94 96 96 99 97 97 96 96 100 97 95 96 98 100 99 97 100 100 100 100 100 100 100 100 100 100 100 100 100 100 100 100 100 100 100 100 100 100 100 100 100 100 100
96 97 95 99 98 97 100 99 99 99 100 98 100 100 98 96 100 98 96 97 96 97 100 97 97 100 100 100 100 100 100 100 100 100 100 100 100 100 100 100 100 100 100 100 100 100 100 100 100 100 100 100 100 100
92 95 97 98 100 100 98 96 99 97 99 97 98 98 99 99 100 97 98 97 98 94 96 99 97 99 97 97 99 100 99 100 100 100 100 100 100 100 100 100 100 100 99 100 100 100 100 100 100 100 100 100 100 100

GFSWCAN_sfc_rhum_081.txt.gz
RH
69 68 68 72 69 67 68 70 72 75 79 79 80 81 82 83 83 96 89 94 93 98 92 75 69 84 84 90 98 86 90 91 94 94 95 90 97 82 88 75 77 83 96 94 93 94 83 86 75 98 95 92 89 91
73 67 71 70 70 72 74 75 78 81 83 83 82 83 84 84 83 85 91 86 93 95 87 81 76 73 72 70 85 91 96 95 100 99 94 85 96 98 95 95 85 95 79 89 76 93 91 88 93 92 85 88 86 90
72 69 69 68 72 75 76 78 82 83 84 86 86 84 84 84 82 84 85 95 96 98 91 92 78 64 70 72 80 95 96 94 99 98 100 96 96 98 99 98 97 99 98 95 90 99 98 95 94 87 83 82 70 68
68 68 68 70 74 80 81 83 84 86 88 91 91 90 90 86 83 83 93 90 88 93 100 82 61 73 63 66 74 78 80 93 94 96 100 98 100 96 100 96 95 98 98 99 100 100 99 99 99 97 88 76 68 66
70 70 76 78 79 81 83 85 87 89 91 91 88 87 89 87 84 90 94 82 72 78 93 95 81 72 68 70 75 78 81 91 96 98 99 96 96 99 100 96 97 97 98 98 99 100 99 100 99 96 86 77 71 72
70 77 80 80 82 82 84 86 89 91 92 91 85 85 90 88 86 98 100 95 75 84 94 98 83 77 79 78 78 88 87 94 94 97 96 93 88 98 99 96 98 98 98 100 100 100 100 98 87 78 76 75 73 73
73 75 79 82 83 83 85 88 91 91 91 87 86 85 90 85 94 98 96 90 76 90 99 97 95 82 90 83 91 93 92 96 94 94 98 96 98 99 98 96 97 98 98 99 98 98 92 91 91 72 71 71 75 76
78 80 83 83 86 88 89 91 92 93 92 91 91 87 89 89 89 96 95 86 81 98 96 96 94 95 89 93 97 95 99 94 93 95 95 98 98 95 94 96 94 90 92 86 88 70 78 80 77 76 70 72 78 82
83 83 87 90 91 92 92 93 92 93 92 91 90 91 97 98 99 98 90 86 95 94 95 88 96 98 93 98 96 96 96 99 95 99 99 92 92 96 95 88 87 87 86 83 79 76 73 79 80 80 77 76 78 79
85 89 92 93 94 93 93 93 94 92 91 91 91 99 100 99 93 91 99 100 100 99 98 94 94 98 98 98 100 97 96 99 99 98 97 92 96 92 86 84 87 85 84 79 76 83 80 82 80 80 82 80 79 81
91 92 93 93 92 92 92 94 92 92 92 98 99 100 98 85 96 99 99 99 96 98 93 95 93 99 99 100 94 100 99 99 97 99 98 97 94 91 82 79 82 81 81 84 83 84 84 78 78 79 81 81 83 84
92 92 93 94 94 94 94 96 94 96 97 93 95 94 98 99 100 96 97 99 85 86 99 98 97 97 100 99 99 99 98 99 98 100 96 99 96 87 78 80 84 82 79 82 80 83 80 76 77 79 80 86 92 94
96 92 96 96 94 96 96 94 88 86 77 80 93 100 99 99 99 96 97 98 89 98 99 98 100 99 99 99 100 99 97 98 98 97 98 98 91 84 84 80 80 78 76 76 81 80 82 88 89 92 97 99 96 97
95 93 94 90 92 92 91 88 79 84 86 97 98 97 96 98 96 98 97 96 98 100 100 98 99 100 100 99 99 93 96 96 99 97 94 98 96 96 93 83 84 98 96 96 98 96 97 98 100 100 100 99 96 98
91 92 92 88 89 87 90 84 72 79 86 88 82 97 98 97 98 99 99 98 99 100 99 98 97 98 97 95 95 93 97 100 97 96 98 98 98 96 98 97 98 98 98 99 98 99 100 98 99 100 100 98 97 97
84 85 93 89 81 76 80 77 79 80 82 84 90 95 98 96 98 98 99 99 99 100 99 95 95 93 97 96 91 98 96 95 94 99 99 98 99 99 99 96 97 98 97 99 98 98 98 98 98 100 98 97 99 98
73 86 86 89 76 74 70 73 80 85 88 88 98 98 98 99 99 99 99 98 99 100 99 95 88 94 89 94 96 98 96 97 99 98 99 98 97 99 99 98 97 96 97 98 99 97 98 99 98 96 96 97 94 93
96 86 78 76 71 70 77 76 82 81 96 96 96 98 98 98 99 98 97 98 98 91 94 96 88 93 98 96 99 98 98 99 100 98 100 100 99 98 96 98 98 96 97 98 96 97 97 98 97 99 95 91 90 88
92 93 78 79 83 76 76 79 80 96 98 99 98 98 99 99 99 97 94 90 90 90 88 92 95 100 100 99 100 100 99 98 96 98 97 99 97 97 98 97 98 99 98 99 95 97 96 93 94 98 99 92 95 97
91 89 83 81 82 78 78 89 83 89 97 98 98 98 99 99 99 99 91 87 85 86 92 96 100 97 98 99 99 94 96 94 92 96 98 98 99 96 98 96 98 96 93 88 92 89 90 95 96 98 99 98 98 99
93 92 85 91 78 78 84 92 96 97 98 97 99 97 100 98 97 96 95 80 91 99 99 99 98 98 98 96 92 91 94 88 96 96 97 97 99 98 99 100 98 98 96 97 96 98 98 99 98 97 100 100 100 100
83 87 86 75 81 80 84 87 90 95 96 97 99 93 98 98 97 97 93 92 99 98 99 98 98 96 97 98 99 88 90 89 93 95 96 95 98 98 98 98 96 100 98 98 96 98 99 98 99 99 100 100 100 99
82 82 88 77 86 86 94 95 94 89 96 99 97 92 96 96 94 84 99 99 99 98 97 94 94 89 95 95 91 88 83 85 95 96 96 96 96 100 97 96 97 97 100 98 97 96 98 99 99 100 100 100 100 100
72 93 93 92 91 98 94 92 87 93 97 96 94 99 96 98 91 94 100 99 98 96 94 93 87 90 88 89 96 94 89 87 93 97 94 88 94 97 96 97 99 99 98 98 98 100 99 99 100 100 100 100 100 100
77 84 90 91 93 90 93 95 96 89 97 96 96 99 97 96 98 99 96 99 98 99 100 97 91 89 96 100 99 97 92 82 87 94 99 94 97 94 97 96 98 98 98 100 100 100 100 100 100 99 100 100 100 99
93 92 90 98 98 89 94 98 96 97 96 96 94 97 97 95 96 99 96 99 100 99 100 93 93 94 95 92 96 96 97 87 81 96 98 96 95 93 97 99 99 99 99 100 100 100 100 100 100 100 100 100 100 100
98 99 96 78 92 93 95 94 91 93 97 98 99 98 93 100 100 97 99 100 99 100 97 91 88 89 91 96 95 97 96 92 91 91 94 89 92 96 96 98 99 98 100 99 100 100 100 100 100 100 100 100 100 100
96 92 96 95 95 93 98 99 100 100 99 93 88 99 98 92 97 98 99 98 98 95 95 94 91 89 92 96 97 95 96 94 94 93 93 95 97 98 100 100 100 100 100 100 100 100 100 100 100 100 100 100 100 100
96 96 86 95 93 97 99 100 100 98 95 96 98 100 100 98 98 99 96 98 92 90 94 96 100 96 97 97 99 99 100 96 98 100 100 100 100 100 100 100 100 100 100 100 100 100 100 99 100 100 100 100 100 100
94 95 93 99 98 100 99 99 99 98 97 99 98 97 95 97 96 97 97 95 95 96 97 93 97 94 100 98 100 100 100 100 99 96 100 100 98 100 100 100 100 100 100 100 100 99 100 100 100 100 99 100 100 100
91 94 97 98 100 99 98 98 96 95 98 98 98 97 99 98 97 95 96 98 96 94 95 100 100 100 95 98 98 99 100 100 100 100 100 100 100 100 100 100 100 100 100 100 100 100 100 100 100 100 100 100 100 100
97 100 96 99 100 98 100 100 100 99 98 98 98 100 97 96 100 99 97 98 97 99 100 97 96 100 100 100 100 99 96 99 100 100 100 100 100 100 100 100 100 100 100 100 100 100 100 100 100 100 100 100 100 100
97 99 99 100 98 100 98 97 100 98 100 98 99 100 100 98 99 97 98 98 97 95 98 100 100 99 99 98 96 99 98 100 100 100 100 100 100 100 100 100 100 100 99 100 100 100 100 100 100 100 100 100 100 99

GFSWCAN_sfc_rhum_084.txt.gz
RH
64 66 69 79 72 70 71 69 69 69 72 74 76 79 79 80 82 96 96 83 92 98 93 81 79 86 82 87 98 81 84 83 95 94 94 95 96 84 92 77 76 82 93 84 86 94 89 90 84 88 98 98 100 100
64 69 71 74 74 71 68 69 72 74 76 80 79 80 80 81 84 88 98 84 89 97 87 87 85 78 73 74 85 90 92 98 100 99 96 79 86 96 95 97 81 97 98 99 83 94 95 95 96 95 95 99 98 99
68 71 77 72 72 69 69 73 76 77 78 79 80 82 81 82 83 85 89 98 97 100 86 95 76 63 71 75 76 94 93 87 95 98 100 98 99 98 98 98 98 88 98 97 99 99 98 98 96 95 96 98 97 98
69 73 74 70 68 68 71 76 79 78 79 82 84 89 88 84 84 84 96 94 93 94 98 88 63 74 64 70 80 79 83 91 94 98 97 93 97 93 99 94 96 96 96 96 100 100 90 96 99 99 96 96 92 92
72 74 71 69 69 72 75 79 82 82 83 85 86 90 89 85 86 91 95 84 79 80 94 92 81 71 70 77 84 85 85 88 96 97 99 97 96 98 100 95 98 96 98 97 99 100 99 98 97 97 93 90 80 78
74 72 71 70 73 78 79 83 82 85 87 89 89 89 88 90 85 97 100 96 74 81 99 99 83 81 78 80 82 86 91 94 96 94 98 95 90 99 99 96 98 98 98 99 100 100 97 97 96 94 90 85 75 77
71 71 70 73 76 77 79 83 84 86 89 91 91 87 86 92 96 98 95 90 78 90 99 92 96 80 90 87 94 96 93 96 97 95 99 97 99 98 98 96 97 97 98 98 98 100 95 94 93 76 73 74 74 74
72 70 70 74 77 80 84 84 86 88 90 92 87 84 91 92 85 94 95 84 82 98 98 95 94 94 87 95 98 97 99 98 96 98 96 98 97 97 96 97 96 94 94 89 92 84 86 79 75 75 70 70 76 79
70 71 78 82 83 84 87 88 89 90 91 89 87 91 98 98 99 98 88 81 95 96 96 94 91 97 91 97 95 96 94 99 93 95 97 96 92 98 96 88 87 84 83 86 80 74 73 78 77 76 74 73 76 79
72 78 83 84 85 88 91 92 92 92 91 90 92 98 100 98 91 89 98 100 100 100 99 98 94 98 96 98 94 98 98 87 100 99 95 91 99 91 81 83 82 82 84 78 81 81 77 80 78 78 81 79 79 83
76 81 83 86 90 91 92 93 93 91 92 98 100 100 99 92 96 100 99 99 99 97 84 89 96 98 99 99 96 99 98 99 97 99 99 96 99 91 82 78 81 80 81 81 80 80 77 76 77 78 82 83 84 85
86 87 89 90 90 93 93 93 90 91 96 94 95 96 97 99 100 98 97 99 93 84 92 99 96 95 98 98 99 99 99 99 98 99 96 98 96 82 80 78 82 81 79 83 81 82 79 78 79 80 83 88 93 93
90 92 93 92 92 92 92 92 92 90 87 90 95 100 100 99 98 95 97 99 98 95 96 100 99 99 99 100 100 99 98 97 94 97 97 97 92 85 86 80 81 77 75 78 84 83 83 89 89 92 98 99 96 96
94 95 94 95 94 93 93 94 94 86 93 99 98 97 97 99 97 95 94 94 95 100 99 99 100 98 100 99 99 96 97 96 96 99 94 96 98 98 94 86 84 98 96 96 97 96 97 98 100 100 100 99 96 98
92 89 91 95 95 94 94 91 87 91 94 95 90 95 98 95 99 99 98 99 99 100 99 99 99 99 98 97 96 93 98 98 97 96 98 99 98 96 96 96 96 98 98 99 98 99 100 98 99 100 100 98 94 96
88 87 94 87 85 86 82 82 89 88 84 85 91 97 98 98 99 98 99 99 99 100 99 97 97 96 98 95 93 94 98 97 94 99 99 98 98 97 97 96 96 96 96 98 98 98 99 98 98 100 98 98 100 98
83 96 91 90 87 80 72 87 89 88 89 90 99 98 98 98 99 99 99 98 99 99 99 96 90 89 89 94 95 98 96 96 99 100 99 97 96 97 97 97 96 96 97 98 99 98 99 100 99 96 95 95 96 96
96 96 89 84 83 80 83 85 82 82 95 96 97 98 98 98 99 98 98 97 98 96 92 94 87 93 98 91 97 98 100 99 100 98 99 100 98 97 95 96 97 96 96 98 96 97 97 98 94 93 90 90 89 89
88 89 88 83 82 87 78 82 78 95 98 98 98 98 98 100 96 94 97 92 91 93 86 92 92 98 98 99 99 100 99 98 96 100 100 99 96 96 97 96 96 98 97 99 97 99 98 95 97 99 99 90 96 95
86 84 86 80 70 78 77 89 82 87 97 98 98 99 99 99 98 95 91 86 81 86 91 96 99 100 99 98 98 94 97 94 94 97 98 98 99 97 99 98 99 98 96 94 94 92 96 97 97 98 99 98 99 100
96 93 86 84 83 83 87 94 98 97 95 97 98 96 100 95 96 96 96 83 91 97 99 100 98 98 99 98 92 92 94 88 96 96 96 98 98 97 98 99 97 96 97 98 98 99 98 98 98 97 100 100 100 100
96 87 84 76 81 82 88 92 95 96 96 96 99 92 98 98 97 97 92 93 99 99 99 97 92 97 97 97 96 90 90 88 93 96 96 96 98 99 100 100 98 100 99 99 98 99 100 99 99 99 100 100 100 100
88 84 87 78 86 87 97 97 95 88 96 99 95 92 96 97 94 82 99 98 99 98 99 97 98 94 94 94 89 88 84 84 96 96 97 97 98 100 96 98 98 98 99 98 98 97 98 100 100 100 100 100 100 100
69 90 94 93 91 98 97 97 92 96 97 96 94 99 96 97 89 94 100 100 98 98 97 96 93 97 95 93 98 98 96 92 96 97 97 90 94 98 97 98 98 99 98 98 98 100 100 100 100 100 100 100 100 100
79 90 91 93 90 90 96 96 97 91 98 98 98 100 100 95 98 99 96 99 98 98 100 98 95 94 98 100 97 98 95 88 91 96 100 94 97 97 98 97 99 99 98 100 100 100 100 100 100 100 100 100 100 100
94 95 92 98 98 90 94 100 98 98 97 98 96 98 97 96 94 95 96 98 97 99 98 95 95 96 97 94 96 96 97 91 84 97 99 97 95 94 99 99 99 98 99 100 100 100 100 100 100 100 100 100 100 100
98 99 96 80 92 92 95 96 93 95 99 99 99 97 93 96 100 97 99 99 98 99 96 94 89 92 94 98 97 97 96 93 92 91 93 92 94 97 95 98 99 97 99 99 100 100 100 100 100 100 100 100 100 100
97 94 95 98 96 94 99 100 100 100 99 95 89 98 93 92 96 98 98 97 97 95 96 96 94 91 95 97 96 95 96 93 94 94 94 95 98 100 100 100 100 100 100 100 100 100 100 100 100 100 100 100 100 100
96 97 87 96 95 97 99 100 100 98 95 96 98 100 100 98 98 99 96 97 95 91 95 96 100 98 97 98 100 100 100 96 94 100 100 100 100 99 100 100 100 100 100 100 100 100 100 100 100 100 100 100 100 100
94 96 96 99 100 100 99 99 99 98 96 98 99 95 95 98 97 96 96 98 98 98 99 93 98 94 97 97 100 100 100 100 99 94 100 100 97 100 100 100 100 100 100 100 100 100 100 100 100 100 100 100 100 100
92 96 97 98 100 99 98 100 98 98 99 100 100 99 99 99 97 96 96 97 96 94 94 99 100 100 96 100 100 100 100 100 100 100 100 100 100 100 100 100 100 100 100 100 100 100 100 100 100 100 100 100 100 100
98 100 97 100 100 98 99 100 100 100 99 98 100 100 97 97 100 98 97 97 96 97 99 96 97 99 100 99 99 100 95 99 100 99 100 100 100 100 100 100 100 100 100 100 100 100 100 100 100 100 100 100 100 100
99 100 100 100 99 100 100 96 100 98 99 100 100 100 100 99 98 98 98 98 98 96 97 100 100 98 97 98 98 100 100 100 100 100 100 100 100 100 100 100 100 100 100 100 100 100 100 100 100 100 100 100 100 100

GFSWCAN_sfc_rhum_087.txt.gz
RH
68 68 64 66 70 71 77 69 69 68 71 70 72 74 78 79 80 94 96 94 99 98 82 78 76 78 75 78 88 74 80 79 91 87 83 88 89 80 85 75 76 70 81 81 70 82 79 93 72 91 98 100 100 100
66 65 67 68 75 80 71 70 67 68 70 73 75 80 82 80 82 87 96 93 94 98 82 77 75 68 69 72 83 86 90 96 100 90 88 89 79 88 87 86 74 94 97 90 95 94 96 95 96 97 99 100 100 100
65 65 67 71 81 74 72 69 70 73 75 78 79 78 80 80 81 85 93 97 99 100 82 83 78 67 74 74 71 85 86 83 88 90 98 96 90 97 92 92 87 85 82 92 96 97 94 92 92 94 96 97 97 97
64 66 69 70 83 73 70 69 71 75 78 77 78 80 83 84 82 85 95 91 88 92 95 76 62 69 60 72 77 71 68 78 83 88 91 97 94 92 98 86 85 89 89 92 99 99 94 92 96 97 96 96 94 95
64 69 72 76 76 70 69 70 73 78 78 78 80 83 86 90 83 91 93 89 82 77 88 82 75 63 68 74 79 80 81 80 91 89 93 90 92 99 99 79 89 90 95 94 94 98 92 96 96 95 93 93 90 81
67 70 73 75 72 70 70 73 77 78 79 81 83 85 88 91 85 98 100 96 80 88 97 97 78 74 72 76 82 84 85 88 92 90 89 89 94 99 96 92 95 96 99 98 99 96 95 95 94 93 91 90 88 76
70 72 75 75 71 71 74 78 79 79 81 83 86 90 91 90 96 98 93 84 77 95 99 88 87 72 80 81 86 90 87 92 90 90 97 94 98 97 95 94 94 96 98 96 99 92 92 93 91 90 85 79 73 69
77 74 74 72 70 74 77 82 79 80 81 85 88 93 88 93 91 95 96 83 84 99 92 92 88 86 80 92 93 94 97 92 95 89 91 94 93 92 94 96 94 94 94 92 93 86 83 82 71 68 63 64 71 75
76 77 73 73 72 73 80 82 81 81 83 87 91 93 97 96 99 98 85 85 95 97 94 90 89 93 84 92 93 97 92 98 89 96 96 94 87 95 92 90 83 79 81 87 76 69 68 70 70 69 66 66 70 74
74 72 71 75 74 79 83 85 84 85 86 89 96 98 100 98 90 90 98 100 100 100 100 94 88 97 91 100 96 97 95 82 89 94 95 89 93 87 81 78 76 76 76 72 75 76 72 74 73 74 76 72 71 74
71 71 71 72 76 80 82 83 87 89 90 99 100 100 99 89 97 100 100 99 98 97 92 92 91 93 93 96 93 95 97 95 93 96 98 89 91 86 77 76 74 75 72 72 72 72 70 68 71 75 79 78 77 78
69 68 70 77 82 82 83 89 92 97 97 94 95 95 98 100 100 98 95 97 92 81 90 91 87 92 96 94 97 98 98 99 95 98 93 94 90 80 75 77 78 75 74 76 72 74 73 72 72 75 78 83 87 88
76 78 78 80 87 87 90 91 91 91 90 96 95 100 99 98 99 96 97 98 98 92 96 98 95 97 99 99 100 100 98 97 93 96 93 90 84 79 78 76 78 73 74 75 79 77 77 82 82 86 93 94 91 93
84 89 89 89 90 90 90 91 90 92 98 99 99 98 95 99 96 94 93 94 92 97 99 97 100 96 98 100 100 96 94 94 92 96 89 90 91 92 87 80 78 94 93 92 94 92 95 96 98 97 96 94 94 96
94 94 93 92 91 91 91 92 91 92 99 98 92 96 100 95 98 97 98 96 97 98 100 99 99 98 97 97 92 93 96 88 90 91 91 93 95 93 94 92 94 95 96 96 94 96 96 96 95 96 94 90 90 92
86 88 96 92 93 91 91 94 95 97 97 88 87 98 98 97 99 99 97 98 100 100 99 96 97 97 96 93 90 87 95 98 89 94 95 95 96 95 95 93 95 95 94 96 95 94 94 95 94 95 94 94 93 89
92 97 93 93 93 92 89 97 99 97 94 88 99 99 98 98 98 99 98 98 97 100 99 90 91 87 82 92 92 92 94 92 95 97 94 93 93 95 96 95 95 94 94 94 94 94 95 95 93 85 82 87 85 88
97 96 91 87 86 86 96 96 94 82 96 98 97 99 98 98 98 98 97 96 97 90 83 85 83 96 95 90 90 94 96 97 96 94 93 94 95 95 92 94 94 92 92 94 91 93 93 92 82 79 78 75 74 76
94 96 91 87 88 92 94 86 77 94 98 98 96 96 96 98 95 95 93 89 81 75 75 81 85 89 92 92 94 98 97 94 96 96 95 95 94 94 94 93 93 93 93 91 87 82 82 85 84 81 82 79 81 80
90 89 88 80 76 80 75 85 78 83 95 95 93 94 94 97 94 95 92 82 75 77 85 88 92 94 93 92 91 90 92 90 90 94 96 94 91 92 92 88 85 88 88 88 86 88 80 79 79 80 80 80 83 88
90 91 79 79 85 81 86 87 92 90 87 92 93 91 95 91 93 93 89 75 86 91 92 95 95 96 95 92 86 86 89 83 86 86 87 93 92 86 89 89 89 88 86 87 85 86 89 83 82 80 88 89 89 88
97 82 82 75 81 80 87 91 91 91 92 93 93 84 94 96 95 93 84 90 93 95 94 90 89 91 91 92 90 82 86 83 89 89 92 90 92 93 93 91 86 90 89 90 87 92 89 84 86 88 93 95 95 88
87 88 86 80 85 88 97 95 92 83 95 98 89 89 95 93 88 77 95 92 95 93 92 87 92 85 90 89 85 81 78 79 85 87 91 88 88 94 91 90 90 94 92 86 80 84 86 92 88 93 92 94 95 94
72 95 97 96 90 99 96 99 90 94 94 92 91 99 96 94 82 88 93 93 94 93 92 94 89 93 89 88 90 90 87 82 89 94 87 85 85 85 82 83 84 86 84 79 78 85 88 90 99 92 98 96 96 94
84 96 95 98 95 94 97 97 96 91 100 97 98 100 98 88 94 94 90 93 95 96 95 94 91 86 95 98 95 93 91 80 84 86 91 80 88 86 86 83 86 85 86 91 95 97 99 99 99 96 93 95 94 95
93 95 95 95 96 92 94 100 99 97 96 98 96 95 94 94 94 89 88 96 95 97 97 95 95 93 91 85 92 92 88 80 77 89 88 79 78 85 89 88 87 89 86 90 94 94 96 98 98 97 96 94 99 100
95 96 93 81 90 88 95 95 90 93 98 100 98 96 92 96 94 92 95 94 93 95 88 89 86 86 88 91 89 89 86 84 85 83 87 84 83 81 84 88 90 86 90 90 92 91 93 97 97 98 97 97 96 97
94 91 94 98 94 90 98 99 100 100 99 92 87 97 91 90 94 94 94 95 96 92 93 93 91 86 89 90 91 90 92 90 93 90 87 88 91 93 95 93 93 100 94 97 95 97 95 93 95 98 100 99 99 98
95 94 84 96 94 97 100 100 99 95 92 93 96 100 98 93 96 96 95 93 92 89 94 97 100 96 95 94 96 95 90 88 85 89 93 94 97 95 97 95 96 97 98 96 100 100 100 98 99 100 100 99 98 100
95 96 95 98 99 100 98 97 98 97 92 95 95 90 90 96 96 94 95 95 94 94 97 95 97 93 95 94 99 99 100 100 93 88 91 93 92 94 99 98 99 100 99 95 96 92 95 96 96 96 97 96 96 96
92 95 96 97 100 99 98 98 98 96 98 99 100 98 98 97 96 94 94 95 95 95 94 97 98 97 94 96 96 98 98 99 98 96 92 95 98 99 98 100 100 99 99 100 100 100 100 99 100 100 99 97 94 95
98 100 97 100 99 98 98 100 100 99 98 98 99 100 96 97 99 96 96 95 95 96 96 92 93 96 96 94 94 95 94 99 96 96 95 96 98 100 100 100 100 100 100 100 100 99 98 93 91 90 90 89 92 94
99 100 100 100 99 100 99 94 96 97 98 100 99 100 100 98 98 97 94 96 96 95 94 97 98 95 94 95 96 97 95 98 99 100 100 100 98 100 97 97 96 94 92 94 95 94 87 88 88 90 91 95 95 94

GFSWCAN_sfc_rhum_093.txt.gz
RH
76 77 76 76 75 73 70 67 72 77 75 72 73 74 75 74 74 82 85 70 82 87 52 46 42 49 42 40 57 52 64 58 63 72 65 57 59 46 56 56 63 65 80 72 61 59 81 68 51 84 97 99 98 86
76 76 76 77 74 73 72 75 75 77 78 76 74 74 74 74 77 78 93 70 85 99 60 59 54 51 50 46 53 54 58 68 80 73 68 71 72 72 57 90 53 79 72 85 78 85 87 73 83 87 85 92 97 89
76 76 76 76 75 74 77 77 76 80 78 76 73 73 74 75 77 77 88 90 97 99 67 52 39 37 35 41 43 53 49 55 63 56 78 75 75 65 92 85 87 94 61 88 85 91 77 72 74 81 84 97 95 95
76 78 75 74 72 77 78 76 76 79 77 72 73 75 77 78 77 78 82 70 66 69 82 45 32 40 36 39 43 46 49 50 52 49 71 78 89 77 92 70 76 80 82 82 88 89 84 85 92 92 91 95 92 94
78 77 75 77 75 77 78 78 81 76 73 74 76 77 76 76 79 76 83 63 63 73 82 53 41 39 41 46 47 46 52 56 52 72 78 81 88 94 84 63 80 79 96 92 94 97 90 95 92 88 88 91 88 82
77 75 74 75 78 80 80 79 74 72 73 76 74 72 75 78 82 90 100 65 61 69 76 85 43 45 44 51 50 49 48 53 58 67 70 63 75 75 100 87 94 99 100 100 95 91 92 93 87 86 85 89 86 82
75 74 73 75 77 80 82 78 75 71 74 77 76 77 80 84 93 84 76 79 69 65 81 78 56 46 47 49 47 46 50 49 55 60 69 65 87 78 98 94 94 99 100 98 88 74 88 88 88 86 82 81 78 63
76 74 72 75 78 81 81 78 73 74 78 76 77 81 86 90 91 92 78 73 66 73 61 83 65 58 51 77 77 52 60 68 68 62 60 76 80 92 93 96 95 94 94 89 82 80 77 69 60 53 49 52 60 63
76 74 74 77 79 81 80 78 74 77 76 76 79 83 97 96 98 95 82 76 71 84 92 78 82 83 60 65 68 65 59 84 60 72 68 64 78 94 96 89 88 84 83 86 68 48 48 52 50 48 49 52 57 61
74 75 75 79 80 80 80 80 78 76 76 78 88 97 100 97 87 87 96 99 96 97 78 81 56 75 59 74 72 72 65 71 77 73 65 80 91 70 69 80 59 54 56 53 57 59 54 56 56 56 56 54 55 58
72 73 76 79 79 79 80 78 78 77 78 96 100 100 98 86 95 98 100 99 87 84 66 71 66 78 55 82 91 61 87 70 76 78 82 83 88 75 57 55 51 50 50 53 51 52 52 54 58 60 61 61 62 63
70 71 76 78 77 75 74 74 76 88 95 94 96 93 96 98 100 96 87 74 73 59 74 74 74 61 78 70 80 75 77 87 94 76 90 90 84 61 55 55 54 53 52 54 52 54 54 53 54 57 61 69 76 75
71 78 78 76 75 72 71 73 78 86 91 96 96 100 99 98 100 97 90 80 85 71 80 86 89 72 82 71 82 84 98 94 76 99 85 88 70 57 56 56 58 54 55 56 58 58 58 63 67 76 84 83 78 83
74 79 76 73 74 74 75 78 81 86 98 100 100 100 99 100 87 81 82 96 90 90 82 84 84 80 83 89 100 100 97 80 92 92 90 81 78 74 66 61 58 75 76 77 80 82 86 87 89 86 85 83 82 84
76 75 72 72 75 76 77 81 84 96 99 100 97 95 98 96 96 100 100 96 86 80 88 86 80 77 87 98 92 87 94 87 73 87 90 83 80 80 80 80 84 86 87 87 86 87 88 86 85 86 83 80 81 81
72 74 67 71 76 76 82 88 97 97 94 92 80 98 100 100 100 100 100 100 92 92 82 79 94 99 97 89 92 85 80 78 99 93 90 86 85 82 84 84 85 84 84 86 86 84 84 84 79 81 80 80 80 78
76 71 72 78 80 83 86 98 100 100 100 96 99 100 100 100 100 100 100 97 89 90 98 74 96 89 81 81 82 73 93 98 93 92 84 83 85 86 86 86 86 85 84 83 83 79 80 79 81 78 78 78 77 74
92 85 79 82 84 96 100 100 98 94 91 87 94 96 94 100 100 100 99 94 95 81 67 77 64 90 97 94 84 97 92 90 86 85 84 82 85 86 84 85 83 80 81 80 77 78 79 82 74 62 62 60 57 58
93 89 93 90 91 97 99 99 92 81 88 90 89 84 89 98 91 91 95 86 74 70 67 68 91 82 94 95 100 96 91 86 89 84 83 84 82 83 82 80 80 78 77 78 72 65 62 61 55 47 47 44 52 50
94 89 92 84 77 84 88 91 66 63 79 81 78 82 82 89 88 99 97 78 66 74 84 84 88 98 92 90 83 85 82 78 76 81 83 79 76 79 81 73 67 71 67 64 61 60 54 50 48 50 56 52 62 65
92 98 91 86 87 82 68 64 60 60 70 74 80 74 82 80 90 94 89 69 89 86 79 85 96 92 82 76 69 70 74 67 70 72 73 76 71 64 66 67 66 61 62 63 65 66 62 59 54 52 73 74 73 71
96 89 94 72 76 74 65 53 59 58 67 75 76 64 82 94 92 90 68 84 82 86 82 78 75 74 73 76 69 61 66 59 62 64 68 68 71 68 69 70 66 74 69 72 64 74 70 56 59 63 70 75 72 66
85 82 84 78 85 80 86 67 74 61 83 83 72 78 86 88 78 61 86 73 88 77 69 63 65 57 68 67 65 60 56 55 58 61 68 63 63 77 69 69 70 77 71 61 54 61 69 71 66 74 70 71 72 73
71 83 99 89 78 92 84 80 59 64 70 74 75 85 83 81 66 76 81 70 80 73 68 75 64 69 66 66 61 59 56 53 62 72 68 64 69 66 63 60 60 59 58 51 58 65 66 76 80 67 70 73 72 73
88 95 96 93 80 85 85 84 81 72 82 78 83 86 87 73 88 84 83 81 83 86 80 70 65 63 77 73 66 66 63 57 64 67 71 59 65 61 60 54 55 53 59 75 76 74 75 78 76 74 70 71 71 70
88 93 88 82 84 81 77 87 84 83 80 87 86 72 82 86 91 89 67 85 82 89 89 84 83 72 64 59 66 64 58 52 56 71 60 55 58 72 72 69 70 72 62 74 80 76 71 72 72 66 71 66 76 79
88 88 78 64 70 69 85 81 68 79 85 86 85 89 89 90 89 82 77 82 82 87 74 75 71 66 62 60 59 59 57 58 63 58 59 55 57 58 66 72 67 77 70 75 78 76 72 71 71 71 71 72 70 71
80 82 87 89 83 76 84 82 84 83 86 70 74 89 87 87 88 84 80 78 92 90 90 80 66 62 68 69 73 78 81 79 80 75 72 72 71 77 79 81 81 77 77 76 76 76 74 73 73 71 71 74 74 72
83 85 74 89 81 81 82 83 84 75 68 79 86 83 82 74 80 85 82 80 80 81 86 88 89 87 84 79 80 80 79 78 78 80 74 81 84 83 74 77 76 75 77 78 82 74 68 74 74 76 72 76 75 76
86 81 79 80 81 83 88 84 86 85 70 77 68 64 69 81 84 79 82 85 90 93 87 87 89 89 91 90 91 90 86 82 73 67 70 74 77 84 82 81 81 80 78 76 74 71 71 76 72 79 77 73 74 74
71 83 80 77 85 86 87 86 86 82 81 86 84 82 83 86 86 82 82 84 88 89 90 90 89 85 85 86 86 86 91 89 86 83 81 84 84 83 83 81 80 79 76 74 75 74 74 74 73 72 71 71 71 73
84 80 83 86 88 86 82 87 84 84 84 85 86 84 88 88 84 87 88 91 92 92 92 87 87 88 84 89 90 88 81 87 86 82 77 81 84 82 79 78 80 77 75 73 74 74 69 69 74 72 74 72 75 78
83 82 80 83 87 85 85 81 74 83 82 82 84 81 88 88 85 89 84 88 93 90 92 92 89 87 84 83 85 86 79 84 83 82 81 79 77 78 79 78 77 76 69 76 75 74 70 69 72 74 75 79 82 82

GFSWCAN_sfc_rhum_096.txt.gz
RH
82 84 83 80 77 76 76 74 73 76 75 71 70 73 74 72 71 77 91 62 72 90 55 46 48 51 45 43 59 52 62 60 68 75 64 69 74 65 67 57 67 72 94 83 74 88 83 72 59 80 98 98 94 90
82 82 81 79 78 77 75 74 75 75 80 76 75 75 74 73 73 78 87 70 70 84 62 63 59 50 46 46 55 55 63 70 78 72 69 73 79 77 91 91 58 86 78 88 80 90 87 79 92 95 86 88 92 91
83 82 81 80 78 76 76 76 79 76 80 78 75 74 73 73 74 75 91 85 84 93 64 52 48 41 32 35 40 62 60 49 60 54 72 77 97 67 92 86 92 82 65 84 86 85 78 79 80 90 86 90 90 94
80 80 79 79 77 78 81 81 81 80 79 77 74 72 73 73 75 76 92 74 67 62 80 58 30 38 32 36 38 44 49 49 52 52 68 80 94 67 88 88 79 81 77 82 88 86 79 80 90 94 92 92 91 94
79 81 81 79 78 80 79 79 79 81 76 73 72 72 73 76 76 74 84 84 69 72 80 58 44 34 34 41 43 42 48 52 58 65 75 78 95 80 88 74 86 80 92 92 95 97 86 94 95 89 86 91 89 84
79 80 80 79 80 79 81 79 78 76 74 73 73 74 75 75 78 90 100 66 65 60 75 84 46 44 38 43 45 45 45 50 52 58 68 59 72 74 90 89 89 92 100 98 91 88 90 92 85 76 84 87 82 79
80 79 78 80 82 80 80 82 79 74 74 74 75 72 74 82 89 93 89 95 72 71 84 80 62 44 37 40 43 44 45 47 55 56 65 66 82 77 99 94 91 96 100 100 96 82 93 92 85 72 72 72 70 66
80 79 77 78 82 83 83 82 75 72 72 75 75 76 80 82 87 91 86 74 68 68 66 84 69 62 45 63 70 48 60 58 60 60 59 68 87 93 95 96 96 93 94 93 86 75 73 62 51 51 50 53 62 66
80 77 76 77 80 83 84 81 73 72 75 75 76 81 89 95 99 96 78 73 77 93 89 82 81 98 53 57 65 73 64 88 64 82 72 65 82 94 96 93 93 91 91 88 56 48 48 50 49 50 51 54 61 64
80 78 76 78 81 82 82 80 76 77 76 77 86 97 100 98 86 84 94 98 91 81 74 82 57 79 58 72 77 77 75 69 74 73 63 81 92 76 79 89 84 60 61 52 57 58 55 58 58 58 59 58 59 62
76 76 77 79 79 80 80 79 78 76 79 92 100 100 98 89 94 96 98 99 84 86 67 70 65 78 54 85 76 63 85 72 71 80 78 88 90 76 59 58 51 51 53 51 51 55 54 56 60 63 66 65 66 65
69 70 72 77 78 79 78 80 82 80 89 95 96 95 97 99 100 99 86 75 74 63 73 78 72 56 74 60 78 71 73 80 83 75 85 87 87 61 56 57 55 54 53 54 53 57 57 57 58 62 67 73 77 81
73 73 73 78 79 75 76 77 78 78 90 96 98 100 100 98 97 88 85 76 82 69 82 87 88 71 72 59 86 90 84 84 79 97 83 92 70 58 59 59 60 56 57 58 60 62 66 73 75 81 87 89 86 90
75 76 80 79 80 78 77 76 77 81 97 100 100 100 99 96 83 80 84 98 88 96 88 85 80 82 81 83 92 91 98 78 87 87 95 83 77 76 68 62 62 82 86 87 89 88 90 92 94 91 91 91 92 92
75 78 79 78 79 77 76 78 81 94 100 100 100 92 92 94 100 100 100 96 86 83 88 84 89 76 96 98 88 87 94 83 78 90 94 87 84 84 84 89 91 91 91 90 88 92 92 91 91 92 91 89 89 92
76 78 72 78 77 72 77 79 94 98 100 100 100 99 100 100 100 100 100 100 88 93 83 76 92 99 96 88 91 82 84 76 96 96 96 90 90 88 92 88 87 87 87 90 90 89 89 92 89 86 87 89 90 89
76 66 70 76 77 77 82 98 100 100 100 100 99 100 100 100 100 100 100 98 83 93 100 81 93 79 87 83 86 81 95 97 96 96 91 89 91 92 90 89 90 89 88 88 88 86 86 87 89 83 84 84 80 81
59 58 74 76 74 96 100 100 100 100 97 99 92 98 100 100 100 100 99 91 86 92 88 80 72 86 92 94 85 97 91 96 92 92 90 90 90 89 87 87 87 85 85 86 85 84 85 88 82 79 62 61 58 62
58 69 78 79 89 97 100 100 99 95 94 92 95 92 94 99 93 92 96 94 79 68 80 70 89 79 94 96 94 94 95 91 94 92 91 88 87 88 87 86 84 82 84 81 73 66 65 68 60 49 48 45 56 55
76 80 82 82 72 94 98 96 82 68 79 82 82 86 85 89 90 99 99 84 76 82 89 78 88 97 93 88 90 92 89 85 84 89 89 87 83 84 84 78 73 73 69 66 70 70 57 53 49 50 61 56 66 75
87 87 88 85 96 98 82 70 64 63 67 78 83 77 85 84 88 90 89 79 88 84 76 88 98 92 82 79 74 79 82 74 78 77 80 87 80 74 72 69 69 66 69 71 74 70 66 61 59 56 73 78 80 76
99 94 100 95 97 98 74 55 61 59 67 75 80 71 84 92 89 90 78 87 84 87 86 81 82 78 76 77 72 66 71 66 71 72 72 75 81 77 78 78 72 81 79 80 70 77 70 60 65 64 73 82 75 72
94 92 97 99 97 97 91 63 73 65 81 85 75 80 85 85 87 67 81 76 93 79 72 66 65 59 69 68 67 64 60 61 66 70 73 71 70 80 76 76 79 84 80 65 57 65 76 76 78 76 72 76 79 81
87 99 100 96 94 95 89 88 60 64 71 75 76 78 82 84 70 76 80 74 88 75 68 72 67 72 70 68 66 63 62 62 72 78 78 76 82 77 72 72 71 67 63 62 62 67 73 80 82 70 80 77 79 82
98 97 99 96 82 87 82 78 79 72 80 76 77 79 86 74 83 82 76 89 85 86 84 72 71 69 81 78 71 66 72 66 76 81 77 67 72 71 68 61 62 59 64 80 79 77 79 81 78 76 73 78 79 79
95 92 94 80 85 78 75 83 81 79 76 78 79 74 80 84 85 81 74 94 86 91 93 90 86 79 72 66 73 68 67 62 66 77 67 62 65 79 79 78 78 76 63 76 78 74 70 74 75 74 77 71 91 80
87 86 76 62 68 70 84 78 70 77 80 81 84 87 88 90 84 88 81 88 91 89 80 84 79 75 73 68 64 66 64 64 70 65 65 66 71 74 78 80 81 84 75 74 77 73 72 71 73 73 77 75 77 80
80 82 86 82 80 76 84 79 80 79 78 68 76 85 85 86 90 88 84 78 93 81 90 88 72 71 75 79 84 83 82 81 82 78 76 76 77 83 87 89 89 87 85 84 80 78 75 74 73 74 76 79 84 81
83 82 76 90 80 80 78 78 81 76 68 80 92 86 87 80 84 86 80 86 92 87 92 93 95 89 88 83 85 85 84 81 85 90 85 90 90 88 81 83 80 80 81 82 86 82 80 83 83 84 78 80 80 82
85 83 81 82 83 85 89 88 89 84 70 78 69 66 74 84 83 77 78 80 85 92 90 90 92 89 92 91 95 94 91 83 82 80 83 86 87 88 87 85 83 81 78 77 77 81 77 80 77 85 89 84 80 83
72 79 80 79 87 89 88 88 84 82 84 85 89 85 84 87 85 83 87 93 95 94 91 92 94 90 91 93 89 91 94 90 88 88 89 89 87 88 87 86 83 80 78 77 77 78 77 77 77 78 77 79 80 83
85 78 82 85 88 86 84 91 89 88 87 87 87 84 86 90 86 87 86 92 91 92 92 91 92 95 94 93 92 88 84 89 88 85 82 87 89 86 84 82 82 79 78 77 77 77 76 75 78 78 81 80 84 86
83 83 80 82 87 87 83 86 81 84 84 84 85 85 91 91 89 89 86 88 96 91 94 95 93 93 92 88 87 89 87 90 88 87 84 84 81 83 84 82 80 78 75 78 77 76 76 75 79 81 82 87 87 87

GFSWCAN_sfc_rhum_102.txt.gz
RH
83 78 80 81 78 78 80 80 80 80 82 82 78 77 80 78 77 90 97 91 89 98 88 75 74 80 77 86 95 78 84 83 92 94 88 93 97 98 92 83 89 88 98 91 85 83 83 87 64 81 97 95 94 93
90 89 83 80 80 80 80 80 80 82 83 82 80 81 80 78 78 85 98 92 90 95 83 87 76 66 68 68 82 87 91 87 96 95 90 95 99 96 96 96 75 93 98 94 92 93 93 89 93 94 90 93 96 92
89 91 90 86 81 82 82 81 81 82 81 83 81 78 78 77 78 86 98 93 96 97 88 87 77 70 71 73 65 83 92 72 79 77 97 94 99 98 98 99 86 89 82 91 87 96 94 92 91 91 94 96 95 94
88 89 86 82 83 82 82 83 83 83 84 84 80 79 78 77 76 84 96 97 96 97 94 81 55 59 54 57 61 66 68 69 77 90 93 97 97 90 100 89 94 93 92 92 96 95 91 92 96 94 95 96 96 95
85 84 83 83 82 83 83 83 83 84 83 79 77 76 76 76 78 91 97 96 93 94 97 90 73 59 47 53 55 60 66 74 87 85 92 94 97 92 97 86 97 93 98 99 94 96 93 96 97 93 96 95 88 89
85 85 84 83 83 83 83 83 85 83 83 80 74 74 76 79 84 96 96 95 94 87 95 97 80 65 60 61 65 69 73 78 88 84 88 90 86 92 97 95 94 96 97 95 99 94 96 97 97 93 95 95 90 90
84 84 84 82 82 81 83 84 83 83 82 81 78 78 80 83 96 98 95 93 88 80 91 96 86 69 60 65 75 76 71 76 85 90 91 88 92 94 98 99 97 99 95 92 86 86 95 94 97 93 90 86 84 85
84 83 83 83 83 84 84 84 83 83 80 80 83 83 84 82 83 94 94 84 85 83 95 97 88 86 71 84 83 86 86 88 83 88 90 94 97 96 99 98 99 99 98 95 91 85 87 88 82 73 65 67 75 77
82 84 85 86 84 86 85 83 83 81 80 81 83 84 92 95 96 94 79 84 93 95 97 97 95 97 85 86 90 90 90 94 88 94 94 88 98 99 95 98 98 97 97 94 75 77 84 81 69 68 72 75 81 81
82 85 85 87 87 86 84 82 82 80 80 82 91 92 98 91 79 84 94 96 97 96 93 99 92 95 96 97 96 95 95 98 98 93 91 95 97 97 96 97 96 95 89 90 72 77 75 76 76 76 76 72 70 71
81 83 84 84 84 85 83 82 81 81 81 96 99 98 98 86 97 97 99 97 97 90 92 87 78 96 85 94 94 94 97 97 95 93 93 97 97 95 97 95 86 78 67 68 64 70 68 73 78 77 74 68 64 64
74 76 76 77 81 82 82 82 82 90 95 91 97 96 97 100 98 93 93 96 99 86 95 87 91 87 90 91 95 92 86 94 90 96 93 98 97 94 95 89 78 70 71 72 69 75 76 74 75 74 74 76 85 85
78 77 72 76 81 79 82 83 79 87 90 96 98 99 99 97 98 92 99 93 97 94 94 93 92 93 93 88 94 93 80 89 97 98 96 99 87 79 79 79 84 80 79 80 81 79 78 81 82 84 92 97 94 96
80 78 75 77 82 82 83 82 90 93 98 99 99 99 96 95 93 94 95 93 91 97 93 96 95 94 97 90 92 78 88 94 98 99 97 97 87 86 80 81 84 96 95 94 96 93 93 91 96 98 97 97 95 98
80 80 76 80 80 82 83 86 84 96 99 99 100 98 99 94 97 100 100 96 99 97 94 95 97 96 97 90 87 86 98 96 93 96 98 94 89 92 95 94 95 96 96 96 95 94 95 95 95 100 100 98 95 99
79 81 84 80 80 79 87 89 94 98 99 100 99 99 95 94 99 98 98 95 98 97 98 96 98 98 98 96 93 92 96 96 93 99 99 93 94 95 95 94 94 94 94 95 95 94 96 96 95 96 98 98 99 98
78 93 80 81 83 84 79 94 96 99 95 96 99 98 99 99 96 98 100 89 96 96 98 98 91 83 96 96 92 96 97 99 99 99 94 91 93 97 96 95 94 94 95 95 96 96 96 97 97 97 97 96 94 92
90 90 80 81 84 84 98 94 98 98 92 94 99 98 99 99 100 100 98 95 95 99 97 89 95 94 86 98 96 97 99 100 98 97 97 96 96 96 92 94 94 93 94 96 94 95 96 97 94 92 88 86 85 85
92 88 88 79 84 93 97 97 98 98 97 96 98 99 99 99 99 98 99 98 93 92 96 97 97 93 95 99 99 100 98 100 98 99 97 95 93 93 96 95 94 95 95 95 89 92 91 82 85 89 91 92 97 95
83 86 83 79 83 90 95 98 92 94 96 95 97 98 98 98 98 98 98 98 91 98 97 90 92 96 96 98 98 97 99 96 96 98 98 96 94 94 94 92 93 92 91 88 87 89 90 92 94 86 89 90 96 97
87 90 84 89 95 98 99 94 93 97 98 98 98 95 99 97 96 97 97 93 97 98 99 98 99 100 97 98 98 95 94 89 92 92 91 96 95 92 91 93 91 91 93 96 97 98 99 96 95 88 95 97 98 98
98 86 95 89 97 92 94 99 99 90 95 98 95 91 99 99 98 96 96 98 98 96 98 99 99 98 98 98 98 90 87 82 86 90 91 91 96 95 95 96 95 97 97 96 96 96 97 96 93 94 96 97 96 97
90 93 95 95 97 96 94 97 99 90 97 98 96 97 97 98 96 93 96 92 93 97 97 97 94 87 92 94 91 86 79 79 85 88 92 91 96 96 97 97 95 94 97 98 98 94 94 93 94 96 98 97 98 98
91 97 98 96 97 97 98 98 98 97 95 96 96 96 93 98 94 98 91 94 96 98 96 95 92 95 96 92 97 97 91 82 93 96 92 93 95 98 96 94 97 97 95 96 93 92 92 94 94 95 99 100 100 99
100 94 99 98 96 98 99 98 98 94 98 96 97 100 99 93 98 93 86 94 100 99 99 98 96 93 97 99 98 98 92 84 89 94 99 92 98 97 97 93 95 98 92 93 96 95 98 99 99 97 98 99 96 97
98 97 97 95 98 93 94 97 96 95 95 94 94 97 97 96 87 94 93 99 99 97 95 92 94 96 97 95 97 96 97 91 90 96 98 90 91 92 94 94 96 96 98 92 94 96 97 95 94 93 95 97 96 98
96 96 97 91 94 92 97 97 91 93 94 92 98 100 93 90 88 92 99 97 98 100 96 92 87 87 94 98 97 98 96 93 93 94 96 94 95 92 84 87 93 96 98 91 93 92 91 92 96 97 99 100 100 100
95 96 95 96 98 96 96 98 96 93 94 94 92 94 92 91 92 98 99 97 98 98 98 98 96 89 94 96 95 96 96 94 94 90 87 90 94 97 96 95 92 97 94 92 93 92 92 92 94 97 97 99 100 100
98 98 95 97 98 97 99 96 97 98 98 98 94 99 100 99 99 100 98 98 98 96 97 96 97 95 95 96 96 93 92 90 89 94 97 99 98 98 99 95 96 95 93 93 94 96 90 94 95 95 97 99 100 99
97 97 96 97 97 98 97 98 99 98 98 97 94 96 98 98 98 99 98 97 98 99 100 96 95 92 95 93 96 96 97 97 95 88 92 98 96 98 98 95 94 96 94 94 96 97 96 98 99 95 95 97 99 100
96 98 97 96 96 97 97 97 98 98 99 98 98 96 98 98 96 98 98 98 98 97 95 96 96 95 94 94 94 95 97 97 94 91 92 92 93 94 96 96 96 96 95 94 92 94 95 97 97 98 99 100 100 100
97 97 96 96 97 98 97 97 98 98 98 98 99 100 100 99 100 99 98 97 97 99 100 95 95 97 96 96 96 96 93 95 95 93 91 92 94 94 93 92 91 90 90 91 92 95 92 96 99 100 100 100 100 100
97 96 97 96 97 97 97 97 97 98 98 99 100 99 98 97 97 97 97 97 97 98 97 98 97 96 95 95 95 96 94 95 93 92 92 93 90 90 91 93 92 91 90 93 95 95 97 98 99 100 100 100 100 100

GFSWCAN_sfc_rhum_105.txt.gz
RH
79 78 80 80 80 80 81 81 80 81 81 79 78 80 80 82 80 90 98 95 85 96 84 79 76 72 72 85 93 74 83 85 93 92 89 94 99 99 96 88 91 86 97 90 84 82 88 84 67 81 95 95 92 92
79 82 81 81 84 84 82 82 82 84 84 83 83 81 80 82 81 84 97 93 88 90 82 91 81 69 64 68 86 88 83 91 96 96 93 94 99 98 98 99 82 93 96 90 92 92 94 90 93 96 93 92 96 91
82 83 82 83 84 83 83 84 84 84 85 85 84 78 79 82 84 87 97 97 94 92 83 84 76 81 72 71 69 87 95 79 80 84 96 95 96 94 96 99 86 90 84 91 88 93 93 90 91 88 93 96 96 94
89 82 83 84 84 84 83 84 84 84 85 84 81 79 79 78 81 82 97 98 96 95 92 82 58 65 60 70 70 70 70 73 81 93 95 98 95 96 99 91 93 96 90 88 92 94 88 95 96 95 95 95 95 96
92 90 80 84 84 84 85 85 85 85 83 80 78 77 76 78 82 93 98 98 96 87 93 84 74 63 57 63 62 69 70 80 90 88 92 96 96 94 98 87 97 97 98 98 93 90 91 99 98 91 94 96 91 91
88 85 84 84 84 84 84 85 85 84 84 80 76 76 79 82 84 92 96 95 96 95 90 93 80 71 65 64 68 72 75 84 91 88 89 92 86 92 96 98 97 99 97 97 96 95 93 97 97 93 95 96 91 89
85 84 84 84 85 84 83 85 85 84 83 81 78 80 81 82 96 96 96 94 90 92 94 94 84 67 68 68 81 82 78 83 88 93 90 89 94 92 96 97 97 97 96 94 87 84 94 92 97 94 90 93 85 77
86 84 84 84 84 84 86 85 84 84 82 80 82 82 82 78 81 91 96 85 85 94 88 96 85 85 75 85 84 92 89 92 85 86 91 96 96 96 99 95 98 93 90 88 89 89 85 90 88 87 80 75 77 79
84 84 84 83 83 84 84 84 84 82 83 82 85 80 89 95 96 94 82 86 97 94 97 96 94 97 87 92 92 92 91 94 90 95 94 89 95 98 93 95 92 95 92 94 81 81 84 83 80 76 75 75 80 78
86 86 85 84 84 85 84 84 84 83 84 82 88 92 98 94 80 84 90 94 94 98 90 98 94 95 96 97 96 96 96 98 89 92 92 96 98 90 96 94 92 95 80 78 91 93 88 80 79 82 79 74 73 73
85 86 87 86 85 85 84 84 83 82 81 95 96 98 99 87 95 96 98 91 95 94 92 94 87 95 87 94 95 96 98 98 97 94 97 97 96 97 98 98 96 98 85 79 73 75 72 72 79 77 74 68 66 68
77 79 82 87 85 84 84 82 81 90 95 93 97 94 96 99 98 87 88 91 93 89 96 92 92 87 90 94 95 94 90 94 92 96 98 99 98 97 94 94 96 75 76 75 71 75 76 72 72 73 73 74 82 85
78 74 75 81 82 77 83 82 81 85 90 97 98 98 97 99 97 86 98 92 99 95 93 96 94 92 95 87 94 92 83 91 97 99 96 97 93 93 91 92 86 80 78 78 80 77 77 80 81 86 90 97 91 92
80 76 75 81 82 82 83 83 88 94 97 98 92 99 96 98 86 95 95 94 93 97 97 96 96 94 98 90 96 83 87 97 97 99 96 99 95 91 86 82 82 94 94 93 95 93 93 92 95 95 93 97 95 99
80 79 77 83 84 83 86 83 82 96 99 99 96 95 98 94 95 97 99 98 100 98 96 97 98 96 97 90 89 87 98 97 96 94 97 97 92 91 94 94 95 96 96 96 95 94 93 94 92 100 100 99 96 100
79 79 87 81 81 83 81 83 94 98 99 98 96 96 98 97 98 98 98 96 98 97 98 94 97 96 98 97 91 88 96 97 93 100 99 95 94 95 95 94 94 95 94 95 94 92 93 94 92 94 98 99 100 96
80 93 81 83 82 79 80 94 96 99 98 94 99 99 99 99 97 98 98 96 96 94 99 96 94 88 96 99 98 97 94 97 98 99 96 92 92 96 96 96 95 94 95 95 95 93 97 97 96 96 95 97 95 93
98 90 81 88 80 82 98 94 95 98 91 96 99 99 99 100 100 99 97 96 95 98 98 90 92 95 88 97 96 95 100 100 99 98 98 96 96 97 93 95 95 93 94 94 93 94 96 97 94 93 87 84 86 87
91 88 85 74 78 89 94 97 94 95 92 98 98 99 99 99 99 99 99 98 94 93 96 98 98 95 94 97 99 100 100 100 99 99 98 96 93 94 96 95 94 94 93 94 87 87 90 86 86 88 92 92 98 98
86 88 79 80 78 92 98 92 91 90 98 95 97 98 98 98 98 98 97 97 92 98 96 88 92 94 96 97 98 98 98 97 97 98 98 99 93 95 95 93 94 91 90 88 87 91 93 95 97 97 98 98 98 97
91 91 84 89 96 96 98 87 86 86 98 97 96 94 97 96 96 95 91 92 95 96 98 97 98 98 98 99 99 98 96 92 96 95 96 99 98 95 96 95 91 90 93 96 96 99 97 96 96 93 97 98 98 98
99 92 98 87 96 90 91 99 91 91 96 96 96 90 100 99 100 98 98 99 98 95 96 98 99 98 99 99 99 93 92 86 89 94 95 92 97 97 97 97 96 98 96 96 95 96 98 98 97 95 98 99 98 98
87 90 96 93 93 91 90 96 98 93 96 98 96 97 97 98 97 94 97 96 95 96 97 98 96 89 94 96 93 89 82 81 91 93 95 94 93 96 98 97 95 96 97 97 97 97 98 98 97 97 97 98 98 100
83 96 96 98 93 98 94 98 98 97 99 99 96 90 90 100 95 98 97 94 95 99 98 97 96 98 98 96 99 98 96 91 96 98 95 93 97 97 96 97 96 93 94 96 98 97 95 96 96 95 99 100 100 100
85 83 96 99 92 98 99 98 98 97 100 94 95 98 97 96 99 98 92 92 98 99 100 99 98 98 98 100 99 100 95 87 93 97 100 95 98 99 99 99 99 99 98 98 98 95 97 98 99 99 100 100 98 99
98 92 96 94 99 98 97 99 99 96 96 98 97 97 97 85 92 92 92 98 97 100 98 96 98 97 97 98 99 99 98 92 87 97 99 94 93 94 96 97 98 98 97 95 91 93 96 99 97 95 99 99 100 100
98 96 97 96 94 91 97 97 94 95 97 96 97 99 96 96 94 90 99 98 98 98 98 96 93 92 91 98 100 99 98 94 95 95 96 96 96 94 89 91 93 95 98 93 93 91 94 93 94 96 99 100 100 100
95 98 93 96 98 96 96 98 96 95 94 95 94 98 92 89 90 97 98 98 98 98 98 99 98 96 97 97 97 96 96 96 95 94 93 93 94 96 95 94 92 97 94 96 96 93 91 92 93 96 96 100 100 100
98 98 96 98 97 97 97 95 94 97 97 97 94 97 97 98 98 100 98 99 98 96 98 98 98 97 96 96 96 95 94 93 92 96 96 98 98 97 98 95 95 95 93 92 95 95 89 92 94 94 98 100 100 99
97 96 97 98 96 96 97 97 98 98 99 98 97 97 97 98 99 99 99 99 98 100 99 99 100 95 96 94 96 97 97 98 97 91 93 96 96 96 96 94 95 96 93 92 94 95 96 97 98 97 97 98 99 100
97 97 97 97 98 98 98 99 98 97 99 99 99 97 97 98 96 99 100 99 98 99 97 98 98 97 95 95 94 95 98 97 96 95 93 92 93 93 92 92 93 93 92 91 92 93 94 98 98 98 99 100 100 100
98 97 96 97 98 99 98 97 97 97 98 98 99 100 100 98 96 98 98 98 98 99 99 97 96 98 96 96 96 97 93 96 95 93 91 92 93 93 93 94 92 90 90 92 93 95 95 97 98 99 100 100 100 100
97 97 97 96 97 97 97 97 97 97 98 100 100 99 99 96 93 95 97 98 98 97 98 97 96 96 96 95 95 96 94 95 93 92 91 92 90 92 92 91 89 89 90 95 96 96 96 96 99 100 100 100 100 100

GFSWCAN_sfc_rhum_111.txt.gz
RH
86 86 84 84 83 83 84 85 86 87 86 85 85 84 82 77 75 83 97 91 81 96 82 74 64 73 70 63 68 72 77 73 80 82 78 85 90 91 86 82 91 91 94 90 86 81 85 76 79 86 90 87 83 85
88 88 86 81 83 84 85 85 86 87 87 86 85 84 82 77 75 78 94 87 83 86 83 83 77 68 53 56 81 83 70 84 87 82 74 82 89 81 90 87 73 90 92 89 88 83 86 88 91 86 75 84 85 84
83 83 84 85 85 85 86 86 86 88 88 88 86 84 81 79 76 78 98 95 88 90 77 76 77 74 66 66 69 75 87 76 82 77 79 86 87 87 83 84 85 90 80 79 82 88 88 88 86 82 79 89 84 82
82 84 84 85 86 86 87 87 88 88 88 87 86 86 84 81 81 84 98 97 82 80 89 78 60 70 67 67 66 69 75 77 80 79 83 88 82 84 91 79 81 87 78 76 88 88 82 86 87 88 91 88 88 86
80 85 86 85 86 87 88 87 86 85 85 85 84 83 82 82 82 87 98 98 86 77 86 71 70 67 68 66 68 69 73 75 73 74 82 90 91 87 88 74 88 88 89 88 86 79 79 88 91 87 88 90 84 83
85 86 86 86 86 87 88 87 86 85 85 84 81 80 78 78 72 90 94 84 92 77 78 88 74 69 62 64 71 74 74 78 75 72 81 87 84 83 91 86 90 94 92 87 89 82 85 88 89 81 86 87 78 77
86 86 85 86 87 86 87 87 86 86 86 86 85 84 83 84 94 96 90 90 86 78 86 86 78 66 67 72 80 77 78 80 76 78 80 88 86 82 89 90 94 94 96 91 83 80 93 86 87 83 80 77 70 62
86 87 87 86 87 86 86 86 86 86 86 85 81 80 79 78 82 94 96 86 80 81 77 90 80 84 73 80 82 85 81 78 77 75 80 87 86 82 92 94 95 92 90 85 86 75 70 78 78 78 68 62 62 61
87 87 86 86 87 87 86 86 86 84 84 78 73 73 88 95 98 97 85 79 90 86 90 84 78 83 81 89 88 85 79 88 81 86 85 83 89 91 87 92 94 87 80 88 82 79 78 78 79 73 68 65 64 63
86 86 87 88 86 86 86 88 88 82 75 73 85 89 99 98 83 80 85 88 90 93 89 92 84 88 88 90 91 90 89 90 82 90 85 90 87 85 81 78 76 74 78 75 83 85 78 80 76 72 69 64 61 60
85 86 86 86 86 87 87 87 78 73 76 95 99 99 98 88 90 92 95 92 90 84 82 86 81 91 84 87 84 91 94 93 91 87 92 91 89 85 88 84 79 77 73 67 63 66 65 68 71 73 73 69 66 64
80 84 85 86 86 86 84 75 75 93 96 94 94 92 92 91 91 86 93 88 82 80 89 85 82 74 91 88 89 91 82 87 85 93 96 91 89 90 84 84 84 74 69 71 68 69 69 67 68 70 70 73 79 82
84 84 83 85 84 80 86 88 87 87 88 89 88 97 88 91 90 88 98 92 98 93 93 93 92 89 89 76 88 81 82 87 86 91 80 85 87 89 89 90 88 77 75 74 75 72 72 73 73 80 87 90 88 90
85 84 82 85 86 86 86 81 80 85 92 95 90 97 93 93 89 91 90 93 90 92 92 90 95 88 93 86 92 82 84 89 95 86 89 88 91 96 96 95 87 92 90 89 90 89 91 90 92 89 86 86 85 89
85 81 78 84 85 82 80 79 81 93 95 97 92 94 94 93 94 95 95 98 98 94 92 92 94 86 91 88 87 83 97 96 91 88 89 90 95 95 96 97 96 95 95 94 92 92 92 90 87 88 87 86 85 91
83 82 91 82 79 76 74 80 90 92 94 94 94 96 98 96 97 99 98 98 95 95 91 89 87 93 97 90 82 88 87 91 84 92 95 95 98 96 95 94 95 95 93 94 92 91 90 86 82 86 92 90 92 89
82 91 84 79 76 77 76 88 92 96 94 91 98 99 99 99 99 99 99 97 96 91 97 87 92 94 92 95 96 90 93 89 94 97 94 94 95 96 95 94 94 93 93 93 91 89 88 88 90 86 85 88 84 82
96 88 81 72 73 77 97 96 94 90 92 97 97 99 99 100 98 97 97 98 94 95 89 92 86 87 98 96 88 89 95 98 98 96 94 92 93 95 92 93 93 91 91 92 87 85 86 87 74 66 65 67 67 70
87 88 72 70 73 84 88 93 91 92 98 98 98 98 98 99 98 97 98 97 93 89 94 94 95 88 90 91 93 99 100 96 97 96 95 94 92 94 95 94 93 92 90 88 75 67 64 61 56 58 58 59 66 70
77 77 80 80 78 88 89 91 84 76 94 95 95 97 96 97 97 96 96 93 89 92 92 92 91 91 91 91 91 94 94 93 92 96 96 94 90 91 92 87 84 85 80 74 68 69 64 67 64 66 71 72 82 88
97 94 83 84 94 92 86 79 81 83 94 94 91 89 96 93 93 94 92 88 88 91 91 89 91 91 91 95 93 89 91 89 90 88 88 94 92 84 85 85 83 80 80 80 80 77 80 75 75 76 90 93 94 90
98 83 94 89 91 87 92 91 94 92 93 94 91 82 88 95 94 94 89 93 92 92 92 90 90 92 99 98 93 86 86 83 85 89 93 91 95 93 92 90 86 90 87 88 80 85 82 77 82 87 93 96 92 90
85 83 96 88 84 88 94 94 96 90 89 96 93 83 96 99 95 90 98 92 94 91 92 91 93 89 93 95 91 87 81 78 83 84 90 88 86 92 89 89 87 92 91 84 76 80 86 88 92 91 92 91 92 94
79 91 89 98 91 99 91 97 95 93 92 93 94 99 97 95 94 97 97 91 91 92 95 96 93 96 95 93 92 90 88 83 88 94 89 88 92 92 86 86 85 82 79 79 80 86 91 96 94 90 93 94 94 93
84 87 90 100 82 90 94 97 97 95 100 97 100 99 95 93 98 99 98 92 96 98 98 98 93 92 96 96 93 92 92 83 87 94 96 85 91 91 91 88 87 84 86 93 94 94 97 95 94 93 92 92 93 93
92 87 95 94 89 92 93 100 99 98 98 99 98 95 97 92 92 96 88 96 97 96 100 99 97 93 91 90 92 93 90 84 82 93 92 84 84 91 94 95 95 97 89 88 93 95 94 93 94 94 95 93 94 93
97 95 97 89 94 93 98 98 93 98 100 100 98 98 97 98 96 89 96 96 97 96 93 95 98 91 90 92 93 92 90 88 89 90 91 89 88 84 87 92 93 88 92 90 91 92 93 94 94 93 95 96 95 92
95 96 95 98 98 95 96 99 100 100 96 94 93 96 98 93 87 90 93 94 96 93 93 93 92 91 92 93 94 93 94 93 94 92 90 90 91 93 94 94 92 95 94 94 93 92 91 92 92 93 93 96 99 95
99 98 96 98 97 97 97 95 93 92 92 96 95 96 93 90 94 96 94 94 97 95 97 96 96 96 96 96 96 94 94 94 94 95 95 97 96 95 92 93 93 93 93 94 93 92 89 91 92 92 92 95 96 94
99 97 99 100 98 96 95 98 97 96 93 93 90 89 89 93 96 96 97 97 98 98 97 96 96 95 97 96 97 96 96 96 94 90 93 95 94 95 94 94 95 94 93 93 95 96 98 97 96 92 94 95 93 93
94 97 99 100 98 97 97 99 99 99 99 99 97 98 98 96 93 95 97 98 98 98 98 99 97 95 96 96 96 96 98 96 96 95 93 94 94 95 94 94 94 93 93 92 92 92 93 93 94 94 94 94 93 91
97 97 97 99 97 96 98 99 99 98 98 100 98 100 98 97 95 94 97 98 97 97 98 97 97 96 96 96 96 96 94 96 96 94 92 93 95 94 93 91 92 90 90 91 91 92 91 92 93 92 92 92 93 92
96 97 96 96 97 96 96 96 96 97 98 100 99 100 100 98 94 95 94 96 98 96 96 96 96 96 96 95 95 95 94 95 94 94 94 94 91 91 91 91 90 90 90 92 91 90 90 90 92 92 92 93 95 95

GFSWCAN_sfc_rhum_114.txt.gz
RH
89 90 90 92 91 91 91 91 90 90 90 90 91 89 86 80 72 58 82 71 58 80 65 50 49 52 49 37 50 57 60 61 59 65 56 58 77 76 67 61 75 82 86 80 71 73 73 67 69 85 89 77 77 79
84 82 88 88 88 88 89 89 88 89 88 87 87 85 82 77 72 66 71 60 54 59 66 60 61 52 38 38 51 62 55 60 63 53 53 62 80 77 74 77 64 87 80 70 77 77 76 78 84 73 66 76 78 78
79 80 85 88 88 87 85 84 84 84 84 84 83 83 81 75 72 62 72 57 50 66 53 42 57 55 48 52 53 49 55 56 64 56 66 65 80 64 74 65 74 83 87 84 78 80 79 79 72 66 66 82 74 74
85 83 85 85 88 88 86 86 86 86 87 86 85 84 82 79 74 63 65 64 45 43 72 68 49 57 53 47 50 49 58 62 60 54 64 71 77 64 84 66 65 82 80 79 85 81 75 80 83 81 81 80 80 79
85 86 87 87 87 87 87 87 87 87 87 87 85 83 81 79 75 69 80 66 56 39 58 58 53 56 49 46 50 50 53 55 50 58 68 80 76 73 76 58 76 73 88 82 85 76 76 89 86 77 82 83 76 73
85 86 87 87 87 87 87 87 86 86 85 84 83 80 77 73 69 55 97 54 55 35 46 73 58 54 50 50 53 54 52 51 46 49 65 77 66 73 90 73 91 92 97 82 83 76 78 83 79 68 75 75 66 63
86 86 87 88 87 86 87 87 88 88 88 87 86 85 85 82 81 75 72 74 68 46 60 64 60 54 52 52 54 53 57 51 46 50 58 66 68 66 89 86 93 94 96 81 67 70 86 81 81 69 67 65 62 52
87 87 87 87 87 86 87 89 88 86 85 83 81 80 81 79 71 68 72 71 56 46 46 70 68 64 57 56 62 55 54 50 51 48 59 59 72 71 90 96 89 89 83 75 67 61 62 61 63 62 57 52 53 51
87 87 87 87 87 88 88 89 87 81 75 73 74 76 73 80 78 72 85 68 59 56 70 63 70 85 60 59 66 62 53 74 57 63 62 63 70 88 98 91 87 82 76 79 64 55 58 63 63 58 53 51 48 47
87 88 88 88 88 89 90 86 80 75 75 74 69 74 100 84 84 73 63 79 71 68 60 72 55 79 62 69 72 69 63 66 68 72 66 70 76 73 70 67 67 66 61 62 69 72 64 66 62 58 56 49 44 39
87 88 87 87 89 88 83 80 76 72 74 78 90 95 79 84 68 70 94 82 64 68 58 64 62 76 66 74 76 70 77 74 68 78 79 72 74 76 69 64 59 63 62 58 55 56 55 56 59 59 58 53 49 45
82 86 87 88 85 84 84 82 82 81 89 85 78 77 74 72 76 78 84 76 64 67 71 74 68 59 81 67 68 70 71 80 79 86 89 75 82 68 66 64 62 63 61 57 55 57 57 56 56 58 58 59 59 65
86 87 85 87 88 86 85 83 82 82 76 65 65 89 69 77 82 76 86 87 87 79 79 80 89 72 74 54 81 69 86 85 74 92 71 78 73 69 69 68 68 59 59 58 60 59 57 60 60 68 75 84 85 86
86 86 84 85 84 82 82 82 79 75 72 85 88 91 86 88 85 86 85 92 89 86 80 75 85 75 80 80 95 88 94 78 88 79 73 81 86 94 96 85 68 79 85 81 80 79 83 87 89 87 86 85 85 84
86 85 83 82 80 78 77 78 78 73 82 94 77 93 90 96 96 99 99 93 92 81 77 77 77 67 83 90 78 80 90 84 76 78 91 89 90 94 97 100 96 91 92 91 89 90 90 89 87 87 83 77 78 83
80 81 81 78 75 74 71 68 74 72 80 82 86 93 99 100 100 100 100 100 87 87 75 69 83 94 96 81 78 76 71 70 89 97 98 94 95 100 97 97 96 92 90 91 90 88 88 87 82 77 76 76 77 78
80 93 77 74 72 72 76 72 82 99 82 87 99 100 100 100 100 100 100 95 83 83 96 75 88 94 81 89 86 76 94 98 100 100 93 98 97 98 97 95 95 95 94 91 90 87 85 82 81 73 72 77 70 74
78 84 70 65 59 63 87 87 84 73 89 93 92 100 99 100 100 100 98 90 80 77 77 83 71 83 89 84 80 94 100 99 97 96 93 96 99 94 93 93 94 88 89 88 86 85 82 77 62 55 58 58 56 56
78 70 80 77 64 61 78 83 77 81 95 96 98 92 96 98 91 89 93 88 80 73 76 84 89 76 86 88 100 100 100 97 96 93 90 95 92 91 90 88 88 87 86 86 74 64 57 49 43 44 45 45 52 56
82 85 79 78 66 58 71 77 64 67 82 89 83 87 86 92 92 99 97 82 75 70 75 78 82 92 89 95 89 94 93 90 84 85 87 84 82 87 87 80 74 78 72 66 58 56 48 45 42 45 48 48 65 72
89 88 77 70 70 65 65 66 73 79 78 83 80 78 86 81 88 92 88 75 72 68 71 76 97 99 90 90 81 77 84 78 80 78 76 82 79 70 75 72 74 67 67 67 69 62 61 57 53 54 76 81 82 81
83 76 76 67 65 69 73 78 81 79 79 81 81 71 84 89 91 90 79 79 73 79 81 79 78 76 81 92 79 71 76 73 75 78 81 79 82 78 77 77 73 80 77 81 72 77 69 58 62 71 82 90 78 79
74 68 71 63 71 77 90 77 80 75 74 82 72 75 85 92 85 74 89 76 86 80 76 70 78 75 79 83 79 74 70 67 65 66 76 70 70 84 77 77 77 86 83 73 64 70 73 67 78 86 84 84 88 90
74 83 86 86 76 97 85 86 72 74 71 79 78 90 88 89 87 85 86 70 82 75 77 88 76 85 84 83 74 72 72 66 71 85 77 72 76 77 73 73 73 72 70 63 65 69 76 85 82 81 86 89 89 88
74 84 84 93 75 83 90 90 88 81 83 89 92 87 91 80 90 90 86 78 85 96 91 87 81 79 94 92 81 81 82 67 70 73 85 68 75 76 77 72 73 69 70 84 84 85 87 90 90 90 90 91 88 85
77 80 79 77 84 80 83 96 93 89 85 93 89 84 92 89 87 74 65 96 88 94 99 100 98 86 79 77 81 84 81 70 66 78 71 65 68 85 87 87 87 86 73 78 83 86 89 89 91 90 91 86 84 86
79 79 81 69 76 78 91 90 82 89 97 95 86 94 88 91 87 74 83 86 86 94 86 89 89 83 78 80 83 83 77 71 75 72 73 70 68 66 78 85 82 76 78 79 81 85 89 91 92 90 89 88 85 83
82 82 93 90 90 84 90 90 91 95 87 77 83 94 91 85 76 83 83 87 89 85 86 86 82 80 81 83 85 87 88 88 90 84 80 80 80 84 88 87 84 82 81 82 87 92 92 90 89 88 87 90 91 84
94 92 88 98 92 91 89 88 86 77 73 83 92 85 85 76 88 91 86 82 88 90 94 94 94 93 92 89 89 89 89 88 88 90 87 92 93 93 88 91 90 91 92 92 92 90 87 87 87 88 86 89 89 87
90 90 92 96 96 89 90 94 99 94 79 85 82 77 75 85 88 86 86 88 91 94 96 94 94 94 94 94 95 93 91 93 91 86 88 89 89 92 91 92 92 93 92 91 91 92 95 93 92 89 88 89 88 87
84 93 94 90 92 94 95 95 94 92 92 94 93 95 90 93 87 86 87 90 93 95 94 94 94 93 93 93 92 93 95 94 92 90 89 91 91 91 91 91 92 90 89 89 89 88 87 86 86 86 86 86 85 82
94 92 92 94 92 92 93 94 93 94 94 94 93 95 94 94 92 92 91 93 93 94 93 93 93 93 91 91 92 94 90 93 93 91 89 91 92 92 90 88 89 88 87 86 84 83 81 83 85 84 84 83 80 81
92 92 91 91 92 90 90 92 86 89 92 91 91 93 92 92 89 93 84 89 93 93 91 92 92 92 92 92 92 92 88 91 89 88 90 90 88 88 87 86 84 82 81 84 84 82 80 80 83 83 82 82 83 83

GFSWCAN_sfc_rhum_117.txt.gz
RH
90 89 92 91 86 90 89 81 80 82 81 79 80 89 90 84 78 66 92 82 74 88 65 55 43 43 34 34 48 49 56 53 57 63 61 51 62 64 63 53 61 65 82 84 64 80 83 56 56 76 85 69 64 73
89 90 92 91 89 90 91 90 90 90 90 88 84 82 81 78 79 70 88 74 56 55 59 50 48 40 35 27 35 50 45 50 55 48 48 52 68 71 62 68 49 75 68 83 72 79 74 69 77 66 62 71 74 77
91 91 91 91 91 90 89 90 90 88 87 86 85 84 85 86 79 83 72 55 50 65 51 43 54 48 41 42 40 44 41 40 54 49 59 54 74 52 68 56 61 70 63 67 71 76 73 72 63 59 62 73 69 68
91 90 90 90 91 90 90 89 88 88 88 87 85 86 83 79 72 56 47 41 43 43 71 63 42 50 38 39 39 42 46 50 46 46 66 68 72 52 77 61 54 75 66 71 81 75 69 75 73 75 74 72 73 72
86 87 88 88 88 89 90 88 88 87 87 86 84 79 74 71 66 56 50 43 40 35 55 57 50 41 36 39 42 44 49 53 47 56 67 70 65 69 70 56 66 64 94 82 95 72 71 86 80 72 77 78 70 68
86 87 87 86 87 86 84 84 84 83 81 79 78 78 77 74 58 39 97 43 34 35 42 66 44 45 40 38 40 43 44 42 38 42 62 55 54 62 80 74 85 90 93 76 81 64 76 83 75 64 69 68 60 57
86 86 86 86 86 85 87 86 85 86 86 85 83 81 77 73 62 55 61 52 57 36 46 55 50 41 39 40 39 38 42 39 37 40 54 62 59 64 81 78 89 93 94 68 62 70 88 78 81 65 60 57 54 44
87 86 86 89 89 88 86 85 83 83 82 82 80 78 74 72 62 48 58 64 61 34 35 58 60 56 42 44 49 39 41 38 39 39 44 50 61 64 84 99 84 80 74 66 63 51 60 58 58 58 52 50 50 46
87 88 89 90 90 86 84 82 80 78 76 77 76 71 54 53 46 49 82 69 46 40 57 56 66 82 47 42 47 45 39 65 41 53 48 47 59 78 99 89 81 74 70 68 56 50 53 59 57 55 52 49 48 44
88 89 90 90 86 84 81 80 80 78 76 70 51 61 100 63 87 76 50 76 61 52 44 58 45 69 45 53 55 54 46 52 62 55 48 60 68 63 60 62 61 59 55 55 58 63 60 60 58 54 50 46 44 40
87 89 85 82 81 81 82 84 82 74 70 54 78 88 61 75 48 58 93 74 56 59 51 58 60 70 47 64 65 52 62 54 52 64 64 62 65 70 58 56 53 52 51 49 48 54 54 54 53 52 51 45 40 37
81 84 88 90 89 87 86 82 74 63 69 74 60 60 57 62 68 77 73 66 49 59 59 67 57 45 62 50 63 57 60 68 79 70 77 68 83 61 56 55 57 54 54 55 49 52 54 52 51 52 51 49 49 57
87 87 84 86 86 84 83 82 80 76 73 50 56 84 62 74 92 90 90 76 83 73 73 73 85 62 59 49 69 62 90 80 63 90 67 80 64 60 60 57 60 58 56 59 57 56 54 54 55 66 72 81 83 85
87 84 81 81 79 78 79 79 78 64 53 78 86 94 85 90 78 84 88 94 85 83 77 73 72 70 67 77 87 98 83 67 80 81 70 82 76 84 91 71 62 73 81 78 84 82 82 83 84 85 88 85 87 86
82 78 73 74 75 73 71 74 76 54 71 86 69 88 92 95 94 98 99 94 87 79 73 68 66 61 72 93 67 70 89 80 63 73 88 88 88 95 100 100 96 95 90 91 90 87 89 89 90 91 87 82 79 82
78 71 68 74 72 74 75 62 58 56 70 74 81 96 99 97 100 100 100 100 76 74 63 60 76 92 92 74 71 76 58 63 88 94 97 91 100 100 100 100 99 99 98 94 88 87 88 88 87 86 80 80 79 77
72 70 74 68 68 67 75 62 74 95 77 76 98 100 100 100 100 100 100 84 72 72 94 62 92 84 70 76 72 62 88 95 98 96 90 98 94 100 100 100 100 98 96 92 88 86 86 82 81 75 73 74 68 72
62 61 76 74 59 56 76 74 73 68 86 96 96 100 99 100 100 100 94 76 65 65 66 71 61 68 87 75 75 92 96 99 94 90 89 92 99 100 99 99 97 96 96 95 92 84 85 81 65 55 54 53 53 54
71 65 77 76 64 52 74 73 64 79 97 95 96 90 92 98 87 82 85 70 58 54 64 64 78 67 80 86 100 100 100 97 94 88 90 94 92 92 91 93 95 95 93 89 80 72 65 55 46 44 45 44 48 50
76 79 77 74 64 46 61 68 53 66 81 86 80 81 82 86 82 99 91 66 57 59 66 68 78 86 86 89 84 86 88 88 81 83 86 84 84 88 90 83 77 80 76 70 63 62 54 46 41 44 46 45 60 66
66 67 70 54 55 53 60 61 65 67 63 78 73 70 79 73 85 92 84 61 66 61 63 71 94 98 87 86 72 70 80 68 72 73 75 84 77 69 74 68 72 66 66 66 68 62 58 55 48 48 68 75 80 76
66 71 64 51 54 58 62 64 68 61 69 74 68 65 78 93 95 92 68 72 66 73 75 70 71 67 73 78 70 65 70 67 69 72 77 77 79 75 75 76 71 78 75 79 70 75 68 53 55 66 76 86 80 81
70 58 58 51 74 78 82 63 69 57 80 76 67 72 80 84 79 63 84 67 78 75 67 61 68 67 71 73 72 66 63 60 58 62 70 64 66 86 74 76 76 86 81 75 66 71 73 60 68 86 86 80 89 86
69 80 93 86 73 92 81 80 58 61 65 66 68 78 78 84 76 80 79 60 80 68 65 77 65 70 71 75 66 66 66 60 69 84 72 67 73 73 70 71 74 78 76 67 68 76 78 81 77 85 83 87 88 88
70 87 91 83 72 80 80 82 80 67 77 76 79 78 85 76 84 80 78 76 79 92 86 78 72 73 85 86 76 74 76 62 64 68 82 62 69 70 72 71 75 76 75 85 87 88 86 89 86 83 83 90 89 87
72 91 81 78 82 72 74 79 78 77 77 81 82 73 84 87 84 77 54 93 84 92 93 95 94 79 72 66 70 73 70 64 62 75 63 57 65 80 83 82 84 85 76 91 89 91 92 84 86 88 92 90 88 83
64 81 71 62 66 64 84 84 72 80 84 79 79 88 81 81 80 71 81 81 82 90 80 84 84 83 80 73 75 75 69 69 74 69 66 62 64 72 83 87 85 80 79 86 86 88 86 89 91 92 90 90 83 78
77 78 81 84 82 74 82 80 80 82 81 63 72 85 81 78 83 88 85 84 86 79 80 83 77 76 77 78 82 84 85 85 86 80 76 76 75 80 85 85 82 76 82 85 86 88 89 91 90 89 87 85 85 77
86 87 80 90 84 82 82 81 81 69 66 78 91 80 83 75 94 93 85 79 86 87 91 89 92 93 91 86 86 88 86 87 87 88 86 88 91 90 82 83 86 89 92 92 93 92 90 89 87 85 83 83 82 81
83 85 80 85 86 79 94 96 99 96 74 83 81 69 66 90 95 86 88 89 90 93 95 96 95 94 92 91 90 91 95 98 98 96 88 88 90 89 88 88 89 90 90 91 91 92 88 89 88 87 86 86 85 85
77 88 87 82 82 91 95 94 95 94 96 95 92 97 89 97 94 86 85 87 88 90 91 89 88 92 87 89 90 90 91 93 90 92 91 89 88 89 90 90 90 90 90 89 88 88 87 84 82 81 80 82 81 79
89 90 87 84 89 95 96 94 90 90 88 91 88 93 92 94 90 92 88 89 87 88 88 94 95 93 94 97 95 95 89 90 90 89 87 88 90 89 88 88 90 87 86 85 84 81 77 78 81 81 81 79 77 78
88 88 86 87 88 87 89 92 82 85 86 85 88 90 88 91 92 91 80 85 89 90 91 91 91 93 94 95 93 93 90 92 92 91 90 90 88 88 89 87 85 82 79 80 79 78 77 76 80 80 78 78 78 78

GFSWCAN_sfc_rhum_120.txt.gz
RH
90 92 89 88 94 90 87 87 87 82 79 79 80 80 79 79 77 89 98 88 94 87 58 49 38 48 43 53 69 72 66 58 65 65 60 55 66 89 64 55 64 70 80 77 70 83 83 46 50 72 82 69 69 82
92 91 86 89 96 94 88 88 88 85 84 81 78 80 80 79 79 89 96 90 91 82 68 56 57 50 52 45 53 60 55 57 66 54 50 74 92 69 58 69 44 74 72 86 91 87 72 68 79 66 61 76 81 83
91 91 88 86 91 93 90 87 88 86 82 82 81 81 80 79 84 89 95 88 85 94 93 82 74 51 42 46 43 57 50 45 51 48 71 71 74 49 68 57 64 64 57 68 73 75 72 69 60 60 65 80 73 73
90 90 91 89 87 87 88 89 85 83 83 80 80 81 84 88 88 82 93 71 68 79 96 85 44 45 38 42 44 45 47 51 50 52 64 73 78 48 76 63 62 72 62 68 84 75 69 70 79 77 76 76 74 72
90 90 91 90 91 90 90 88 87 88 89 90 86 84 88 88 80 80 84 64 57 68 89 74 50 39 36 40 46 46 53 57 54 60 61 77 65 66 78 61 72 63 94 81 89 72 70 87 87 75 77 78 69 70
87 89 90 91 90 90 88 87 88 88 87 86 87 85 84 80 78 85 97 60 48 46 58 80 48 45 41 42 45 48 52 57 46 62 67 57 55 64 89 76 85 86 88 77 78 66 80 85 78 66 72 70 63 60
88 87 86 87 87 88 89 89 88 88 87 88 88 88 83 78 62 56 63 52 57 45 56 64 54 42 38 40 44 44 42 42 41 46 54 62 66 63 87 80 89 90 92 65 68 73 88 80 84 69 64 59 55 47
88 85 82 81 81 82 82 81 82 82 82 80 76 72 69 67 66 58 64 64 77 43 35 71 68 57 38 50 49 36 43 40 42 41 47 54 70 66 81 97 87 77 66 68 66 53 65 63 61 60 54 52 49 46
87 84 79 78 78 77 76 77 78 78 76 76 76 74 58 45 48 53 72 78 60 51 66 65 75 82 48 44 49 45 37 68 40 52 49 44 62 78 96 86 80 73 67 69 58 57 60 66 62 59 56 51 49 46
82 81 80 80 80 82 83 80 78 75 73 70 50 65 100 59 77 74 54 81 65 48 42 64 46 73 52 58 55 52 44 56 62 54 47 60 68 61 60 64 64 62 54 55 63 71 68 68 64 62 57 51 46 43
88 88 87 85 84 84 83 79 75 70 68 56 81 86 54 72 57 60 94 76 59 58 58 60 57 68 42 72 66 50 66 54 52 61 59 59 66 70 55 57 54 51 50 50 49 56 58 60 61 62 58 54 49 43
85 88 88 86 83 81 80 82 70 59 60 61 54 56 54 60 70 75 72 65 53 61 58 72 64 52 60 45 61 55 55 66 69 62 70 65 83 58 54 54 55 51 50 51 49 59 71 63 60 56 55 53 56 69
83 80 80 80 81 80 81 82 80 73 71 48 55 80 62 78 85 82 81 70 84 74 75 76 83 61 58 52 69 64 87 77 63 84 68 85 72 58 59 63 64 58 61 58 60 68 81 77 61 70 85 89 88 90
77 77 77 78 80 79 78 79 80 64 52 79 88 84 84 84 83 94 93 94 81 79 77 74 79 74 74 84 85 84 85 63 80 75 69 84 69 79 76 73 72 75 83 84 85 83 84 85 93 90 90 89 90 90
75 73 69 72 75 78 80 77 74 55 75 85 71 88 90 94 94 100 100 92 82 76 78 77 75 65 74 91 67 68 82 71 63 76 96 94 92 95 98 96 92 89 91 95 97 96 95 94 94 96 92 89 88 90
76 68 64 79 76 74 79 61 56 56 71 74 89 94 97 98 100 100 100 100 76 83 74 67 75 86 84 73 69 74 58 65 92 92 99 96 100 100 100 95 92 91 90 91 93 93 94 93 93 92 89 90 88 86
64 59 76 77 77 68 72 62 77 87 73 75 100 100 100 100 100 100 100 87 76 82 94 62 84 77 66 68 62 59 92 92 96 98 96 99 100 100 100 98 94 92 92 91 92 91 91 90 90 88 88 85 79 83
49 51 76 76 65 60 73 71 72 70 88 99 99 100 100 100 100 100 97 83 79 69 64 66 61 65 85 69 82 96 92 96 98 95 92 98 100 100 100 99 98 95 94 95 90 90 91 90 81 73 66 62 61 62
69 66 80 78 70 55 73 67 60 80 99 98 100 92 92 98 90 93 90 80 62 55 72 62 77 72 92 95 96 95 98 96 93 89 89 95 96 97 97 97 97 96 96 95 91 84 76 67 60 54 53 51 58 62
73 73 78 76 61 48 62 64 50 65 81 86 79 81 85 89 84 99 95 72 66 72 68 69 93 100 97 98 96 96 89 86 85 90 88 86 89 93 91 87 85 92 90 91 92 83 66 59 51 52 55 56 70 72
57 58 64 50 49 54 64 66 68 65 63 75 69 73 82 78 84 90 88 68 77 71 77 87 98 100 85 85 73 74 80 81 78 86 84 90 85 82 83 84 80 79 79 81 83 81 73 66 60 59 75 81 82 78
56 72 57 48 55 54 65 66 64 60 69 70 70 71 84 94 94 91 69 76 71 92 92 86 76 76 78 76 71 70 71 71 70 74 81 81 83 84 82 84 78 83 81 84 78 82 75 62 64 70 79 88 84 90
60 54 56 50 74 75 79 61 65 59 80 75 68 75 84 81 83 63 79 66 90 85 72 69 70 70 77 72 72 68 64 60 64 70 75 79 79 92 84 83 83 88 87 81 73 77 78 66 75 83 88 93 91 88
63 76 93 82 71 87 77 75 54 60 67 66 66 72 76 80 71 75 73 71 90 68 71 71 64 70 72 72 67 70 68 70 82 88 77 77 84 85 84 83 86 86 85 79 80 80 80 83 80 89 91 93 89 90
67 86 88 79 71 72 73 74 74 62 73 70 73 74 81 74 79 75 71 88 89 95 90 80 71 72 84 94 89 79 74 67 80 87 85 78 83 80 84 87 92 94 96 95 94 94 91 88 93 94 92 89 90 94
79 86 73 72 71 66 65 68 70 70 72 75 76 75 78 80 79 72 66 93 87 89 92 93 96 80 73 73 84 77 71 67 73 82 69 70 78 90 91 89 90 93 84 94 95 94 94 95 95 92 95 95 94 92
68 78 64 57 58 57 74 76 67 73 72 70 73 79 75 74 69 78 80 85 86 91 80 86 86 87 86 86 82 76 76 75 78 73 75 79 83 93 91 90 88 81 85 96 96 92 93 94 95 95 96 96 93 91
68 74 80 81 75 68 76 70 72 73 75 58 67 75 75 72 90 86 86 84 85 78 79 79 77 85 89 89 87 87 88 85 87 83 82 84 86 90 88 90 86 84 92 96 97 93 94 95 95 94 94 94 95 84
78 80 72 83 81 76 79 78 77 70 73 74 84 80 79 81 87 87 82 79 85 83 86 89 94 87 91 87 89 89 90 90 89 91 92 93 90 95 92 90 91 93 95 96 97 95 94 93 93 93 90 90 90 86
78 78 74 77 85 74 96 94 97 93 79 83 84 68 67 92 91 83 82 85 85 91 95 95 94 92 92 91 93 92 94 96 96 95 91 92 91 93 93 92 94 95 93 92 93 94 92 92 90 89 90 90 89 88
73 82 76 76 75 93 96 90 88 88 89 90 93 92 88 95 95 87 88 89 89 88 89 90 89 90 88 91 92 89 94 93 92 89 89 90 92 94 94 94 94 92 93 92 93 93 92 91 89 87 85 86 86 86
84 84 87 81 90 91 90 88 84 86 86 90 87 91 88 89 91 92 89 90 92 92 91 92 95 95 95 96 95 95 89 95 95 92 87 92 95 93 93 93 93 92 92 92 90 88 84 84 87 87 86 84 83 84
86 85 84 80 79 78 89 86 80 82 88 86 91 92 92 92 93 92 85 86 90 92 92 93 93 94 95 95 94 94 93 96 96 95 93 92 91 92 94 94 92 88 85 86 85 84 82 82 84 84 85 85 85 85

GFSWCAN_sfc_rhum_123.txt.gz
RH
88 91 92 92 89 87 88 87 88 90 88 77 80 80 78 78 76 87 86 97 98 97 93 86 74 68 72 64 71 81 78 78 79 84 79 76 87 82 95 82 82 86 94 96 89 95 92 65 60 80 85 86 79 72
91 90 89 90 90 90 90 89 89 88 84 76 79 79 78 77 77 82 91 90 95 96 96 84 81 73 55 52 80 65 71 70 86 78 73 79 97 97 94 98 59 86 82 92 92 94 84 82 87 80 82 93 93 89
89 89 94 97 96 89 91 89 87 88 81 78 79 79 78 78 78 79 91 91 99 97 96 94 93 69 52 59 52 77 70 54 68 67 86 91 94 83 96 86 82 83 70 94 88 93 88 79 75 80 84 90 86 84
90 88 91 93 92 89 86 89 83 80 78 75 79 79 79 79 79 77 89 97 95 96 99 96 69 70 49 52 52 55 54 58 67 81 86 94 96 78 97 85 95 91 78 89 91 87 80 77 86 87 84 82 83 80
91 88 86 87 87 88 88 85 83 82 80 80 81 80 81 81 80 84 87 97 80 89 98 98 70 54 50 56 60 62 63 66 80 83 88 90 84 84 96 82 98 90 90 94 94 84 84 93 89 81 83 84 80 81
91 91 91 86 86 88 88 86 84 82 80 81 82 83 82 78 77 92 100 95 87 68 93 99 86 67 58 54 59 61 67 72 81 87 86 81 64 82 94 96 96 87 90 93 92 79 90 92 85 75 78 77 72 73
89 91 91 90 88 86 84 84 85 83 81 81 82 81 81 89 92 95 92 91 82 70 87 99 99 63 50 58 64 69 67 80 74 77 84 86 79 81 87 95 97 92 93 88 86 87 95 88 94 77 71 68 65 62
80 89 90 90 89 89 87 87 86 83 86 85 81 81 84 87 84 78 82 73 71 64 67 93 92 73 52 71 71 66 68 68 65 74 77 84 89 92 91 95 94 85 85 85 82 70 82 81 80 83 64 61 63 64
80 77 82 90 90 89 88 86 86 84 82 85 86 87 85 77 85 78 73 76 82 67 85 89 92 95 60 69 68 69 67 91 65 78 78 82 96 92 86 93 92 82 83 87 75 72 74 87 87 87 69 58 56 56
84 83 82 79 82 89 90 90 87 87 88 89 90 82 100 84 74 77 80 90 79 71 70 87 77 93 74 78 78 80 75 83 90 83 73 89 96 82 87 85 81 78 67 71 79 86 81 83 92 91 75 55 50 47
82 81 80 82 82 82 79 78 82 81 78 78 94 94 83 76 80 87 94 90 89 87 92 82 73 84 72 87 91 80 91 87 86 86 85 94 97 90 81 79 74 71 59 59 67 72 72 73 86 96 87 62 53 50
80 81 80 81 81 83 81 81 74 77 80 72 69 77 83 87 95 80 93 88 76 80 86 87 82 80 80 72 86 79 83 89 84 87 90 91 95 73 74 69 69 54 57 59 63 70 72 76 87 95 85 65 66 74
74 76 78 80 82 82 82 82 82 74 75 71 79 89 86 89 90 84 90 97 96 95 89 91 88 87 82 80 94 88 83 92 86 91 92 98 84 65 74 73 70 72 72 73 85 91 95 98 98 95 89 87 88 88
73 71 75 80 80 82 83 81 82 74 77 92 88 88 92 90 97 99 98 96 95 93 88 91 96 92 97 96 98 80 94 92 94 95 90 98 83 89 84 80 77 86 86 89 94 98 98 97 97 96 93 90 88 89
77 68 67 79 81 80 82 75 73 75 92 91 88 97 98 99 100 100 100 93 91 94 93 92 93 91 96 92 91 89 86 87 91 98 100 100 95 95 94 94 94 96 96 97 96 96 96 96 96 96 96 91 90 91
67 63 70 82 82 79 81 73 78 80 92 92 96 95 97 97 99 100 100 95 91 95 92 89 92 92 91 93 87 85 87 95 100 99 100 99 99 98 97 94 94 95 96 97 96 96 96 96 96 96 96 96 92 87
63 75 80 82 81 69 78 87 92 85 95 94 99 100 100 100 100 100 100 98 92 95 97 93 87 86 91 86 84 98 98 97 93 99 99 99 99 98 95 96 96 95 96 96 96 96 96 96 96 95 95 94 87 92
76 72 77 80 78 76 93 92 89 88 98 99 97 98 99 100 100 100 99 98 92 94 93 86 81 82 93 90 99 97 98 100 99 97 98 100 100 98 94 96 96 94 95 95 94 95 95 94 91 88 83 78 80 79
84 75 75 77 80 81 88 82 84 97 99 100 100 98 99 100 98 99 100 91 81 76 91 94 90 98 98 99 97 96 95 96 98 99 99 99 99 98 97 97 97 97 96 95 92 92 87 80 78 74 71 68 77 79
69 67 73 75 68 75 76 86 75 88 98 98 97 96 98 97 98 99 99 92 87 94 93 97 97 100 99 100 98 94 88 94 94 97 99 99 99 96 96 96 98 96 96 96 94 90 81 75 67 66 68 71 83 85
68 72 75 70 73 77 87 84 82 81 88 96 94 91 96 96 97 97 96 88 94 98 99 100 99 100 96 97 94 93 94 96 97 93 93 98 98 95 96 98 95 94 94 96 96 97 92 83 70 68 82 89 89 88
73 74 80 72 79 76 89 84 82 77 88 91 90 88 96 98 98 97 93 95 97 99 98 98 98 98 95 90 93 90 88 86 90 95 92 90 97 96 98 95 96 98 96 96 94 95 93 84 81 82 89 96 94 97
69 73 85 77 83 85 93 88 81 74 92 90 90 87 95 95 96 86 95 95 99 96 95 94 91 89 91 87 85 82 84 83 88 94 93 92 94 95 94 92 94 94 95 97 92 90 95 81 87 92 96 94 95 96
72 91 95 94 86 91 91 88 83 82 87 86 86 77 80 82 85 92 93 99 99 96 96 92 94 95 94 85 88 91 93 89 93 96 95 90 93 98 96 97 97 97 93 91 89 93 92 90 90 96 94 94 94 94
82 90 89 86 87 85 86 87 87 83 88 77 84 92 89 80 94 92 90 100 99 98 96 91 89 82 89 98 97 95 87 92 93 97 95 93 93 94 98 99 99 100 97 96 95 96 94 90 93 96 94 94 94 95
96 92 88 84 87 82 84 85 85 85 89 88 96 89 90 90 89 94 96 98 99 99 99 99 99 85 96 94 94 94 96 92 88 93 97 94 98 95 96 98 99 99 99 96 95 96 96 96 96 95 95 95 95 93
91 91 86 84 85 80 90 91 88 90 85 86 95 85 90 89 90 100 97 97 92 96 96 98 97 97 96 96 94 94 93 92 92 96 97 98 99 99 98 96 97 97 98 99 96 93 95 96 95 96 96 95 93 93
87 89 94 85 82 92 88 88 87 86 89 90 90 82 84 94 98 99 96 94 93 82 92 94 94 98 98 98 96 96 97 94 94 94 94 95 97 98 98 97 96 98 99 98 97 96 96 96 95 94 94 94 96 95
92 92 73 87 86 82 89 94 96 98 97 96 95 98 98 91 97 97 94 86 93 95 98 98 99 98 97 97 98 98 96 97 98 98 98 100 98 98 99 98 98 99 98 97 97 93 93 94 93 93 94 94 94 94
95 85 91 90 95 95 98 98 98 97 89 89 97 94 97 94 98 95 94 90 95 99 99 99 97 98 98 98 98 99 99 99 99 98 96 98 98 98 96 96 96 95 93 92 94 95 94 94 95 94 94 95 94 94
78 82 85 90 91 99 97 92 89 88 89 90 86 93 97 98 98 96 96 97 97 97 98 98 98 98 99 98 97 97 98 99 96 94 93 93 96 96 96 96 95 95 94 93 93 93 94 94 94 94 93 94 93 92
88 86 97 92 98 96 87 88 92 95 97 98 97 97 99 98 98 98 98 96 96 96 97 96 96 98 99 99 98 98 96 97 97 95 93 94 95 95 94 94 94 94 94 94 94 94 92 90 92 92 92 93 95 94
83 85 86 89 85 89 98 95 95 96 97 96 98 97 98 98 98 98 98 97 98 98 98 98 97 97 96 96 97 97 97 97 96 96 95 94 92 94 95 95 94 93 92 92 90 90 89 88 91 92 92 92 94 96

GFSWCAN_sfc_rhum_129.txt.gz
RH
89 85 81 78 77 74 72 73 76 77 77 78 77 76 78 79 78 86 83 89 90 100 95 93 70 80 85 80 92 87 88 88 88 84 85 86 93 84 84 76 88 80 92 93 90 95 86 68 73 80 78 91 88 87
93 93 92 89 84 80 79 76 73 77 78 77 77 76 77 78 79 81 92 94 88 95 98 94 94 90 74 63 82 86 79 92 94 88 93 90 92 96 82 93 75 94 83 89 80 77 80 80 84 85 86 90 88 86
92 92 90 90 91 91 86 80 78 77 77 77 78 77 77 78 79 81 94 92 94 98 91 91 94 85 91 95 79 77 87 74 86 80 94 92 89 92 96 82 95 94 79 91 82 84 88 83 89 88 88 88 88 85
89 90 92 92 90 88 91 89 80 79 77 76 77 78 78 79 77 80 83 91 88 98 100 96 77 91 80 86 84 67 63 72 79 90 97 99 98 85 95 90 92 94 90 94 91 87 82 83 86 90 94 91 90 86
88 91 93 96 91 87 86 88 89 81 78 76 76 78 78 78 78 84 96 93 90 94 98 98 86 74 79 78 73 70 62 74 86 96 99 99 91 92 96 92 99 97 92 92 91 79 79 86 91 91 94 95 90 86
87 91 95 95 89 88 84 86 90 88 80 78 78 78 79 79 79 93 100 94 87 92 100 99 94 85 75 76 70 73 76 84 86 90 89 84 74 80 94 94 82 90 93 85 89 86 88 96 94 90 92 91 84 81
87 90 89 91 90 86 83 87 90 88 80 78 79 79 80 80 94 90 94 93 94 91 99 99 99 89 78 81 90 90 87 93 89 88 86 84 82 83 96 93 82 97 95 91 91 89 97 94 96 91 88 84 76 72
86 86 90 90 90 90 90 90 90 84 80 80 80 80 81 82 76 89 97 87 93 97 96 98 98 99 87 99 98 88 92 91 89 92 88 85 91 95 91 83 97 93 93 94 93 83 88 91 92 90 80 77 79 80
84 87 88 87 88 88 88 88 89 84 80 78 78 81 85 92 91 96 84 82 93 97 98 98 98 99 92 94 82 83 78 96 79 89 85 79 97 92 82 80 96 95 93 92 90 92 94 92 92 86 82 80 80 80
84 83 83 82 82 83 84 85 85 83 81 82 85 92 100 89 87 87 98 100 100 99 96 92 93 99 88 88 83 85 85 83 88 89 84 93 95 82 85 84 86 90 87 88 98 95 90 91 88 90 89 86 85 90
85 85 85 82 82 81 82 81 79 76 72 85 99 98 98 85 94 98 100 99 100 99 92 92 89 89 75 89 94 82 91 88 80 85 90 96 94 92 90 89 90 90 87 82 85 86 86 85 85 94 98 96 96 93
83 84 84 84 83 81 79 76 72 84 96 89 89 87 96 94 98 96 98 95 86 89 96 92 85 81 88 77 84 83 81 86 86 92 90 92 90 90 90 87 89 87 85 85 81 87 90 87 82 94 95 95 96 96
89 85 80 79 75 71 72 80 81 78 72 80 83 84 89 90 90 85 98 96 96 96 95 94 90 92 86 79 92 86 82 89 86 92 90 92 92 90 88 87 85 82 80 82 86 89 91 95 96 95 97 96 96 96
80 82 85 87 88 87 85 85 84 81 77 89 87 92 88 94 96 97 97 94 94 95 86 84 97 93 97 96 97 87 92 91 97 99 90 96 91 90 88 86 83 87 90 89 92 95 94 93 98 97 93 95 95 96
75 78 80 86 83 84 84 82 82 82 92 93 86 99 98 96 98 99 99 98 98 94 90 90 92 89 95 92 92 87 93 96 94 93 95 97 98 90 91 92 92 95 100 95 96 96 98 97 96 97 96 96 95 95
75 72 78 86 83 80 77 77 81 82 94 93 96 98 98 91 98 98 98 94 96 97 92 88 90 91 93 93 90 88 90 93 90 100 99 100 98 95 95 94 95 96 99 99 98 98 97 97 96 96 96 96 96 95
73 80 80 80 77 78 79 81 92 93 88 91 100 100 100 100 100 100 98 98 96 91 95 91 87 84 92 95 96 91 94 97 98 99 98 98 98 97 96 96 97 98 98 98 98 97 98 97 96 95 96 97 96 96
84 84 82 73 74 75 90 91 93 93 96 99 99 99 99 100 99 98 99 98 88 95 92 83 88 84 94 94 94 98 100 99 97 96 99 99 98 97 96 97 97 97 98 99 97 98 96 96 95 95 94 94 93 93
85 81 81 75 73 83 85 85 91 95 99 100 99 99 98 98 99 99 97 92 90 88 93 96 93 90 98 97 96 100 98 98 98 99 99 99 97 98 97 97 97 98 98 98 96 96 94 92 90 91 92 91 92 93
76 72 79 78 71 79 76 87 86 93 98 99 97 96 98 98 98 98 93 95 93 96 94 95 99 100 98 99 98 96 96 94 94 98 99 99 99 98 97 94 94 96 97 97 96 95 95 93 86 90 93 92 94 95
68 74 78 79 87 86 93 92 93 94 96 95 94 95 98 97 97 96 96 96 95 99 98 99 99 100 96 96 94 94 95 94 97 96 96 99 99 97 98 97 94 94 98 98 97 98 98 95 91 84 92 96 96 92
83 77 83 79 84 82 87 92 93 92 91 96 94 93 98 99 99 96 96 96 98 99 99 99 100 98 93 94 94 92 90 89 92 93 97 96 99 99 98 98 96 98 98 98 97 97 98 97 91 89 94 96 92 93
77 78 87 76 78 80 84 90 85 84 90 94 94 90 95 96 94 91 99 98 99 99 99 97 93 88 89 89 92 94 90 89 95 91 96 96 96 98 98 98 96 97 97 98 98 97 97 97 96 95 96 94 95 95
72 83 90 93 83 93 87 91 89 87 94 94 84 90 85 96 91 96 99 97 99 97 94 94 94 96 95 87 89 91 93 90 95 98 98 97 98 99 98 97 97 96 94 93 97 98 98 97 96 96 95 94 94 94
84 85 84 87 86 85 91 93 91 86 95 93 97 95 97 91 95 98 96 98 98 98 97 94 92 94 96 98 95 94 91 92 93 98 99 96 99 99 99 99 99 99 96 97 100 98 98 96 95 96 95 95 96 96
98 93 88 96 95 92 93 98 96 96 97 99 99 97 94 96 96 97 94 99 98 99 99 99 99 96 96 95 96 96 96 96 92 98 97 97 99 98 98 98 99 98 99 97 95 96 96 95 95 96 97 95 94 94
92 97 89 88 94 84 93 96 90 92 95 97 98 96 94 99 94 97 98 98 98 99 98 99 99 98 96 96 96 96 96 96 95 96 96 96 97 98 98 98 98 97 99 97 96 93 93 95 95 94 95 95 94 93
98 95 92 92 93 94 97 98 97 100 98 94 88 94 96 95 97 98 98 99 99 98 98 98 97 97 97 98 99 97 97 97 95 94 96 96 98 99 98 100 100 100 100 98 97 97 94 94 95 94 94 94 96 96
98 98 91 94 96 99 100 98 98 98 96 96 98 98 99 96 98 98 98 99 99 98 98 99 99 98 99 99 99 98 97 97 95 98 100 100 100 99 98 98 97 98 98 98 97 96 95 95 95 94 94 94 95 95
98 96 96 100 99 99 99 98 98 94 95 96 98 98 96 98 98 96 96 96 97 98 98 98 98 98 98 99 99 99 99 99 98 96 99 99 96 99 98 99 99 97 96 94 94 95 95 94 95 95 94 95 95 95
93 96 94 98 95 98 98 98 97 97 93 89 83 94 97 99 98 97 98 98 98 98 98 97 98 98 98 98 98 98 98 98 98 98 98 97 98 98 98 97 97 96 95 95 94 94 94 95 94 94 95 96 96 95
99 95 99 99 98 96 97 95 85 85 98 99 98 99 98 98 98 98 98 98 97 98 98 98 98 97 97 98 98 98 96 98 98 97 96 96 97 97 96 96 96 95 94 94 94 95 94 93 95 95 96 96 96 94
87 86 94 95 93 92 99 92 97 98 98 100 100 99 98 97 96 97 98 99 98 99 99 98 98 98 97 97 98 98 96 97 96 96 96 95 95 95 96 95 95 94 94 94 95 94 94 94 96 95 94 94 94 94

GFSWCAN_sfc_rhum_132.txt.gz
RH
81 77 74 76 76 75 77 78 77 78 80 83 81 85 86 85 85 88 95 90 90 100 97 89 84 82 84 78 92 85 85 87 91 91 92 94 90 84 81 75 83 82 86 96 82 94 88 70 74 75 75 91 89 89
94 88 82 79 79 78 77 78 78 79 81 83 80 85 83 78 75 82 96 92 93 94 96 86 87 85 94 71 70 91 78 89 92 94 96 91 95 96 83 92 80 85 77 88 75 77 72 75 75 81 84 86 88 89
90 93 94 88 83 81 77 76 77 77 82 84 84 80 78 78 78 79 97 96 93 94 94 84 80 85 90 96 88 82 89 79 85 82 94 93 96 89 92 90 90 89 80 89 78 76 78 75 85 85 86 84 87 87
89 92 92 93 91 84 80 75 75 76 78 80 83 80 77 78 78 78 96 96 90 94 97 87 73 85 63 77 96 85 69 78 83 91 95 97 96 88 95 88 92 92 87 88 91 86 77 81 85 86 90 89 90 89
90 91 91 91 92 90 82 77 75 74 77 78 78 77 77 77 77 84 96 94 90 92 97 89 85 77 75 92 94 84 77 77 90 97 95 96 95 95 98 99 93 93 92 95 91 80 78 87 91 88 92 94 91 88
91 90 92 89 90 91 86 78 76 75 77 78 79 78 77 77 77 97 100 96 85 94 99 99 95 91 86 88 86 81 75 90 92 98 98 94 93 94 99 98 82 90 89 81 85 83 87 97 94 90 89 93 89 85
94 96 94 88 88 91 89 80 78 76 78 78 79 78 78 78 91 99 93 95 81 95 98 98 99 94 86 88 95 94 94 96 95 97 96 91 90 89 97 95 82 96 94 90 88 86 94 94 97 91 88 87 83 82
90 93 88 87 88 90 90 82 79 79 79 79 78 79 80 80 93 96 98 80 81 97 98 99 97 100 88 99 99 94 98 97 95 96 91 85 94 97 91 84 93 95 93 93 93 87 86 91 94 93 88 82 81 81
88 89 89 89 89 89 88 84 81 80 79 79 79 79 88 96 100 96 84 86 97 96 99 98 97 97 96 96 96 98 97 99 98 99 96 84 98 92 81 76 91 95 92 92 91 93 94 93 96 94 88 83 82 81
90 90 87 87 88 87 89 89 88 80 79 80 86 95 100 97 87 91 99 99 99 99 100 99 95 98 97 97 99 98 99 98 98 93 88 94 93 77 76 76 78 90 90 90 96 95 94 97 95 94 86 84 82 82
88 89 90 90 90 90 89 85 80 80 80 94 99 99 97 85 96 100 99 98 99 99 98 94 94 98 89 96 98 90 94 88 83 84 94 94 93 86 92 90 90 92 90 87 84 85 86 88 92 91 93 91 92 91
82 84 86 84 82 80 80 80 78 78 92 91 87 86 91 97 100 99 98 99 98 93 96 94 93 88 90 81 98 89 83 88 87 91 92 93 88 92 91 92 93 92 89 86 83 88 89 88 86 92 93 96 94 93
80 80 82 82 82 81 80 75 75 82 71 80 90 99 98 98 96 94 98 98 98 98 96 96 95 92 88 83 94 87 84 92 85 94 91 92 89 94 90 91 92 88 87 88 88 90 91 94 94 93 97 95 94 96
77 75 75 73 71 73 85 81 77 80 78 86 86 95 88 94 92 93 96 95 94 96 93 96 99 94 98 92 96 86 94 90 96 98 89 96 93 94 90 88 87 88 90 88 91 95 96 90 98 95 93 94 94 95
87 87 86 87 89 87 84 82 82 84 91 93 87 100 98 94 97 98 99 98 98 95 90 92 93 91 94 91 89 89 95 98 96 93 97 94 99 92 91 91 92 95 99 100 98 96 92 97 97 98 97 96 95 95
77 74 82 86 89 82 82 84 83 85 96 95 94 97 98 98 99 99 98 98 97 97 91 86 88 91 95 91 88 88 91 94 90 99 96 99 99 97 94 94 95 98 98 95 94 94 97 97 97 98 97 96 96 95
72 78 79 80 76 77 78 83 94 91 95 94 99 99 100 99 100 98 100 99 97 92 95 90 84 79 91 95 96 92 92 95 96 99 99 98 97 96 95 95 97 98 100 99 98 97 98 97 96 96 96 98 96 96
85 84 81 73 70 72 92 93 93 92 97 99 99 99 99 100 99 99 99 98 88 93 91 84 88 85 95 93 95 94 99 100 99 99 99 99 97 96 95 96 97 97 99 98 97 99 98 97 97 98 95 94 94 94
83 87 82 76 71 80 84 87 90 95 99 99 99 99 99 99 99 98 99 95 91 91 92 95 91 90 92 90 91 99 99 98 98 99 99 99 97 97 98 97 96 97 98 99 97 98 98 93 93 93 92 90 92 94
72 76 81 78 69 78 76 90 86 92 97 99 99 98 99 100 99 98 97 96 94 95 95 97 98 99 99 98 99 96 96 95 95 98 99 99 99 97 97 94 94 94 98 98 98 98 98 98 95 94 94 93 94 96
69 77 75 78 86 86 91 93 91 96 95 96 95 94 96 94 94 95 95 93 95 95 98 99 99 100 96 97 94 93 95 93 93 92 94 99 99 97 97 96 93 93 97 99 99 99 99 98 97 94 96 97 97 96
87 73 81 76 82 81 86 91 92 90 90 94 92 91 97 97 98 96 96 95 97 99 99 99 98 98 94 94 95 92 87 90 92 94 97 96 98 98 98 98 96 98 98 98 98 98 98 98 96 96 97 97 96 96
75 75 85 74 77 79 86 92 89 86 89 95 92 87 95 97 94 91 96 96 99 99 98 96 92 90 92 91 91 91 88 88 94 94 97 96 96 98 98 98 96 97 97 99 99 98 98 97 97 98 97 97 96 96
68 81 90 93 84 93 88 93 89 92 94 92 91 92 89 96 92 96 94 98 99 98 98 94 91 90 89 86 91 94 94 92 95 98 98 96 97 99 98 98 98 97 95 96 97 98 98 98 97 96 96 96 95 95
82 88 84 89 87 86 92 94 92 88 99 98 96 87 96 92 91 99 98 99 98 99 98 96 93 93 95 97 97 97 94 94 94 98 99 98 99 99 99 99 99 99 96 99 100 100 98 97 97 96 96 94 95 95
98 93 89 97 96 93 93 99 98 98 99 99 99 96 93 94 98 99 94 99 98 99 99 99 99 97 96 94 96 96 97 95 93 97 97 95 98 99 98 98 99 98 99 98 97 98 98 96 96 96 97 96 95 95
93 96 90 89 97 85 94 96 91 95 99 98 98 98 95 98 88 98 98 98 99 99 98 99 98 97 96 96 96 96 96 96 95 95 96 95 95 96 98 98 98 98 99 97 96 94 94 95 96 96 96 96 94 93
98 96 98 96 95 95 99 99 100 100 96 89 90 97 98 95 95 98 98 99 99 98 98 98 97 96 96 97 98 97 97 98 96 94 96 96 97 99 99 99 100 98 98 98 97 96 94 93 94 95 94 95 96 96
98 97 92 96 98 100 100 99 99 98 96 96 98 94 97 95 98 98 98 98 99 98 98 98 99 99 99 99 99 98 98 97 93 98 100 99 100 98 99 98 98 98 98 98 98 97 96 96 95 95 94 94 95 95
99 96 98 100 97 99 98 98 98 98 97 98 98 97 96 97 98 96 96 96 97 98 98 98 98 98 99 99 99 100 100 99 97 96 99 100 96 99 97 99 98 97 96 95 95 95 95 94 95 95 95 95 95 95
94 96 97 97 95 99 98 98 98 98 96 91 93 96 96 98 98 96 97 97 97 98 98 98 98 98 98 98 98 100 99 98 98 97 97 98 98 99 98 98 97 96 96 95 95 95 94 95 95 95 95 95 96 95
100 99 100 100 99 98 96 94 90 85 100 100 99 99 99 98 99 99 99 99 98 100 99 99 99 98 97 98 98 98 97 98 98 98 96 96 97 97 97 97 96 95 95 95 95 95 94 94 95 95 95 96 96 97
96 87 95 97 96 97 99 97 99 97 99 100 100 99 98 97 96 97 98 99 99 99 100 99 98 98 97 97 98 98 97 97 97 95 95 96 95 95 96 96 95 94 93 94 95 94 94 94 95 96 96 97 96 95

GFSWCAN_sfc_rhum_135.txt.gz
RH
77 76 76 74 72 71 73 73 74 77 78 81 82 83 83 82 83 93 98 91 90 96 95 87 90 78 78 74 81 79 79 82 83 85 76 79 86 75 68 60 70 69 80 78 66 90 80 60 64 62 67 76 73 77
90 83 77 78 75 74 75 76 76 78 78 79 83 81 80 81 85 89 99 92 90 93 97 86 86 84 81 92 73 84 73 80 81 77 81 82 83 80 70 74 66 69 64 70 65 63 62 63 63 66 67 70 77 75
91 92 89 81 78 77 76 78 79 79 79 81 82 82 83 81 86 92 96 96 94 95 88 84 78 74 90 91 85 78 82 76 78 73 89 82 82 68 81 72 74 74 67 71 68 74 65 61 64 68 70 75 72 71
88 92 92 91 84 78 77 77 79 78 78 80 81 83 84 82 90 86 93 95 92 93 94 80 69 73 71 84 78 83 77 75 80 82 85 90 85 72 84 70 74 79 75 73 78 78 70 68 73 72 79 77 78 79
88 89 90 93 88 79 78 77 79 78 80 81 89 82 82 86 89 91 96 93 87 85 91 85 82 78 73 86 86 92 89 78 84 91 91 87 82 88 87 91 91 83 92 88 81 75 70 88 76 77 81 84 77 76
91 88 91 92 90 80 79 77 77 78 83 82 82 90 87 85 87 94 100 94 90 91 96 96 88 86 79 84 88 94 93 91 89 94 87 80 74 84 98 94 80 80 87 80 75 71 77 82 83 79 76 78 76 73
91 90 89 92 91 84 82 78 76 78 81 83 83 82 79 78 91 98 93 92 85 89 94 90 90 90 83 86 92 90 90 97 97 98 98 95 85 90 99 90 77 92 93 80 76 74 80 84 76 78 74 75 76 70
90 89 90 91 90 83 82 77 76 78 79 81 80 79 78 76 79 93 96 84 81 94 93 96 88 98 90 99 100 97 97 96 98 98 98 93 90 97 96 84 80 84 87 84 81 72 73 76 77 78 73 73 74 73
89 90 91 89 84 84 79 78 78 78 79 80 80 79 85 95 100 96 84 79 96 91 93 92 93 95 94 99 99 99 96 99 99 99 94 81 93 94 86 75 77 88 84 82 79 78 79 76 78 80 75 74 73 73
90 89 89 87 82 80 78 79 79 80 81 81 85 95 100 98 87 90 94 97 95 98 98 97 86 96 96 100 99 98 99 92 94 95 86 92 86 71 68 64 63 76 76 79 84 88 83 83 82 84 81 73 72 69
89 90 86 81 81 80 79 80 81 81 79 92 100 100 97 89 99 100 99 97 97 99 94 93 90 99 92 95 98 95 96 90 89 88 93 91 90 75 82 80 78 77 77 72 68 68 70 71 78 85 85 81 80 76
86 87 87 85 83 80 80 81 80 79 93 89 90 86 91 96 99 98 97 97 96 90 97 96 96 93 97 97 99 88 81 85 83 85 92 92 81 86 82 83 85 79 76 74 70 73 75 75 78 82 84 86 88 89
87 87 87 86 81 80 81 77 70 83 77 84 90 94 96 98 98 97 98 98 98 93 93 99 99 98 98 96 95 92 84 86 81 93 88 85 81 86 83 84 86 79 78 76 78 79 79 85 88 92 95 96 96 96
78 74 76 80 79 75 70 76 82 73 86 91 90 100 93 97 93 92 91 92 89 92 93 92 96 91 92 84 90 80 89 84 95 97 86 83 90 88 87 85 82 87 90 88 90 92 96 94 96 95 96 95 95 96
78 76 74 70 69 79 81 85 82 82 88 90 83 98 96 89 93 94 97 96 95 92 85 88 88 85 89 87 84 89 95 96 90 83 86 92 95 88 90 90 92 94 97 98 96 97 90 96 96 97 96 96 95 95
78 80 91 91 90 81 86 81 83 84 90 92 90 97 98 96 99 91 95 97 94 91 85 80 81 89 89 85 82 85 83 84 82 94 95 96 95 94 93 93 94 96 95 95 93 93 95 96 96 95 96 96 96 94
71 80 82 82 84 82 80 81 94 92 94 94 98 99 100 97 99 99 99 95 93 87 90 81 80 76 84 90 86 81 87 89 95 97 98 97 95 96 95 96 97 99 98 97 96 96 96 95 96 95 95 94 93 93
82 84 81 76 81 78 95 94 93 91 92 98 97 99 98 99 98 99 98 95 87 86 82 79 82 80 89 89 93 94 96 98 96 98 98 96 95 95 94 95 96 96 99 97 95 95 96 96 92 88 89 89 89 89
87 86 81 74 73 79 86 89 89 95 99 99 98 98 98 99 99 97 97 92 87 85 87 85 85 88 90 94 96 98 98 95 95 96 98 98 96 96 97 96 96 96 97 96 91 87 85 84 81 81 82 80 83 85
72 78 78 77 68 75 76 87 84 88 95 98 97 97 97 98 98 98 96 92 92 88 91 93 94 98 97 98 95 94 93 92 91 96 97 96 95 95 96 92 91 91 90 90 89 91 88 88 84 83 82 82 88 90
68 74 72 75 83 84 88 89 88 92 92 92 97 91 97 95 96 96 96 89 91 92 92 96 98 99 96 94 92 87 86 82 87 87 90 96 96 92 93 92 89 89 88 90 91 91 92 87 86 85 92 95 93 91
85 69 78 74 78 77 83 85 87 85 85 88 87 84 92 95 94 94 91 92 94 97 96 96 96 94 92 94 91 86 86 87 88 92 95 94 95 95 95 94 93 95 93 93 90 93 91 86 88 90 94 96 91 90
71 72 81 72 76 78 85 86 88 80 85 90 86 83 91 92 89 85 95 92 97 97 96 91 92 91 93 91 88 86 83 81 86 90 95 93 92 95 94 95 95 95 95 91 88 90 92 91 93 94 93 93 93 94
66 80 89 91 83 92 86 92 85 89 90 86 88 90 88 94 89 92 90 93 96 96 93 93 89 94 93 89 91 92 92 87 93 96 93 89 91 92 90 91 92 90 88 85 90 92 92 95 93 92 93 94 93 93
80 88 85 92 86 87 93 94 94 89 99 96 90 91 93 89 93 98 97 96 96 97 97 96 90 88 94 96 95 94 93 90 92 93 96 93 94 93 93 92 92 90 89 97 99 97 96 95 95 94 92 92 91 91
96 94 93 98 97 91 92 98 98 98 99 99 97 91 91 92 98 98 94 97 95 97 98 98 96 95 94 90 91 92 94 91 88 92 92 90 92 95 95 95 95 95 93 94 96 97 96 94 94 94 94 92 91 92
93 96 92 85 93 83 93 94 88 95 99 98 98 97 95 95 89 95 95 95 95 97 96 96 95 92 93 93 92 92 93 92 91 89 90 90 90 91 94 95 94 93 95 95 95 93 94 95 94 93 93 93 92 90
98 96 99 98 94 93 98 98 100 99 89 87 88 98 99 90 95 96 96 97 96 95 96 96 94 92 93 93 94 95 96 96 96 93 87 85 89 94 95 95 98 94 96 95 95 95 94 92 93 93 93 94 94 93
98 96 91 100 100 98 99 98 98 95 94 95 93 87 92 95 95 96 95 95 98 97 97 97 98 98 98 97 96 96 96 96 93 95 94 96 95 94 95 95 96 95 95 95 96 95 95 94 94 93 92 93 93 93
99 96 98 100 100 93 97 98 97 97 97 96 95 94 91 95 96 94 94 96 97 98 97 97 97 97 97 97 97 98 99 97 94 94 98 99 96 94 95 96 96 95 95 95 95 95 95 94 95 95 94 94 93 93
94 97 97 98 93 98 98 98 98 96 96 96 96 95 94 95 95 94 94 95 96 96 97 96 96 96 97 98 97 99 99 97 98 96 96 96 97 97 96 96 95 94 94 94 94 94 94 94 94 94 93 93 94 93
100 100 98 98 96 97 95 96 94 87 98 98 96 100 97 97 98 96 97 97 97 98 100 98 97 96 96 96 96 96 97 97 96 96 95 95 96 96 95 94 94 94 94 94 94 94 93 93 93 93 94 94 94 94
97 95 94 98 97 96 97 96 97 97 98 98 97 97 97 96 95 96 96 97 97 97 98 97 96 96 95 95 95 96 94 95 95 95 95 94 94 94 95 94 94 93 93 93 94 93 93 92 94 93 94 94 94 94

GFSWCAN_sfc_rhum_138.txt.gz
RH
82 79 77 74 72 72 73 73 72 71 74 78 79 80 80 80 79 89 89 90 96 82 71 59 50 54 52 49 53 52 63 60 64 63 51 45 54 54 51 40 55 59 73 74 64 92 68 30 45 53 41 51 50 56
92 85 78 77 74 74 73 74 74 73 74 81 81 82 82 82 85 78 93 89 94 89 81 69 70 69 55 38 41 55 44 44 50 46 37 40 55 52 50 61 41 58 48 53 49 47 46 43 38 43 44 44 57 57
91 91 85 77 76 74 74 76 75 77 77 83 84 82 81 83 82 77 94 94 87 97 76 68 69 64 69 73 65 58 52 47 54 42 58 55 60 41 62 52 46 48 39 56 51 47 42 43 38 42 46 52 52 52
91 92 91 80 78 76 74 77 77 78 81 82 83 83 84 83 82 86 98 89 75 74 93 68 51 57 63 73 73 66 67 61 62 58 57 64 65 46 62 47 49 55 49 51 52 61 46 48 49 46 49 56 60 60
88 90 92 87 78 78 75 78 78 79 80 79 80 82 84 84 82 92 94 84 63 55 71 60 63 57 61 60 69 64 72 72 67 71 69 66 49 66 74 67 62 56 84 72 73 47 51 55 65 58 62 64 60 62
88 90 92 91 84 79 77 79 79 79 79 79 79 83 85 83 88 98 100 95 72 57 80 84 64 64 71 68 73 85 87 92 82 81 63 57 58 63 91 78 49 48 59 67 56 53 58 66 61 58 58 60 58 58
88 89 92 91 89 79 78 79 78 80 82 84 82 84 86 93 95 96 82 78 68 51 59 64 64 68 60 64 67 74 86 98 95 92 92 75 66 70 91 79 63 83 87 66 57 57 68 66 62 60 58 58 62 54
88 90 91 92 87 78 80 79 80 82 83 84 87 92 93 86 85 82 82 74 57 60 65 74 64 89 70 73 78 75 88 97 98 98 97 83 74 96 100 91 63 52 60 64 63 56 57 56 56 57 55 56 60 57
93 93 92 87 79 80 80 81 82 82 94 92 92 85 80 71 81 85 84 73 65 64 76 75 68 89 92 86 89 98 98 100 98 99 97 91 95 91 86 62 60 57 61 58 62 59 59 59 57 59 58 59 58 58
92 88 83 79 80 80 80 80 81 84 91 89 79 81 100 80 82 81 92 99 79 75 86 72 56 80 88 100 97 97 98 98 89 95 83 82 71 51 45 48 44 48 52 59 69 70 65 62 61 62 64 59 59 58
86 84 81 79 79 79 78 80 83 90 76 68 96 99 88 84 93 99 99 83 76 86 73 72 66 81 72 90 89 97 94 84 77 84 87 78 73 57 50 49 49 50 56 56 51 52 51 53 56 66 75 72 70 66
82 81 80 79 79 79 81 81 79 62 63 73 77 77 83 96 93 89 84 76 76 63 69 71 74 69 88 88 86 95 90 77 80 77 96 80 64 63 63 64 66 61 59 57 53 54 58 58 60 66 71 74 77 82
80 80 80 80 80 80 78 74 70 78 69 59 60 82 73 94 94 89 93 79 83 86 85 86 97 93 98 95 99 97 91 84 66 96 72 66 66 67 68 68 69 62 62 60 62 62 63 69 74 87 93 99 96 94
80 81 81 79 79 78 72 84 82 70 63 75 85 97 86 94 85 80 78 83 84 82 88 80 96 99 99 93 97 99 88 71 87 87 70 74 76 78 75 71 69 74 91 84 88 95 99 98 100 100 99 94 94 95
81 82 81 79 74 75 81 80 78 67 74 80 69 73 90 83 87 95 97 92 88 78 82 84 88 94 84 98 73 80 96 85 71 66 83 87 79 83 90 90 100 100 99 100 100 98 97 100 98 99 96 94 93 92
77 74 72 82 85 86 79 75 68 64 78 79 80 94 96 97 99 100 100 99 82 82 69 61 78 93 90 74 76 79 65 62 77 94 91 94 100 100 100 100 100 100 100 100 100 96 100 97 94 98 95 93 92 90
72 65 82 86 86 87 84 70 76 84 82 84 96 100 100 99 100 100 99 86 75 78 93 60 86 71 72 74 67 64 84 93 94 98 96 99 100 100 100 100 100 100 99 97 95 98 96 94 94 94 94 95 90 89
65 71 81 84 78 75 83 84 79 78 87 92 96 100 100 100 100 100 96 83 77 67 63 66 64 74 87 74 78 90 95 96 96 97 96 98 100 100 100 99 100 100 98 98 95 94 92 92 87 82 83 82 80 81
70 70 77 81 72 64 76 78 75 83 96 97 99 96 98 100 95 89 89 83 69 61 69 68 80 77 85 83 96 100 100 94 95 95 96 100 100 100 99 96 96 99 94 95 86 77 74 74 70 68 69 70 73 74
74 76 76 76 70 61 65 72 69 74 83 91 94 93 90 96 99 100 96 82 70 70 77 82 85 90 88 90 86 86 88 86 84 87 92 93 91 93 95 88 84 87 83 83 79 78 72 71 67 68 71 71 80 84
62 62 68 64 64 63 68 71 71 74 74 84 96 93 93 96 97 99 99 85 83 79 84 84 91 96 87 85 79 77 76 70 78 76 79 90 90 84 86 85 82 80 78 78 82 81 84 76 72 72 88 88 88 87
62 63 64 60 61 63 68 67 69 66 67 74 84 74 90 100 99 96 89 88 90 93 86 83 84 84 83 80 76 71 75 78 79 82 89 87 90 88 88 86 85 89 87 90 82 90 85 74 77 80 87 90 84 85
60 61 62 56 72 76 79 67 74 63 77 78 72 77 89 92 84 74 87 82 91 91 79 77 81 79 85 83 80 77 73 71 74 81 86 82 82 93 86 86 87 93 90 83 76 82 86 79 85 89 88 88 90 91
61 69 82 80 72 84 78 81 71 73 75 73 72 81 84 89 76 79 84 79 88 88 81 88 84 89 86 78 75 78 76 71 75 86 82 78 79 81 79 80 83 83 80 75 81 85 86 92 86 87 90 90 91 90
69 87 80 83 74 77 82 84 85 78 90 84 82 82 89 81 90 85 81 85 88 95 92 88 81 80 88 90 87 86 86 76 77 77 92 76 79 76 78 73 75 75 79 94 94 93 91 90 91 90 89 90 89 89
91 90 85 89 88 81 80 88 89 90 88 91 85 82 86 89 92 87 75 89 90 98 100 100 96 84 80 73 81 82 81 80 78 84 78 76 80 94 94 90 87 90 83 92 99 96 92 89 89 89 90 90 88 88
85 90 82 74 80 72 85 85 78 85 88 86 87 91 88 89 87 80 85 87 87 96 88 90 83 78 79 83 82 81 80 82 84 77 77 76 76 80 90 96 94 91 90 93 97 98 95 91 89 89 89 90 89 89
86 85 93 91 86 83 91 90 91 88 84 77 80 92 89 81 80 84 83 89 92 88 88 87 82 79 84 84 84 88 91 90 92 86 80 79 82 88 91 93 92 90 92 97 99 98 96 91 88 88 90 91 92 88
88 89 82 98 92 86 86 88 85 80 80 84 86 82 80 80 89 89 89 86 88 89 95 94 96 96 94 91 92 93 92 92 93 91 90 89 93 91 90 93 92 95 92 93 92 95 97 94 92 91 90 90 90 90
92 89 89 94 93 83 89 90 92 93 84 87 82 78 76 88 92 86 89 92 92 94 95 96 95 95 94 93 93 96 98 96 93 90 90 91 93 92 91 91 91 94 94 94 93 94 94 93 94 93 92 92 92 92
82 93 91 85 85 87 92 93 94 90 92 93 94 93 87 92 92 86 88 91 93 94 94 94 95 96 92 92 92 92 93 96 93 93 93 96 95 92 93 92 92 91 91 92 93 93 93 93 92 92 91 91 91 90
93 92 93 92 88 93 93 91 87 88 90 91 86 94 94 94 93 90 90 94 94 94 94 95 93 93 92 94 94 94 94 95 94 92 92 92 92 92 90 89 90 90 91 91 92 92 92 91 92 91 92 91 91 91
91 91 87 88 88 87 93 94 88 90 93 91 91 92 90 89 88 91 89 92 91 90 92 92 93 92 91 88 88 92 88 92 90 90 90 90 90 90 91 91 90 90 89 90 91 91 90 90 90 91 91 91 91 91

GFSWCAN_sfc_rhum_141.txt.gz
RH
83 86 82 80 77 74 74 73 73 74 73 76 79 89 90 92 89 88 95 78 80 83 72 52 37 47 37 36 67 63 79 79 69 77 66 47 43 39 38 30 45 52 61 61 51 54 49 23 35 52 37 40 36 37
88 89 82 79 77 75 74 74 76 75 73 78 78 88 89 92 86 77 94 83 83 87 97 54 53 53 54 45 43 46 59 45 57 48 36 31 44 42 41 60 27 51 40 43 38 40 32 28 34 37 34 36 38 38
87 92 85 80 78 76 74 76 76 75 73 74 76 84 85 88 84 65 82 80 95 92 79 64 60 54 49 49 54 61 51 38 38 35 48 38 49 33 60 49 42 34 26 45 43 40 32 36 31 28 29 38 35 38
88 91 89 80 78 75 75 77 76 76 76 77 77 78 76 79 82 69 62 60 74 58 95 76 45 56 55 58 57 57 58 47 52 42 45 53 58 32 58 41 45 46 39 42 44 55 33 30 33 36 33 36 43 43
85 91 89 81 78 76 76 77 78 78 77 75 78 74 76 82 78 73 72 61 61 57 71 66 49 44 51 54 60 57 59 61 59 68 60 52 34 47 56 49 54 34 58 68 70 41 47 45 45 46 46 48 43 48
86 92 90 80 77 76 76 78 78 80 81 82 78 78 83 86 81 92 100 95 74 54 74 82 39 46 50 50 53 59 67 68 73 70 64 45 36 53 74 64 43 35 40 48 52 38 37 50 51 44 43 44 45 48
90 92 89 80 78 76 77 79 80 81 83 82 82 86 87 84 80 77 64 61 78 52 55 69 64 46 47 52 58 71 83 82 81 76 68 56 52 61 76 77 43 45 45 42 38 44 56 53 52 47 45 45 51 44
91 90 82 78 77 78 79 80 79 79 79 80 83 87 90 82 84 79 62 75 73 52 45 59 67 76 55 78 87 81 89 81 96 97 93 62 58 68 87 67 48 39 36 41 44 43 44 45 44 46 44 46 50 49
91 86 81 79 79 80 80 81 80 83 82 86 90 87 93 97 99 86 74 72 83 70 62 52 59 79 65 69 73 80 85 100 87 100 83 78 73 79 75 57 48 43 44 47 43 43 45 51 47 48 47 49 49 47
87 82 80 80 80 80 80 84 83 82 83 90 90 98 100 97 82 74 83 96 76 64 57 57 35 73 70 88 81 88 100 98 98 88 92 86 72 47 38 38 36 38 40 38 52 58 54 55 52 51 52 48 47 46
80 81 81 80 81 86 86 88 89 89 88 94 98 99 94 78 79 81 97 77 67 72 49 48 42 71 63 86 85 83 88 94 80 85 73 64 61 49 36 35 35 35 37 40 38 42 45 45 47 53 60 60 61 59
81 80 80 79 84 87 90 92 90 72 60 64 73 72 75 79 80 84 73 60 53 46 48 54 48 49 70 70 81 98 98 85 90 72 79 68 52 46 47 44 46 44 44 45 45 47 50 49 50 56 63 66 68 81
80 79 80 81 84 87 87 84 79 72 58 50 44 66 66 81 89 87 85 67 72 54 59 60 84 76 90 88 81 98 99 86 60 97 72 54 59 54 57 56 58 52 53 52 53 57 58 65 77 79 92 100 100 94
81 81 81 82 84 82 82 82 76 72 59 57 64 96 81 94 72 62 69 70 66 68 67 62 85 79 87 80 96 100 87 64 88 90 62 62 63 69 68 66 62 67 91 76 80 93 100 100 100 100 98 94 92 92
81 80 79 77 77 80 81 77 81 70 67 68 63 84 86 78 82 92 90 87 77 77 73 72 72 75 82 94 77 89 91 84 65 61 84 82 72 75 80 79 100 100 100 100 100 100 100 100 98 100 96 93 92 89
79 73 63 82 83 82 81 71 62 53 64 74 80 94 92 97 100 100 100 100 80 79 74 66 80 98 96 81 77 81 60 60 73 95 95 92 97 98 98 97 100 100 100 100 100 100 100 100 99 100 92 91 89 87
71 52 79 82 88 82 78 61 66 77 77 78 100 100 100 100 100 100 98 88 70 87 96 78 98 87 66 69 59 53 78 93 97 93 88 96 100 100 100 100 100 100 97 100 100 100 100 100 96 93 91 90 86 84
52 62 78 86 79 76 80 70 74 74 78 84 92 100 99 100 100 100 93 91 84 72 62 58 54 61 86 67 61 86 88 99 99 96 96 96 100 100 99 100 100 100 94 94 92 95 94 93 86 83 84 79 78 79
65 66 82 84 72 80 68 67 66 77 88 92 92 90 95 100 94 90 86 85 63 57 60 59 72 62 75 75 97 100 99 95 94 89 94 100 100 100 100 100 100 100 95 92 81 74 73 70 70 69 70 69 73 73
79 77 75 77 86 71 60 65 60 72 76 87 81 88 87 94 98 100 97 77 66 66 65 68 75 83 86 86 76 82 82 81 84 86 90 89 87 92 96 88 86 85 80 78 72 75 67 66 62 65 69 70 81 82
66 61 70 64 62 60 61 62 61 62 66 79 88 94 90 98 99 100 100 83 86 73 75 78 90 92 76 76 72 73 75 70 74 74 76 85 84 82 83 80 77 73 74 74 78 78 78 74 70 72 88 91 95 91
52 61 58 66 68 57 60 55 63 56 63 70 87 94 96 100 100 97 85 84 78 84 80 81 78 74 74 72 67 66 67 69 71 77 83 83 86 85 82 82 78 85 82 87 78 89 83 71 74 80 89 92 87 89
60 54 54 51 78 79 81 60 69 58 79 76 73 88 97 95 86 84 94 79 87 85 74 70 68 71 74 72 71 70 68 64 65 71 78 77 79 91 79 81 82 94 88 80 72 83 86 77 82 91 92 90 93 93
61 63 96 85 73 91 80 87 62 63 71 71 72 84 80 90 71 77 75 71 88 83 74 75 73 77 75 70 68 67 65 61 72 84 77 71 70 71 71 72 73 75 78 75 72 80 88 91 85 87 91 95 95 90
65 85 95 83 75 87 89 88 88 70 83 82 80 83 85 76 92 79 73 81 87 94 89 82 75 72 84 82 75 74 72 62 63 72 79 66 73 70 68 65 67 68 72 90 91 89 91 90 88 91 90 93 92 92
75 88 86 80 82 80 72 83 85 84 78 86 85 75 81 88 90 84 62 91 91 99 100 100 99 80 74 69 75 72 69 66 64 75 70 64 69 89 93 88 85 88 75 90 96 88 85 84 85 88 89 93 88 93
75 79 69 63 68 64 81 81 70 79 86 85 78 84 83 89 84 77 82 88 93 100 92 84 80 74 68 68 69 70 70 72 75 79 70 65 67 71 84 97 96 97 91 90 95 96 92 88 86 87 92 94 92 92
73 75 80 83 78 75 84 82 84 83 78 66 75 86 83 79 83 88 89 90 95 90 90 88 78 71 72 74 79 84 88 88 94 84 76 74 75 84 89 90 87 89 92 100 100 100 100 97 91 90 92 89 92 92
78 84 79 90 87 81 81 80 77 68 67 72 86 77 77 71 85 85 88 90 92 93 97 93 96 95 91 87 89 92 91 93 94 89 87 85 90 89 84 88 92 91 98 95 91 97 100 100 97 94 93 92 92 92
80 87 81 85 88 79 87 81 91 92 74 77 76 63 64 81 88 84 85 86 90 95 99 100 98 100 96 96 93 93 95 93 96 97 92 90 94 92 89 87 88 88 93 99 94 94 95 95 95 94 93 93 92 92
75 88 82 79 77 89 97 98 95 89 90 92 97 90 91 92 90 87 88 88 92 96 95 96 93 100 99 89 93 90 90 94 90 91 91 90 92 89 88 87 86 86 91 91 90 91 92 93 92 91 91 90 90 89
85 84 84 80 81 95 93 85 88 88 83 86 84 90 94 90 84 90 87 91 93 92 86 99 95 94 96 100 99 100 94 92 90 90 94 89 87 87 86 84 87 87 88 88 89 90 92 91 92 91 91 90 90 90
88 84 80 80 79 81 90 92 78 81 83 82 82 85 84 85 82 95 88 88 91 89 86 89 94 91 91 90 89 90 88 94 92 89 85 86 84 87 88 88 88 87 87 88 89 89 89 88 90 91 91 90 90 90

GFSWCAN_sfc_rhum_144.txt.gz
RH
84 88 88 87 86 81 79 77 74 73 74 76 77 79 76 81 81 90 97 89 94 92 59 50 55 66 42 37 73 59 77 84 88 79 63 73 89 61 58 45 60 56 64 71 60 65 63 22 25 46 52 50 42 39
84 86 88 88 84 80 79 77 75 74 75 77 81 78 78 86 84 87 98 94 84 91 83 76 68 62 53 52 63 70 70 69 67 75 58 50 65 58 51 63 32 67 49 58 44 50 41 37 42 43 40 44 46 47
86 86 90 88 82 80 79 76 76 76 76 75 75 80 82 94 86 88 97 96 91 84 76 70 69 68 41 47 43 74 69 59 73 56 60 52 62 44 66 54 50 41 35 56 55 45 34 38 38 42 33 45 39 36
87 87 92 86 82 80 78 76 77 78 77 75 79 81 92 94 82 84 95 88 73 59 92 76 59 49 51 44 44 48 53 49 50 85 75 68 67 43 67 50 54 60 43 47 53 60 37 34 44 49 41 46 40 40
88 88 90 86 80 78 77 78 78 78 76 75 78 84 91 89 88 89 89 80 84 77 77 70 54 46 50 49 49 45 46 54 64 67 67 66 42 52 62 48 58 41 61 68 74 53 52 54 56 44 48 45 39 40
91 92 89 82 79 78 79 79 78 77 79 77 76 85 89 91 87 88 100 71 60 53 76 82 46 54 51 48 48 49 50 55 67 76 65 47 44 59 78 63 48 41 44 49 54 42 51 55 48 43 43 39 38 42
91 90 84 80 78 80 79 79 78 78 81 79 78 85 88 83 70 83 72 60 70 53 57 79 71 47 46 47 48 55 58 72 68 70 69 63 62 67 79 84 54 56 50 45 39 42 51 48 55 45 43 39 48 42
90 84 79 79 79 80 80 80 79 81 81 78 79 86 81 77 67 66 63 75 64 49 38 70 87 71 46 62 70 65 91 83 80 74 85 62 65 78 100 75 55 46 44 41 39 35 40 39 40 43 44 42 47 50
82 79 79 80 80 80 81 80 81 81 80 86 83 80 77 82 92 84 79 76 69 67 66 54 71 87 53 59 68 88 89 100 84 88 76 69 73 80 70 56 57 52 46 43 34 30 38 43 45 43 44 47 50 50
80 81 81 81 81 80 80 80 80 82 89 80 79 86 100 97 77 66 81 95 91 80 68 61 41 81 60 83 78 89 93 86 81 86 74 76 73 49 42 40 40 42 40 37 46 50 49 48 50 49 50 49 48 47
81 81 82 81 81 84 84 83 86 85 76 79 90 100 89 72 74 79 97 85 83 83 56 51 41 78 57 80 81 74 89 86 93 81 84 84 72 61 44 38 36 37 34 37 36 42 42 44 51 61 65 68 68 65
82 86 86 85 84 84 87 87 85 75 63 63 88 75 77 87 86 83 79 67 63 52 49 55 44 50 71 68 78 89 90 82 74 93 94 72 61 37 37 36 39 40 37 39 37 43 47 46 50 65 72 76 84 89
85 87 84 86 86 84 85 82 81 75 65 63 55 65 70 78 85 79 77 62 68 52 59 60 73 73 77 69 76 90 100 91 69 94 76 62 63 59 57 54 54 46 48 48 51 59 69 88 85 93 98 97 93 95
85 86 85 87 85 83 87 85 86 75 66 63 65 84 80 87 69 60 57 70 61 63 63 58 73 72 76 83 92 94 86 84 88 80 64 79 73 75 75 73 65 93 94 92 95 95 97 93 92 98 96 90 91 96
84 84 83 79 78 79 78 78 84 81 71 65 59 71 74 71 83 92 87 82 74 70 72 69 70 72 78 93 83 78 94 83 68 65 94 86 76 77 88 96 99 100 100 97 97 96 96 93 91 92 89 90 92 92
79 74 69 85 83 82 78 75 68 65 75 76 72 86 95 97 100 100 100 98 74 81 74 67 67 88 86 72 78 79 74 65 83 94 99 92 95 96 96 96 98 97 95 95 94 98 100 96 93 91 94 94 92 90
80 47 74 82 84 85 79 67 72 77 84 82 100 100 100 100 100 100 99 84 76 83 92 77 84 73 72 78 68 62 84 97 99 99 95 96 98 97 97 96 95 94 94 93 94 99 99 99 94 93 95 95 92 90
62 60 75 82 80 73 70 69 70 70 73 84 92 100 99 100 100 100 87 78 89 91 88 96 87 73 82 69 64 91 94 100 100 100 100 100 100 96 95 95 97 92 97 97 95 95 95 96 92 92 89 88 86 86
76 74 82 85 87 84 77 63 62 81 89 89 90 88 91 99 95 94 92 81 68 79 84 68 70 64 74 82 99 100 100 97 96 98 98 100 93 100 100 99 100 98 89 90 82 81 82 81 81 83 81 80 83 83
80 84 85 84 87 97 65 62 57 76 80 90 87 94 87 95 94 100 100 94 85 97 96 69 81 90 93 89 88 90 88 88 90 93 93 92 92 93 96 90 90 90 86 78 74 78 75 75 74 76 79 80 90 90
64 62 72 67 72 85 72 64 60 61 67 79 83 80 93 87 99 100 100 83 89 90 78 76 96 98 83 84 80 83 83 81 86 85 87 92 87 86 87 93 84 84 83 85 86 85 87 84 80 84 92 96 97 90
55 69 69 78 92 87 71 53 65 60 63 73 81 82 98 100 99 98 95 100 96 84 80 80 78 75 74 72 72 72 80 79 82 86 88 86 93 91 91 91 89 95 95 95 93 93 93 83 86 86 92 96 93 92
60 56 57 60 83 81 81 58 69 58 74 79 78 82 89 94 90 86 99 88 93 86 77 71 70 69 75 75 76 74 70 72 76 81 85 92 89 96 91 90 93 96 97 92 86 93 96 85 89 94 95 94 94 95
60 58 99 82 71 90 80 84 64 63 69 71 72 82 78 90 78 96 90 72 88 84 80 82 79 82 79 72 75 74 77 77 85 95 88 85 87 88 86 85 84 88 86 83 85 94 93 93 88 91 94 93 94 94
68 84 96 84 77 84 84 79 81 65 78 80 81 80 85 75 88 83 73 83 90 96 90 83 79 77 85 89 84 83 74 74 79 84 90 80 84 81 84 83 87 85 87 97 95 95 97 96 94 94 94 94 94 92
78 88 87 75 77 74 68 80 84 83 83 86 79 79 79 87 89 80 68 98 92 100 100 100 99 85 87 73 82 77 71 69 74 84 80 77 84 93 92 89 90 90 87 95 94 95 95 94 94 92 92 91 92 91
77 78 65 58 62 60 72 74 66 76 87 86 86 86 86 89 79 86 82 92 94 100 94 93 88 83 77 78 78 75 72 72 77 81 72 67 73 75 85 94 97 99 95 95 96 94 94 92 92 91 90 90 90 92
69 67 77 81 71 71 81 83 83 81 81 68 70 85 83 85 92 90 85 84 95 100 100 98 83 82 81 79 86 85 87 87 91 85 78 77 77 86 87 88 93 90 98 100 99 98 100 94 92 89 90 90 92 94
74 81 74 82 82 83 86 87 84 75 66 70 84 80 86 76 83 84 85 91 98 99 99 99 100 100 96 93 96 96 86 88 85 86 83 90 96 95 87 89 92 94 95 93 89 94 98 99 93 90 89 91 92 94
78 78 77 74 87 78 80 80 85 94 72 74 79 68 62 77 89 82 83 87 92 96 100 100 99 96 96 96 96 95 88 98 99 96 90 91 96 93 89 92 93 93 91 93 92 92 97 96 97 96 95 95 94 94
66 79 79 74 73 83 96 99 97 89 88 87 92 92 82 96 90 88 84 89 94 100 99 98 98 100 98 95 96 92 94 90 83 91 86 88 88 87 89 89 91 91 90 90 86 90 93 94 94 94 93 94 94 94
85 84 86 81 78 96 92 83 85 86 83 87 88 88 94 89 84 86 91 89 92 89 86 95 92 94 100 99 96 96 90 92 88 86 87 86 93 92 86 88 88 90 91 90 91 91 92 93 94 94 94 94 94 93
82 78 87 87 84 84 90 87 79 82 85 82 81 81 89 86 84 94 89 91 91 91 92 97 98 96 91 90 91 92 91 93 91 89 86 88 83 86 90 88 90 90 89 91 93 94 94 92 93 93 94 93 93 93

GFSWCAN_sfc_rhum_147.txt.gz
RH
85 86 87 88 88 83 88 87 88 82 78 76 77 78 77 78 78 89 91 94 95 98 81 80 84 92 92 84 84 78 95 97 100 100 98 99 99 82 83 65 82 88 97 98 96 97 93 40 33 51 62 61 50 50
88 86 86 88 90 86 92 88 84 79 77 76 78 77 77 79 78 82 96 91 91 98 94 88 87 79 83 90 89 83 83 86 96 98 97 84 90 81 77 86 52 88 74 84 75 78 58 54 60 58 56 55 54 57
88 86 86 87 90 90 89 84 80 78 77 77 78 74 76 78 79 82 94 93 96 97 98 94 86 71 69 78 72 92 89 83 90 85 86 87 86 70 91 87 65 60 50 76 66 58 49 48 50 61 61 53 50 66
88 88 87 89 91 87 83 82 79 77 77 78 75 75 78 77 74 81 98 92 97 98 100 94 69 69 63 60 68 74 74 69 85 93 96 96 98 69 89 70 72 76 58 70 73 66 52 51 63 68 63 60 63 62
90 89 88 90 86 83 82 80 79 78 78 74 74 81 79 80 80 92 95 93 93 97 99 97 75 66 58 61 62 57 64 79 91 90 95 95 77 73 84 65 82 63 67 84 86 64 61 65 68 60 59 56 51 58
88 89 93 89 83 82 80 80 79 79 78 76 77 76 89 88 94 96 100 96 93 98 98 99 71 74 63 60 63 67 72 81 91 93 90 78 57 76 93 92 62 52 55 62 66 55 64 66 60 56 56 58 52 50
90 89 89 83 81 81 80 80 79 78 81 77 79 89 95 97 93 98 96 94 91 97 92 95 94 79 59 59 68 77 81 93 90 90 91 86 81 82 97 91 68 67 67 63 57 56 70 61 76 58 52 53 59 55
87 83 82 81 81 81 81 79 79 80 79 78 89 90 93 91 92 92 94 90 90 93 68 93 96 88 65 82 91 89 95 88 93 93 95 88 84 96 97 87 77 62 56 58 55 49 54 53 57 59 55 54 60 62
82 82 81 81 80 81 80 81 82 81 84 88 90 77 88 93 98 98 76 80 84 85 94 88 93 98 72 82 94 84 88 97 96 98 96 91 93 94 84 81 74 65 64 61 53 51 49 56 57 59 59 60 63 65
82 81 81 80 80 82 83 83 81 82 86 85 88 93 98 98 80 78 87 95 93 94 86 90 89 96 83 96 96 96 98 94 99 93 92 95 94 61 51 55 50 53 56 58 65 64 59 66 65 61 65 63 63 63
82 81 81 81 83 84 83 84 88 83 82 92 96 100 93 84 91 95 96 95 96 92 82 80 82 92 81 95 97 92 98 97 89 92 93 84 92 72 49 45 46 55 54 60 60 66 66 67 68 72 80 82 84 85
84 84 85 83 83 84 86 82 80 82 87 84 91 85 87 88 96 91 96 91 92 79 78 80 83 87 90 86 96 95 93 96 98 98 100 98 88 74 68 60 50 51 68 74 64 73 79 80 79 82 88 92 94 92
84 84 86 86 86 82 80 78 78 84 73 79 76 86 94 94 94 88 97 90 92 85 83 82 90 94 94 92 98 95 96 89 93 98 95 93 91 87 84 80 82 71 71 82 90 90 90 95 96 95 96 96 94 96
86 86 83 82 84 82 79 79 84 89 84 90 85 89 93 97 94 91 92 93 90 94 83 84 95 94 97 96 97 98 93 99 97 98 86 100 97 96 98 97 96 98 98 97 98 96 94 96 98 96 95 96 96 97
86 87 88 86 84 88 88 88 87 95 92 90 89 87 88 93 98 98 97 97 93 85 86 90 92 91 98 98 97 93 99 98 94 92 100 98 91 97 99 98 98 98 98 98 96 96 96 95 96 97 96 95 94 95
83 79 81 86 85 84 82 86 91 83 89 92 92 94 97 98 96 93 97 100 90 95 89 86 91 94 89 90 93 90 90 87 95 100 100 97 95 99 99 98 98 96 96 96 97 96 95 94 95 97 96 96 95 94
80 72 77 86 86 84 84 86 90 83 96 92 99 100 99 99 98 96 97 98 89 98 96 92 89 82 90 92 89 90 94 97 99 98 97 98 98 99 97 97 93 92 93 95 96 96 98 96 94 94 97 98 96 95
90 86 87 87 80 83 90 89 92 94 99 99 100 100 99 100 100 100 99 93 95 96 97 93 99 89 95 91 96 94 98 100 96 100 100 97 98 97 93 93 89 88 93 96 97 98 98 97 95 95 94 94 95 96
79 84 81 86 89 94 99 81 81 95 94 99 99 98 99 100 98 99 96 97 89 90 96 99 99 98 99 99 99 99 99 98 97 100 100 98 96 94 92 96 96 95 96 97 95 96 95 91 94 91 91 90 93 93
76 80 85 87 86 97 91 86 73 89 94 96 97 99 99 99 99 100 100 98 94 96 99 100 99 96 98 98 97 97 98 98 96 99 99 99 97 94 97 97 96 94 92 89 91 91 91 94 93 87 89 91 96 96
80 79 80 82 87 88 95 92 82 81 82 92 97 95 98 99 100 100 97 96 99 98 99 98 96 99 92 93 96 97 96 92 93 94 93 99 98 98 99 98 94 93 96 95 94 95 92 94 94 92 94 97 96 94
75 71 85 85 93 88 97 84 85 83 88 91 96 90 94 99 99 100 97 100 99 98 97 97 97 90 94 89 92 89 91 90 92 96 94 94 99 99 99 98 99 99 98 97 96 97 99 94 96 96 97 99 98 98
70 70 80 88 96 92 89 84 86 81 90 92 94 93 93 98 99 95 99 99 98 97 96 91 83 85 91 88 84 81 82 86 93 95 96 97 97 96 97 97 98 97 99 100 98 98 98 96 96 97 98 99 98 98
68 81 98 94 91 95 94 95 86 86 90 88 89 88 88 97 95 99 98 97 99 97 96 91 88 90 89 84 91 90 92 91 96 98 97 96 98 99 96 99 98 98 98 97 97 98 98 98 98 99 98 98 98 98
89 83 96 96 93 92 84 79 87 84 92 89 88 92 93 95 98 97 91 99 98 98 98 92 89 88 93 98 98 96 85 89 92 95 97 92 93 94 97 95 96 98 96 97 99 98 98 98 97 98 98 98 98 97
97 93 96 86 90 84 87 92 94 91 92 93 91 94 95 98 98 94 94 100 99 100 97 94 93 94 96 88 94 91 90 85 88 93 94 87 92 92 92 95 98 99 96 94 95 97 98 97 97 98 98 99 98 97
92 93 86 77 81 76 86 88 85 91 93 93 93 97 92 98 94 98 99 99 100 99 98 98 97 97 96 95 94 94 95 93 91 91 92 88 91 94 97 99 97 99 96 94 94 94 96 96 97 97 98 98 98 98
86 77 90 92 88 83 90 95 92 92 91 90 88 94 91 96 99 99 99 97 99 99 100 99 98 97 96 94 95 96 96 96 94 93 92 93 93 96 95 98 97 98 98 97 97 98 97 95 95 96 97 98 99 99
83 92 80 91 93 95 94 94 93 94 90 92 95 95 98 94 93 95 97 98 100 100 100 99 99 98 96 97 95 94 94 97 98 100 97 99 98 99 98 98 98 99 99 98 95 97 99 98 96 96 96 96 98 96
94 90 87 90 95 96 92 94 94 97 95 94 96 93 91 94 97 96 97 97 98 98 99 98 98 98 97 96 98 99 99 98 98 98 94 95 98 97 95 98 98 99 99 98 97 98 99 98 98 97 96 96 96 96
88 93 93 85 91 92 96 97 97 97 96 96 96 94 91 95 98 96 96 96 96 98 99 98 99 98 97 97 96 96 98 97 97 96 97 95 96 96 96 97 98 98 98 98 97 98 98 97 96 96 96 96 96 94
96 96 97 95 92 98 96 96 96 96 95 96 95 96 98 99 96 95 97 94 96 97 95 96 97 96 99 99 98 98 95 92 93 94 88 95 97 96 96 96 97 98 98 97 98 98 97 95 96 95 95 95 95 95
95 95 93 96 96 93 97 92 94 95 96 97 92 88 92 96 96 96 98 98 95 93 95 95 98 98 96 97 97 97 96 95 94 92 94 95 93 94 97 98 98 98 98 98 98 97 96 95 95 95 94 94 95 94

GFSWCAN_sfc_rhum_153.txt.gz
RH
87 86 88 86 85 85 85 86 85 84 84 85 85 85 85 85 79 88 92 89 91 98 79 74 70 73 81 90 96 93 95 97 100 99 96 99 99 98 98 76 94 94 98 98 95 96 89 58 54 60 59 60 55 63
90 87 88 87 87 85 80 85 86 86 83 84 85 86 87 89 84 80 93 92 89 97 89 77 68 65 71 73 92 93 99 97 93 96 97 98 100 99 98 97 95 93 78 91 81 79 67 58 55 56 56 54 61 70
87 89 88 90 85 85 84 86 87 86 85 84 84 89 89 89 80 79 96 98 97 95 92 91 80 72 78 82 80 97 84 85 94 88 98 98 96 91 96 96 95 93 79 90 78 67 61 60 68 70 60 58 63 72
91 87 91 86 84 86 88 89 87 89 89 88 91 87 88 82 76 78 96 98 92 96 98 83 69 74 78 84 88 90 95 92 92 95 96 96 93 80 93 79 85 79 81 75 78 73 65 60 64 69 66 62 69 75
92 89 86 87 88 88 89 87 87 91 91 89 87 86 81 77 73 87 97 98 93 94 99 96 85 81 87 86 96 94 95 94 98 96 93 91 90 89 95 87 90 72 80 86 87 65 66 63 66 70 68 64 69 70
88 90 91 89 87 85 91 91 91 90 90 86 82 78 76 76 78 94 100 94 98 99 100 98 87 86 91 94 90 90 95 99 98 93 92 88 73 82 96 97 74 64 65 65 64 62 69 62 66 69 72 72 71 73
89 89 90 92 93 91 89 88 86 84 83 80 77 76 76 79 93 95 94 90 85 94 100 99 100 87 79 74 84 89 91 97 91 93 89 88 84 84 97 94 67 65 68 67 62 59 70 76 72 66 64 62 70 70
85 85 85 84 84 83 83 83 82 80 79 78 78 78 79 82 82 94 91 85 86 91 97 99 99 100 83 92 95 93 95 94 96 96 97 86 88 96 89 74 64 61 66 66 68 67 64 64 70 68 68 68 68 73
84 84 84 84 84 83 83 82 81 80 79 77 85 93 96 99 99 96 67 72 94 95 99 99 95 98 83 98 97 95 94 96 95 99 95 89 96 92 71 62 61 61 62 50 48 58 68 65 67 75 72 74 72 76
86 85 84 84 84 85 86 85 84 83 83 93 98 98 99 98 82 81 94 98 99 99 100 99 92 98 85 99 98 97 98 96 97 95 96 99 96 72 66 64 60 58 64 66 81 77 78 74 70 85 80 72 72 74
86 86 86 85 85 82 81 83 84 84 88 99 100 100 99 90 97 100 99 98 99 98 96 94 89 96 89 95 98 95 94 92 97 93 97 98 96 86 84 91 88 75 65 70 65 69 69 67 74 82 86 86 88 88
81 84 86 83 82 83 83 85 86 94 96 92 88 93 97 98 98 92 96 96 93 76 85 90 91 89 94 92 96 98 96 88 95 93 98 95 93 92 91 90 90 90 74 71 71 69 78 81 80 82 89 92 94 93
86 84 82 83 84 82 84 88 89 88 83 82 82 84 83 91 87 88 98 93 94 90 88 96 97 96 96 94 96 89 94 94 94 96 78 92 96 94 97 95 94 90 88 90 93 94 93 94 92 89 92 95 92 93
84 82 82 82 84 85 86 88 90 92 90 93 82 80 88 92 93 96 94 94 91 95 92 92 98 95 99 95 95 98 95 87 90 93 91 96 98 99 96 96 96 98 97 97 97 96 96 94 96 94 94 94 93 94
82 83 86 84 86 86 88 90 93 97 94 94 87 99 98 98 96 95 96 99 98 96 91 91 93 93 99 96 94 94 96 91 90 93 94 99 98 95 94 98 97 95 99 97 96 97 98 97 96 98 97 96 95 96
86 88 89 88 83 83 85 90 94 94 94 95 93 94 98 97 98 98 96 99 97 99 97 94 94 90 88 91 98 98 95 97 90 96 100 99 99 97 95 97 98 98 97 97 97 97 98 98 97 98 96 96 96 96
84 91 80 88 85 86 85 91 90 86 96 92 98 96 96 97 98 99 94 96 96 96 93 94 89 78 89 96 94 93 94 91 97 99 100 97 98 99 98 98 98 98 98 97 95 96 98 98 96 95 97 98 95 95
89 90 85 86 88 90 93 94 96 98 98 99 99 99 99 99 99 94 94 95 97 97 94 89 89 89 96 90 95 93 100 98 100 99 98 98 98 97 95 95 96 96 98 98 98 98 98 96 94 96 95 95 94 94
84 85 80 83 90 96 91 93 90 96 96 99 98 98 99 99 99 99 99 96 92 93 95 94 100 98 97 98 98 100 99 98 99 99 99 96 94 94 93 92 87 95 97 98 97 95 92 88 93 95 93 91 94 96
75 77 77 80 87 94 92 96 87 92 96 96 99 99 96 94 94 99 99 98 98 99 99 98 96 96 97 97 97 98 98 97 98 96 95 100 95 92 93 90 85 94 96 95 96 96 97 98 92 91 93 92 96 98
81 83 87 91 95 94 95 96 95 92 93 96 98 97 96 99 100 99 99 99 99 98 98 97 95 98 96 96 98 97 96 96 98 92 89 98 98 94 93 94 94 95 94 97 98 99 99 98 97 95 97 98 98 98
90 81 93 91 95 89 98 94 97 91 93 94 98 97 98 90 98 99 99 99 98 95 97 98 98 98 97 90 95 93 93 93 93 98 97 98 99 99 99 98 98 98 98 98 96 97 98 98 98 97 98 98 96 98
77 83 93 96 97 94 93 93 90 86 97 91 96 95 98 99 97 99 99 96 91 96 97 97 92 88 90 89 92 93 93 93 96 96 96 97 97 98 99 99 98 97 99 99 97 97 98 97 97 98 98 99 98 98
74 86 90 91 82 94 91 92 93 96 90 92 95 91 90 98 98 98 91 97 99 99 97 95 95 97 96 90 97 96 95 94 99 99 98 98 99 99 98 98 98 97 96 98 98 98 98 98 98 98 98 99 99 98
81 78 85 91 93 92 82 85 91 88 96 94 94 93 92 97 99 100 94 99 99 99 99 100 99 98 97 98 98 98 91 95 98 99 100 98 99 99 99 99 99 99 98 98 98 98 99 98 98 98 98 98 98 98
96 85 74 92 97 92 94 92 99 95 98 97 97 94 96 99 98 98 96 98 98 99 99 99 99 99 99 96 98 98 97 94 94 98 99 98 96 95 97 98 99 99 99 96 97 98 98 98 98 97 98 98 98 97
93 95 93 89 92 81 91 94 90 98 99 99 96 99 94 89 94 96 99 99 100 99 99 99 99 99 99 99 98 97 98 96 93 97 98 98 98 97 95 95 97 96 98 97 95 95 96 97 97 97 98 98 98 98
92 89 93 92 93 94 93 97 99 99 95 91 96 100 94 91 93 96 96 96 98 99 99 99 99 99 100 99 98 98 99 98 97 95 95 96 98 99 98 99 99 98 96 95 95 95 95 96 95 96 97 97 100 100
96 96 90 94 96 96 99 96 95 92 97 98 98 98 93 96 97 97 95 97 99 100 98 99 95 99 98 98 98 97 96 95 95 98 98 99 99 97 99 99 99 99 98 97 97 95 94 96 96 98 98 98 100 100
96 96 94 97 98 97 92 94 95 95 98 96 96 95 96 92 94 97 98 100 100 99 99 98 98 99 98 98 98 98 98 98 97 95 96 98 96 96 99 98 99 99 98 98 98 98 98 98 97 97 98 98 97 97
94 97 98 98 97 93 92 95 99 99 100 100 100 97 90 95 94 98 100 100 100 98 98 93 99 99 98 98 98 97 98 98 98 97 97 98 98 97 98 97 98 98 98 98 97 97 98 98 97 96 96 96 96 96
98 99 99 100 92 92 96 98 98 100 99 100 99 100 99 99 99 97 99 99 98 99 100 99 98 98 98 98 98 98 96 98 100 99 96 98 98 98 97 97 96 96 97 98 97 100 97 96 96 96 96 96 96 95
98 98 97 98 95 92 94 99 98 99 98 99 98 98 100 97 96 97 96 99 99 98 98 98 98 98 97 97 96 98 98 98 98 96 96 96 95 95 96 97 98 98 97 97 98 97 96 96 96 95 95 95 95 95

GFSWCAN_sfc_rhum_159.txt.gz
RH
88 88 88 85 85 83 84 84 84 85 90 86 83 81 80 79 79 87 89 83 70 94 77 73 65 79 86 83 82 74 75 89 93 98 86 84 96 86 76 56 63 78 89 94 89 90 78 50 50 58 50 56 45 50
89 88 87 86 85 83 85 84 86 85 86 90 85 84 83 81 81 84 98 82 71 93 88 74 68 61 57 59 79 80 76 86 92 92 97 95 97 98 93 83 86 76 64 70 66 61 66 58 58 54 50 47 47 47
90 88 87 86 87 85 86 85 86 84 85 88 91 86 85 84 82 89 98 97 92 100 97 93 83 72 69 66 66 86 82 75 96 87 96 98 95 83 91 82 75 93 87 95 87 66 62 58 55 54 53 55 44 46
91 90 88 88 86 83 87 86 85 85 85 86 88 87 85 83 85 90 99 98 94 97 97 83 64 68 56 69 74 73 73 66 73 94 97 94 92 82 87 66 70 76 82 92 91 84 75 64 58 58 60 58 55 62
90 88 89 88 88 86 86 87 86 86 86 86 86 85 84 85 85 93 98 97 92 88 94 85 75 71 72 73 73 72 80 85 93 97 97 93 75 92 90 79 82 77 85 87 80 70 83 84 72 60 60 57 57 60
88 92 92 87 86 86 90 92 92 89 88 88 88 90 85 86 96 99 100 100 96 95 96 98 75 74 69 74 79 81 82 88 92 97 96 96 73 99 92 84 68 66 69 66 60 60 71 66 58 55 57 54 58 58
90 88 88 88 88 87 86 87 88 88 87 86 87 88 89 95 96 99 94 92 91 91 94 95 95 88 68 82 85 89 88 100 100 100 98 85 88 91 88 84 60 67 68 66 62 58 62 59 60 58 63 62 66 63
86 88 90 91 90 91 91 88 87 86 90 91 91 96 95 88 88 95 97 85 83 90 95 98 91 92 86 99 99 93 99 100 100 99 99 96 93 88 85 73 62 56 57 54 57 58 58 59 52 58 62 63 64 64
85 86 86 86 86 87 88 89 89 90 90 90 91 88 95 96 98 98 85 87 96 91 96 92 87 90 100 99 99 100 99 98 92 97 95 94 94 88 72 58 52 51 46 44 48 50 52 62 57 53 60 65 65 67
83 84 86 85 86 86 84 83 83 82 84 80 85 91 100 97 80 82 93 97 99 99 98 96 94 91 94 98 96 97 95 90 87 81 93 95 88 73 64 58 59 61 65 68 72 70 60 56 57 55 53 57 60 64
85 88 85 83 86 85 80 77 79 76 80 96 96 98 94 79 94 95 93 93 94 94 88 87 79 81 94 98 96 94 92 88 89 87 82 87 84 72 71 81 81 82 81 79 80 80 73 57 59 63 69 72 78 80
80 86 90 89 84 84 81 81 81 93 95 93 96 94 94 95 96 96 95 90 94 80 88 94 91 84 98 99 94 91 88 82 84 85 87 84 78 70 88 92 88 86 84 85 76 80 73 67 70 72 73 78 88 92
86 86 86 88 89 89 90 87 83 88 90 96 98 99 99 98 98 98 99 95 96 88 90 98 98 97 96 86 87 79 91 92 86 91 82 78 70 91 92 90 89 86 84 83 83 84 84 86 86 89 94 98 96 96
89 88 86 85 86 87 89 90 91 95 93 92 86 96 92 95 90 90 88 89 88 93 92 88 97 90 93 92 86 92 88 80 81 84 79 80 90 90 91 91 90 94 92 90 91 92 97 96 99 97 97 95 94 97
82 87 82 82 80 84 89 87 91 93 90 91 84 97 96 93 96 96 97 96 92 94 89 89 87 84 94 96 82 83 85 77 72 82 84 87 92 93 94 94 96 98 99 97 94 96 97 98 98 100 97 96 96 96
79 78 87 80 79 82 87 88 93 90 91 88 87 97 97 97 97 98 98 98 88 95 90 85 80 84 85 88 93 88 80 86 81 89 90 96 97 93 93 93 95 96 94 97 97 96 96 97 96 96 95 93 93 93
74 88 80 77 79 84 83 89 89 90 89 88 99 93 94 94 98 98 95 93 93 89 89 79 82 68 81 89 86 81 90 84 88 90 92 95 95 95 93 96 98 96 97 97 96 95 97 97 95 92 95 95 93 93
86 88 81 77 75 92 91 92 94 90 96 94 98 97 95 92 90 90 93 92 92 94 85 78 78 78 90 84 85 86 90 95 94 98 93 98 98 98 94 94 96 94 95 95 94 95 95 94 90 91 90 88 86 85
88 86 80 76 79 95 96 92 90 95 96 96 95 96 93 95 96 95 95 94 91 91 88 88 97 92 88 86 88 91 98 96 98 96 96 97 96 96 96 94 94 96 98 96 88 86 83 83 84 83 84 80 86 84
75 74 85 80 82 91 88 92 90 91 92 93 97 97 89 91 96 99 99 99 97 97 98 93 90 90 90 87 87 87 90 94 94 98 97 97 93 92 94 93 93 92 91 91 88 88 87 88 85 85 86 84 89 90
82 82 84 89 95 92 92 87 92 95 95 96 95 97 96 95 96 96 94 97 98 94 94 91 92 92 88 93 93 92 90 91 93 90 89 94 93 88 87 89 88 91 91 95 94 95 93 90 87 88 93 94 92 91
85 79 94 88 91 83 90 93 97 96 96 96 95 95 95 95 96 98 97 94 91 94 92 92 90 89 91 92 91 87 86 87 87 90 92 91 95 95 94 91 93 95 93 93 90 94 94 93 90 91 94 97 93 92
80 80 92 89 76 84 92 88 92 90 96 96 96 96 96 94 93 97 98 95 96 95 98 98 98 92 90 88 89 91 89 87 88 88 91 89 88 95 92 93 94 95 95 93 88 92 94 95 94 95 94 94 95 96
71 86 91 92 92 95 89 93 86 91 89 92 94 93 89 97 96 97 96 96 98 96 94 96 98 96 96 97 96 93 94 88 92 96 93 93 96 97 93 92 93 93 90 89 92 95 95 97 96 94 96 96 95 95
80 84 85 91 92 92 91 92 93 80 92 91 96 96 96 90 95 93 92 94 95 92 94 92 91 96 98 97 97 98 99 95 95 96 97 92 94 97 96 94 94 94 96 98 99 99 98 97 97 96 95 96 96 95
94 94 91 95 95 95 94 98 98 97 99 99 97 92 92 96 98 94 92 96 94 97 97 98 98 96 96 98 96 96 95 99 96 96 95 98 94 94 95 97 97 97 95 95 96 97 98 97 97 96 96 96 96 95
94 95 91 82 92 85 90 90 87 97 100 99 96 98 96 95 94 89 96 96 97 94 94 95 93 92 95 97 98 96 96 98 96 96 97 98 97 93 93 94 96 92 96 94 94 94 97 97 96 95 96 96 95 94
96 94 97 95 92 92 97 96 96 96 96 93 93 97 96 92 91 94 96 92 94 94 98 94 90 94 94 98 99 96 96 96 97 97 97 96 96 97 97 97 94 96 95 95 95 96 96 94 95 95 95 95 97 96
91 76 91 94 96 95 96 96 95 92 92 96 98 97 91 87 92 95 95 96 97 96 98 99 95 96 91 95 98 98 97 97 96 96 96 96 97 97 98 98 96 97 96 96 95 93 92 94 94 94 92 95 95 95
90 76 90 94 97 96 96 97 96 94 91 94 97 95 94 94 98 95 92 93 95 98 98 98 98 97 97 98 97 97 98 98 98 95 96 96 95 96 97 97 97 97 96 96 97 98 96 97 96 98 98 97 96 96
74 87 92 88 92 95 88 95 97 97 98 100 98 98 96 97 96 96 96 97 97 97 96 96 95 96 98 97 97 97 97 98 98 97 96 96 97 97 97 97 97 98 98 98 97 96 96 96 95 96 98 96 96 95
93 92 94 95 81 74 78 93 94 100 98 98 98 97 97 95 97 97 96 94 93 94 95 96 97 97 97 97 98 98 97 98 97 96 94 96 98 97 96 96 97 97 97 97 97 97 96 95 95 94 95 95 95 94
93 87 93 96 94 81 84 94 94 97 95 96 96 98 97 96 96 96 93 92 97 96 96 96 97 96 97 97 97 97 97 100 98 98 99 97 97 97 97 96 96 96 96 96 96 96 95 94 94 94 94 94 94 94

GFSWCAN_sfc_rhum_165.txt.gz
RH
87 88 88 91 86 86 86 82 84 84 85 87 82 79 79 79 82 82 71 64 69 74 44 35 37 43 37 35 52 57 53 51 60 75 66 65 71 56 51 38 42 50 96 79 72 85 77 23 22 32 32 29 27 26
90 90 88 88 87 88 85 83 84 84 84 88 84 80 80 79 77 81 82 62 54 72 53 47 39 35 34 32 48 50 55 47 51 70 72 77 72 71 70 72 36 62 93 64 54 51 33 31 32 33 41 34 35 34
91 89 90 88 88 86 85 85 84 85 84 87 89 81 80 80 78 79 71 66 65 86 70 53 54 44 38 38 37 62 46 40 45 40 74 73 75 46 65 55 58 56 48 77 60 41 34 29 30 29 26 29 26 26
91 89 89 88 88 85 85 85 85 85 85 85 89 81 81 79 78 78 86 68 69 68 82 54 34 46 38 42 44 45 47 44 44 45 79 69 63 45 65 55 58 56 51 75 74 48 37 34 30 34 39 40 38 32
93 94 90 88 87 87 88 87 86 86 86 85 86 89 80 82 83 81 88 75 58 56 80 62 44 39 39 44 47 49 50 54 67 70 83 72 44 50 50 52 55 43 57 84 79 42 39 36 42 39 38 39 39 38
90 89 90 89 88 88 88 87 87 86 85 85 85 88 88 83 85 95 100 98 69 55 98 86 46 46 41 46 50 57 57 60 74 80 63 46 39 66 90 60 38 32 61 52 53 37 40 42 35 30 36 42 46 49
88 92 89 89 88 87 87 86 87 87 86 86 87 88 89 88 96 99 93 80 88 88 100 95 73 48 39 44 48 51 54 76 82 82 78 54 46 56 75 78 46 47 45 39 37 34 38 37 39 34 34 36 50 65
90 90 90 92 89 88 86 85 87 88 88 88 87 88 90 89 93 98 91 86 90 98 99 96 78 74 46 57 68 60 82 86 87 79 66 61 51 70 87 53 42 36 34 34 33 29 31 33 36 34 33 34 41 48
87 88 90 89 88 91 89 86 88 88 88 90 91 88 96 98 100 99 86 84 90 84 93 82 73 84 64 75 71 89 99 99 66 83 66 71 81 90 63 46 41 40 43 37 28 24 27 30 26 25 31 34 33 34
85 87 91 91 91 91 91 94 94 93 94 91 92 95 100 99 92 92 98 100 99 94 72 73 42 58 66 79 80 100 93 84 83 61 58 85 73 45 38 48 50 37 32 29 39 44 40 39 36 36 28 25 26 26
81 82 87 88 90 93 93 92 87 79 79 63 94 100 97 85 92 89 96 78 74 75 48 53 52 62 57 74 80 75 93 71 82 85 79 76 61 48 46 56 57 55 51 47 47 48 47 48 50 48 39 37 41 46
86 80 79 84 85 84 80 76 73 63 64 62 83 90 88 88 84 80 72 54 55 43 40 52 56 52 60 62 80 84 93 80 93 68 79 78 74 64 63 64 62 60 57 54 51 52 53 51 56 54 50 62 82 96
86 79 85 80 77 73 76 78 74 75 60 52 53 67 72 72 85 81 75 60 62 48 53 61 84 71 82 65 97 96 93 90 64 90 60 56 56 60 62 65 66 60 61 58 59 64 66 78 84 88 93 99 100 100
80 80 76 78 84 78 75 72 75 72 70 72 67 95 78 88 64 52 47 53 54 61 66 70 95 98 97 84 80 89 69 64 79 75 51 62 68 75 78 76 68 78 84 82 85 93 98 99 100 100 100 100 100 100
76 77 72 74 77 86 84 79 81 78 96 90 71 91 88 68 76 84 80 77 72 70 70 85 87 85 71 90 69 67 81 76 55 50 77 83 80 78 81 82 89 95 98 97 94 100 100 100 100 100 100 100 100 100
74 76 68 76 76 82 90 90 88 88 97 81 70 88 89 98 100 100 99 92 71 77 71 97 68 80 78 63 65 72 48 44 59 82 85 80 85 88 86 88 92 96 92 99 100 99 99 100 100 100 97 98 98 100
75 45 73 75 76 79 88 90 95 99 87 67 94 100 99 96 100 100 94 88 80 89 89 59 72 51 56 54 48 46 64 77 98 87 76 78 90 98 100 100 100 98 94 97 97 95 100 100 100 89 93 95 84 91
48 47 69 72 69 67 71 80 90 99 90 82 90 98 89 93 99 90 83 79 86 82 70 60 50 50 73 45 47 63 75 98 87 85 83 86 90 93 82 87 96 90 92 93 91 89 92 90 79 78 78 76 77 73
61 61 70 73 70 64 64 65 64 69 80 85 85 81 82 91 80 78 81 77 69 73 75 66 66 56 51 48 88 100 100 85 86 86 85 89 90 92 91 86 92 96 91 88 72 68 66 65 68 65 64 62 69 71
69 71 72 83 78 60 58 61 60 66 71 80 80 87 79 83 82 94 82 70 65 69 81 79 62 63 74 71 68 69 67 70 73 80 83 82 85 86 83 81 78 81 79 74 69 75 65 66 63 64 66 68 77 80
65 65 73 69 50 55 57 59 65 85 77 73 77 80 80 84 87 89 86 70 79 68 61 57 69 83 64 65 64 65 66 66 71 74 75 88 89 80 75 76 74 77 81 81 80 75 81 79 72 75 92 96 93 87
51 70 73 63 58 58 58 62 79 73 71 83 83 81 98 100 96 90 77 78 72 97 98 92 86 81 78 72 80 66 68 70 69 79 88 81 86 87 86 83 79 88 86 86 77 90 83 75 76 82 93 94 85 83
68 66 59 49 72 75 76 58 71 64 77 71 70 72 82 85 91 77 94 96 92 76 70 68 67 70 76 74 76 75 74 79 78 84 96 89 78 86 81 84 81 95 89 86 80 83 89 81 86 97 90 87 88 87
64 67 94 80 68 84 74 84 60 60 68 66 65 85 85 88 74 80 92 85 85 61 60 63 62 65 76 75 77 85 95 98 93 99 97 93 83 73 73 81 81 79 76 79 82 89 92 100 92 90 88 89 86 86
69 90 89 85 76 78 79 82 86 69 85 69 69 73 79 71 77 87 85 88 82 87 80 72 67 65 79 85 83 93 100 99 99 99 100 98 97 80 77 78 84 86 86 99 100 100 100 100 100 98 91 91 88 87
84 85 86 80 83 85 76 87 85 81 71 69 79 72 73 74 66 80 85 95 85 91 100 100 88 72 63 60 73 89 98 99 98 98 98 98 100 100 99 97 96 98 91 96 100 100 100 98 99 97 97 93 87 89
87 89 74 68 85 74 76 70 61 67 68 67 72 77 74 61 68 88 91 85 85 90 81 79 82 75 69 69 73 78 83 96 94 86 82 94 99 99 100 100 100 97 91 100 100 100 100 100 100 100 100 100 99 98
75 78 94 91 91 78 80 77 79 85 83 63 71 69 82 88 92 91 85 83 82 78 81 77 80 78 76 83 84 84 88 93 98 89 84 89 99 100 100 100 100 96 98 100 100 100 100 100 100 100 100 100 97 100
63 70 77 88 81 89 89 90 90 79 61 70 92 86 90 80 91 91 88 82 80 80 86 88 91 97 92 86 98 97 97 100 100 99 99 99 100 100 99 100 100 100 100 100 100 100 100 100 100 100 100 100 98 100
68 63 71 65 65 83 81 73 79 79 67 70 87 87 76 86 89 78 82 84 89 94 92 92 93 97 94 98 98 98 100 100 100 100 100 100 100 100 100 100 100 100 100 100 100 100 98 99 99 100 97 94 96 96
55 69 63 62 65 66 74 83 80 74 79 88 87 95 85 91 87 79 82 85 86 87 89 90 89 90 92 91 95 97 100 100 100 100 100 100 100 100 100 100 100 100 100 100 100 100 100 100 99 97 97 97 95 92
68 68 80 79 74 68 68 74 76 84 85 91 96 95 95 92 88 85 91 87 88 89 87 90 93 93 94 97 100 100 98 99 98 100 100 100 99 99 98 94 100 100 100 100 100 100 100 98 97 96 94 94 93 92
67 66 65 69 66 65 68 78 68 68 82 94 93 92 91 80 87 90 75 82 93 94 94 94 94 94 97 99 99 99 91 91 92 91 91 91 93 96 99 100 100 100 100 100 100 100 99 97 94 94 92 90 88 89

GFSWCAN_sfc_rhum_168.txt.gz
RH
89 89 89 87 88 87 84 85 84 82 83 82 83 81 80 80 84 87 74 66 77 75 48 37 37 38 32 32 49 41 58 68 71 82 71 74 71 61 56 42 43 47 69 81 94 96 86 32 41 47 49 48 38 36
88 89 90 90 89 89 86 86 86 83 84 85 87 82 81 80 82 84 85 66 60 87 65 50 42 32 30 31 44 54 69 57 89 87 80 88 90 82 79 75 35 55 67 96 97 93 65 62 40 51 70 54 52 58
91 89 91 92 89 91 87 87 91 85 84 85 89 84 81 80 80 82 72 76 80 90 72 56 49 37 35 37 37 59 44 38 48 45 78 73 70 52 75 67 68 59 46 67 64 51 48 56 50 59 61 41 38 37
90 92 92 90 90 88 87 87 87 85 85 87 91 87 82 81 82 83 80 78 75 68 83 55 33 42 34 39 41 42 47 47 51 57 80 74 70 45 67 52 53 54 48 54 60 56 57 47 40 45 40 38 36 42
93 92 91 90 89 88 88 86 85 86 86 86 89 89 82 81 80 84 82 78 68 57 84 70 49 32 35 41 44 45 51 57 73 84 85 80 54 61 56 51 55 35 47 68 75 59 83 91 89 53 43 32 37 53
90 91 89 88 88 88 87 87 86 87 86 87 86 90 82 82 81 95 100 90 74 66 97 80 46 45 40 42 46 50 53 62 77 99 86 62 50 68 78 62 38 33 35 42 56 50 52 67 68 31 32 34 39 47
92 89 90 90 90 90 89 88 87 87 87 87 86 87 82 82 92 99 95 81 77 81 100 89 66 39 39 41 51 56 58 80 90 91 90 76 63 63 71 74 44 41 39 38 40 51 85 64 43 34 35 33 52 61
89 92 90 88 88 89 90 88 88 88 88 87 85 91 90 84 90 98 77 78 78 94 98 91 72 77 45 61 73 55 76 82 100 96 73 64 62 69 77 49 44 38 39 41 39 34 52 26 30 32 31 31 37 56
93 93 92 92 86 86 87 88 87 85 87 88 90 92 97 99 100 99 84 88 94 86 91 86 68 79 65 77 72 80 79 97 67 87 75 67 72 77 59 48 44 40 55 64 52 41 23 26 29 29 25 26 35 36
88 93 91 94 91 90 86 85 85 90 89 85 92 99 100 100 91 88 98 100 100 99 99 86 51 66 71 79 78 85 97 93 92 72 59 84 76 46 39 44 43 56 59 62 41 37 45 46 45 43 38 37 31 40
87 90 91 92 95 94 92 90 86 82 82 93 99 100 98 88 96 100 99 93 92 86 60 59 57 70 56 74 76 82 86 90 87 75 75 80 69 56 43 40 38 56 52 48 46 46 50 49 53 54 54 56 79 88
82 83 83 84 81 83 85 84 85 78 78 82 92 95 96 96 88 92 89 90 62 52 42 53 54 46 52 61 75 75 83 86 88 85 90 71 89 56 46 49 53 56 56 56 50 54 59 65 72 75 87 93 96 95
81 83 81 79 76 75 78 80 80 80 62 55 55 70 86 82 96 87 88 75 66 45 44 49 77 63 66 67 89 97 96 82 79 90 75 82 75 63 60 61 62 60 64 60 66 74 79 91 92 95 97 98 100 98
79 76 80 82 83 76 68 72 78 67 66 64 61 86 72 79 62 56 53 65 60 57 53 51 72 75 84 99 92 89 70 68 91 83 64 78 78 83 78 75 68 85 91 89 93 94 97 94 98 99 98 96 96 99
74 75 73 72 76 81 82 75 78 60 81 76 64 75 68 57 69 87 80 66 68 64 63 77 80 90 99 97 70 66 74 72 56 85 89 88 82 85 85 88 92 96 98 98 99 100 100 100 98 98 98 99 99 98
73 76 68 75 78 83 87 82 74 74 96 81 72 81 77 89 96 100 98 87 66 75 73 79 79 97 84 67 65 70 55 48 72 93 94 85 83 86 85 88 94 97 95 99 99 97 95 96 95 96 95 96 96 96
74 52 72 74 76 81 90 93 96 100 97 71 96 100 97 95 100 100 92 83 73 86 84 81 98 64 64 59 50 48 70 93 100 95 89 83 85 92 100 100 100 98 94 90 96 93 90 100 100 85 89 92 90 94
51 64 71 72 68 81 82 88 99 100 92 77 89 100 95 97 100 99 96 91 87 80 72 94 55 48 66 44 53 80 86 98 93 89 87 85 88 97 86 90 97 94 92 91 88 86 87 89 76 83 83 81 82 83
64 64 70 72 69 70 69 68 69 80 82 92 92 86 92 98 93 85 85 81 73 71 86 77 64 57 56 71 94 100 100 86 87 85 87 87 88 92 89 84 96 94 86 84 73 73 71 68 69 67 68 72 81 83
70 70 71 74 81 55 49 56 54 72 74 79 87 89 86 93 95 100 95 79 65 69 76 74 66 82 82 81 82 81 80 78 74 76 81 90 90 90 88 83 77 82 79 76 74 78 68 70 69 74 78 82 88 93
63 65 73 69 52 48 56 60 64 79 73 70 83 83 85 84 84 86 82 71 82 80 66 92 97 92 79 78 75 75 74 71 71 80 86 86 90 81 89 85 82 81 78 79 85 85 86 86 78 85 94 97 96 95
53 70 71 58 54 47 52 55 69 70 72 74 75 74 83 94 94 88 78 74 88 95 86 84 78 76 77 77 75 71 76 77 79 88 90 91 91 86 94 99 96 93 87 93 92 96 89 86 86 92 95 98 91 90
68 64 67 49 70 73 72 50 66 64 74 67 68 70 84 92 92 72 86 89 89 78 71 63 59 66 77 78 74 78 80 91 88 86 97 90 91 96 93 90 93 98 93 87 86 93 98 90 91 95 96 94 94 94
59 67 91 75 68 75 71 79 56 56 61 60 61 78 87 85 76 76 91 89 86 63 63 66 65 66 68 76 87 94 96 97 98 100 100 100 99 97 88 86 86 94 91 84 90 96 98 99 93 92 94 96 94 94
82 89 94 85 74 77 77 74 79 64 78 70 81 89 79 67 74 86 89 93 88 89 85 77 76 74 80 82 77 87 98 98 98 98 100 99 99 100 91 88 90 91 94 100 100 100 100 98 97 97 94 94 93 94
91 87 88 87 85 90 79 81 78 83 72 76 70 64 65 70 68 90 91 94 92 92 93 92 90 79 71 73 79 83 90 97 98 98 99 98 99 100 100 100 99 97 95 100 100 100 98 97 97 98 97 96 93 95
87 88 80 80 86 87 87 66 61 73 70 77 70 74 68 66 83 91 88 84 84 88 83 85 88 87 82 78 81 84 87 96 99 96 81 84 97 99 100 100 100 99 97 100 100 100 100 99 98 97 97 98 96 91
86 78 94 93 91 92 94 92 92 93 85 65 71 80 86 92 92 92 89 86 90 86 81 81 91 82 81 80 85 88 90 99 100 96 90 96 99 100 100 100 100 99 100 100 100 100 100 100 100 100 99 96 96 100
67 66 74 88 80 91 90 90 90 82 76 82 93 94 88 83 91 89 88 83 78 79 88 90 89 90 88 90 95 98 96 100 100 99 93 97 100 99 100 100 100 100 100 100 100 100 100 100 100 100 100 99 99 100
71 62 77 66 72 87 82 79 83 84 72 89 86 79 81 89 90 78 82 85 89 94 94 93 93 94 95 96 94 98 100 100 100 100 100 100 100 100 100 100 100 100 100 100 100 100 99 100 99 99 98 98 97 97
52 69 61 60 66 71 78 82 81 78 81 93 91 87 82 92 92 81 82 85 85 87 90 91 91 94 95 96 96 95 95 98 99 99 99 100 100 100 100 100 100 100 100 100 100 100 99 99 97 96 96 96 96 95
68 67 73 79 78 69 73 80 77 82 95 95 94 97 96 91 88 88 87 87 87 90 90 93 94 95 95 97 98 96 94 95 96 97 97 98 97 97 97 98 100 100 100 100 100 100 99 96 96 96 96 95 96 96
65 65 64 64 66 64 72 77 66 79 94 91 93 93 90 79 88 93 82 83 93 93 94 94 94 96 96 96 95 97 91 93 87 85 86 88 90 92 94 98 100 100 100 100 100 99 96 94 95 95 96 96 96 96

GFSWCAN_sfc_rhum_171.txt.gz
RH
88 89 88 88 89 88 88 86 86 76 84 82 83 84 80 80 81 88 90 91 94 100 78 58 53 75 64 72 84 69 80 84 92 94 96 92 94 85 77 56 58 66 84 96 96 97 92 70 82 95 95 75 71 68
90 90 90 90 89 90 88 86 85 82 84 83 83 85 79 81 82 83 95 80 89 97 88 68 68 58 61 49 66 74 83 92 95 97 99 98 96 95 90 95 56 84 87 98 92 92 73 71 66 62 81 76 85 87
91 89 90 90 90 90 89 87 85 87 84 84 83 86 84 82 82 82 87 92 93 98 91 85 75 57 45 52 54 82 74 65 80 78 96 96 94 81 93 87 70 66 56 96 95 70 49 52 62 62 75 80 75 64
91 91 93 92 88 90 90 86 86 87 85 85 84 85 87 83 82 79 91 95 90 92 97 80 51 60 49 52 54 60 63 62 67 78 96 97 95 68 92 76 69 68 57 66 65 62 52 53 60 63 69 84 86 61
91 92 92 92 91 92 91 87 87 86 90 86 85 87 87 83 82 85 91 92 84 89 99 93 77 58 47 55 58 59 67 75 90 95 97 96 82 83 84 79 75 56 62 73 69 54 72 65 69 60 77 82 76 70
89 91 91 91 90 89 89 90 94 92 87 87 88 86 87 84 81 93 100 97 88 90 99 98 74 61 58 59 62 66 73 82 90 97 95 92 69 85 98 88 52 47 47 51 54 42 45 50 55 63 69 68 66 74
92 90 90 90 90 90 90 87 87 87 88 88 89 89 86 85 92 99 96 93 79 95 99 98 96 61 54 60 72 76 72 93 94 98 99 83 79 79 95 93 62 57 52 47 46 50 56 52 66 58 83 57 79 78
92 91 89 89 90 89 89 88 88 88 88 88 87 90 84 86 82 96 92 82 83 98 99 99 93 90 60 84 90 79 93 96 99 97 98 90 83 91 96 69 56 49 46 45 44 56 62 55 54 53 47 44 60 79
94 94 89 88 90 88 89 89 88 89 89 88 86 91 98 98 100 100 82 84 96 94 98 97 96 93 88 94 98 99 99 99 93 99 91 89 96 96 80 66 55 48 50 49 65 76 69 75 68 49 43 43 48 64
92 95 89 89 89 87 84 85 87 88 89 84 93 100 100 99 88 87 96 100 100 99 99 96 80 91 90 97 97 97 98 94 99 89 87 98 85 57 52 49 47 46 51 68 90 89 75 71 70 70 80 85 88 93
89 93 93 93 89 88 92 90 87 82 81 97 100 99 99 84 98 100 99 99 99 99 96 95 85 95 85 95 96 96 97 95 97 89 94 93 90 75 53 48 42 64 74 88 84 74 80 83 90 94 94 96 93 95
82 82 85 90 89 90 86 84 82 86 91 87 96 97 98 99 99 95 96 98 92 80 79 88 89 79 88 82 96 94 95 92 95 99 98 95 99 84 63 54 49 58 67 71 78 85 88 88 90 93 91 92 93 95
82 82 82 84 87 87 86 83 82 82 75 82 87 87 96 98 97 97 97 96 93 72 80 77 89 86 90 88 96 98 98 96 96 99 90 97 99 86 81 77 86 83 84 86 89 87 84 92 92 95 98 97 96 98
77 77 77 79 80 78 76 78 77 76 85 88 82 97 96 96 91 91 88 90 83 81 74 85 96 94 99 98 96 98 91 91 96 98 96 99 96 95 95 92 92 96 96 94 98 98 99 99 98 98 98 98 97 98
74 75 78 76 80 81 82 80 76 78 81 90 84 87 88 86 93 96 96 92 89 85 89 96 96 94 94 99 98 90 89 88 83 97 100 98 95 94 96 93 94 97 98 98 99 99 99 98 98 99 98 98 97 97
73 73 74 77 85 85 83 78 82 88 90 92 88 93 93 94 96 96 99 97 92 99 94 95 92 98 96 96 89 86 76 80 99 100 98 92 91 95 96 96 95 96 97 97 96 97 96 96 98 98 97 97 97 96
74 74 75 75 77 90 85 92 95 95 97 90 98 99 98 97 96 96 98 97 89 95 97 93 97 87 91 93 77 85 94 98 100 100 99 90 89 95 96 95 96 94 95 94 94 95 93 98 96 91 96 99 97 98
77 78 72 73 74 91 96 96 99 99 90 96 96 99 99 100 100 99 100 96 92 92 90 90 98 98 88 70 93 99 99 99 99 98 98 85 86 90 83 89 86 94 94 94 85 86 88 90 86 94 93 93 97 95
80 78 70 70 78 92 91 92 90 97 99 98 98 92 98 99 98 97 97 94 86 89 97 99 98 89 96 99 99 96 100 98 97 96 89 86 87 89 92 91 96 95 90 88 89 91 86 79 76 79 88 90 95 96
75 76 76 70 81 84 61 76 76 84 94 98 97 98 98 99 99 99 97 91 85 92 99 99 99 99 100 98 98 97 97 96 97 98 99 98 96 92 93 92 95 91 92 89 88 82 84 87 89 90 93 93 97 98
71 72 75 81 83 73 74 80 88 86 91 90 96 92 99 97 97 97 97 84 95 97 99 99 99 98 92 92 92 92 94 93 98 96 97 98 97 97 96 95 92 92 91 92 96 95 93 96 98 98 97 98 98 98
75 73 85 80 80 62 69 72 84 85 80 94 92 86 99 99 99 99 90 95 98 99 99 98 91 81 79 83 86 87 93 92 90 96 96 95 99 99 99 99 99 99 96 95 99 99 99 97 98 98 97 98 96 96
73 79 93 72 80 83 83 74 80 80 88 90 92 92 98 99 100 93 98 98 99 93 90 84 76 78 89 90 91 93 94 98 97 99 99 98 99 100 99 99 98 97 98 98 97 98 98 97 98 97 97 97 96 97
71 81 95 92 85 89 88 91 79 78 80 83 85 86 95 95 94 96 97 98 98 88 88 88 90 91 90 87 98 98 98 98 98 98 95 99 97 99 99 99 98 96 96 96 98 98 98 98 96 97 96 96 96 96
93 96 97 93 87 90 90 88 89 81 88 86 88 98 94 93 98 97 96 97 94 95 93 89 88 88 96 95 93 96 92 95 96 98 99 99 99 99 100 99 98 97 96 96 99 98 98 97 96 96 96 95 96 97
94 92 91 91 90 91 93 96 93 92 88 90 91 86 90 96 94 96 93 97 94 98 98 98 98 94 88 87 88 90 91 90 98 99 99 96 98 98 99 99 100 99 98 98 99 98 98 96 96 96 97 97 97 96
94 94 82 80 92 90 94 93 93 96 95 96 95 92 89 95 96 96 97 96 96 97 95 96 96 95 95 90 87 91 92 97 99 99 98 97 99 99 98 98 99 99 99 99 99 99 97 97 96 95 97 97 95 94
83 72 95 93 94 94 96 94 95 96 95 87 88 96 96 95 97 97 96 93 88 87 87 86 85 90 92 95 98 99 94 94 97 99 100 100 99 99 99 99 99 100 100 100 100 100 99 98 96 96 96 96 97 97
81 73 80 80 85 94 94 94 93 92 92 95 97 96 94 91 96 96 95 88 85 88 92 93 92 91 88 88 91 99 98 99 98 97 98 99 99 98 98 96 99 99 99 99 99 100 100 99 99 98 98 98 98 98
89 72 88 81 86 90 92 89 90 91 80 95 90 84 84 95 95 88 90 89 92 95 96 95 94 94 95 96 97 96 96 97 97 98 98 98 99 100 98 98 99 98 98 97 99 99 99 99 99 99 98 98 98 98
66 85 85 81 86 89 87 88 84 83 94 97 91 92 93 96 95 87 88 89 88 90 91 92 92 91 94 94 96 95 94 95 96 97 97 98 98 98 98 97 98 99 99 99 99 99 98 98 97 97 97 98 98 97
88 88 91 96 84 85 89 88 94 96 97 95 96 97 97 97 97 98 94 89 88 91 92 93 94 94 95 96 95 98 98 97 96 96 96 96 96 96 97 97 98 99 99 100 99 99 98 97 98 98 97 98 97 96
85 86 85 90 90 86 90 92 91 96 96 96 96 96 95 95 97 97 94 91 96 96 94 94 95 95 96 96 96 96 96 96 93 90 88 88 96 98 97 96 97 98 99 99 99 98 98 97 97 97 97 97 96 96